<?xml version="1.0" encoding="UTF-8" standalone="no" ?>
<gpx xmlns="http://www.topografix.com/GPX/1/1" xmlns:xsi="http://www.w3.org/2001/XMLSchema-instance" xsi:schemaLocation="http://www.topografix.com/GPX/1/1 http://www.topografix.com/GPX/1/1/gpx.xsd" version="1.1" creator="VisuGPX - https://www.visugpx.com">
  <metadata>
    <name>besançon chailluz-les ruffile</name>
    <desc><![CDATA[parcours facile pour découverte bas de chailluz et la ferme des ruffile ]]></desc>
  </metadata>
  <trk>
    <name><![CDATA[Tracé actuel: 27 AVR 2021 16:55]]></name>
    <trkseg>
      <trkpt lat="47.2621" lon="6.04299">
        <ele>374.57</ele>
        <time>2021-04-27T14:55:22Z</time>
      </trkpt>
      <trkpt lat="47.26234" lon="6.0435">
        <ele>375.05</ele>
        <time>2021-04-27T14:55:38Z</time>
      </trkpt>
      <trkpt lat="47.26243" lon="6.04392">
        <ele>376.49</ele>
        <time>2021-04-27T14:55:50Z</time>
      </trkpt>
      <trkpt lat="47.26242" lon="6.04408">
        <ele>373.13</ele>
        <time>2021-04-27T14:56:00Z</time>
      </trkpt>
      <trkpt lat="47.26245" lon="6.04416">
        <ele>372.65</ele>
        <time>2021-04-27T14:56:02Z</time>
      </trkpt>
      <trkpt lat="47.26266" lon="6.04448">
        <ele>369.28</ele>
        <time>2021-04-27T14:56:11Z</time>
      </trkpt>
      <trkpt lat="47.26292" lon="6.04482">
        <ele>366.88</ele>
        <time>2021-04-27T14:56:22Z</time>
      </trkpt>
      <trkpt lat="47.26297" lon="6.04486">
        <ele>366.4</ele>
        <time>2021-04-27T14:56:24Z</time>
      </trkpt>
      <trkpt lat="47.26319" lon="6.04484">
        <ele>364.48</ele>
        <time>2021-04-27T14:56:32Z</time>
      </trkpt>
      <trkpt lat="47.26361" lon="6.04523">
        <ele>363.52</ele>
        <time>2021-04-27T14:56:49Z</time>
      </trkpt>
      <trkpt lat="47.26397" lon="6.04549">
        <ele>362.07</ele>
        <time>2021-04-27T14:57:01Z</time>
      </trkpt>
      <trkpt lat="47.26441" lon="6.04569">
        <ele>361.11</ele>
        <time>2021-04-27T14:57:15Z</time>
      </trkpt>
      <trkpt lat="47.26502" lon="6.04605">
        <ele>360.63</ele>
        <time>2021-04-27T14:57:33Z</time>
      </trkpt>
      <trkpt lat="47.26549" lon="6.04653">
        <ele>361.11</ele>
        <time>2021-04-27T14:57:48Z</time>
      </trkpt>
      <trkpt lat="47.26556" lon="6.0466">
        <ele>361.11</ele>
        <time>2021-04-27T14:57:50Z</time>
      </trkpt>
      <trkpt lat="47.26563" lon="6.04666">
        <ele>361.59</ele>
        <time>2021-04-27T14:57:52Z</time>
      </trkpt>
      <trkpt lat="47.26629" lon="6.04683">
        <ele>364</ele>
        <time>2021-04-27T14:58:09Z</time>
      </trkpt>
      <trkpt lat="47.26674" lon="6.04684">
        <ele>363.52</ele>
        <time>2021-04-27T14:58:20Z</time>
      </trkpt>
      <trkpt lat="47.26679" lon="6.04685">
        <ele>363.52</ele>
        <time>2021-04-27T14:58:21Z</time>
      </trkpt>
      <trkpt lat="47.26696" lon="6.04691">
        <ele>364</ele>
        <time>2021-04-27T14:58:25Z</time>
      </trkpt>
      <trkpt lat="47.267" lon="6.04694">
        <ele>363.52</ele>
        <time>2021-04-27T14:58:26Z</time>
      </trkpt>
      <trkpt lat="47.26768" lon="6.04751">
        <ele>362.55</ele>
        <time>2021-04-27T14:58:43Z</time>
      </trkpt>
      <trkpt lat="47.26773" lon="6.04755">
        <ele>362.55</ele>
        <time>2021-04-27T14:58:44Z</time>
      </trkpt>
      <trkpt lat="47.26777" lon="6.0476">
        <ele>362.55</ele>
        <time>2021-04-27T14:58:45Z</time>
      </trkpt>
      <trkpt lat="47.26812" lon="6.04818">
        <ele>362.07</ele>
        <time>2021-04-27T14:58:57Z</time>
      </trkpt>
      <trkpt lat="47.26805" lon="6.04816">
        <ele>362.07</ele>
        <time>2021-04-27T14:59:16Z</time>
      </trkpt>
      <trkpt lat="47.26806" lon="6.04819">
        <ele>361.59</ele>
        <time>2021-04-27T14:59:27Z</time>
      </trkpt>
      <trkpt lat="47.26807" lon="6.04822">
        <ele>362.07</ele>
        <time>2021-04-27T14:59:28Z</time>
      </trkpt>
      <trkpt lat="47.2681" lon="6.04826">
        <ele>362.07</ele>
        <time>2021-04-27T14:59:29Z</time>
      </trkpt>
      <trkpt lat="47.26814" lon="6.04828">
        <ele>362.07</ele>
        <time>2021-04-27T14:59:30Z</time>
      </trkpt>
      <trkpt lat="47.26818" lon="6.04826">
        <ele>361.59</ele>
        <time>2021-04-27T14:59:31Z</time>
      </trkpt>
      <trkpt lat="47.26822" lon="6.04822">
        <ele>361.11</ele>
        <time>2021-04-27T14:59:32Z</time>
      </trkpt>
      <trkpt lat="47.26826" lon="6.04818">
        <ele>361.11</ele>
        <time>2021-04-27T14:59:33Z</time>
      </trkpt>
      <trkpt lat="47.2687" lon="6.04759">
        <ele>359.19</ele>
        <time>2021-04-27T14:59:43Z</time>
      </trkpt>
      <trkpt lat="47.26875" lon="6.04754">
        <ele>359.19</ele>
        <time>2021-04-27T14:59:44Z</time>
      </trkpt>
      <trkpt lat="47.2688" lon="6.0475">
        <ele>359.19</ele>
        <time>2021-04-27T14:59:45Z</time>
      </trkpt>
      <trkpt lat="47.26958" lon="6.04704">
        <ele>357.27</ele>
        <time>2021-04-27T15:00:00Z</time>
      </trkpt>
      <trkpt lat="47.26994" lon="6.04689">
        <ele>355.34</ele>
        <time>2021-04-27T15:00:06Z</time>
      </trkpt>
      <trkpt lat="47.27001" lon="6.04687">
        <ele>354.38</ele>
        <time>2021-04-27T15:00:07Z</time>
      </trkpt>
      <trkpt lat="47.27008" lon="6.04683">
        <ele>353.9</ele>
        <time>2021-04-27T15:00:08Z</time>
      </trkpt>
      <trkpt lat="47.27015" lon="6.04678">
        <ele>353.9</ele>
        <time>2021-04-27T15:00:09Z</time>
      </trkpt>
      <trkpt lat="47.27021" lon="6.04674">
        <ele>353.42</ele>
        <time>2021-04-27T15:00:10Z</time>
      </trkpt>
      <trkpt lat="47.27027" lon="6.04671">
        <ele>353.9</ele>
        <time>2021-04-27T15:00:11Z</time>
      </trkpt>
      <trkpt lat="47.27041" lon="6.04668">
        <ele>350.54</ele>
        <time>2021-04-27T15:00:13Z</time>
      </trkpt>
      <trkpt lat="47.27048" lon="6.04664">
        <ele>349.58</ele>
        <time>2021-04-27T15:00:14Z</time>
      </trkpt>
      <trkpt lat="47.27055" lon="6.04659">
        <ele>349.1</ele>
        <time>2021-04-27T15:00:15Z</time>
      </trkpt>
      <trkpt lat="47.2706" lon="6.04654">
        <ele>348.62</ele>
        <time>2021-04-27T15:00:16Z</time>
      </trkpt>
      <trkpt lat="47.27065" lon="6.0465">
        <ele>348.62</ele>
        <time>2021-04-27T15:00:17Z</time>
      </trkpt>
      <trkpt lat="47.2708" lon="6.04631">
        <ele>347.17</ele>
        <time>2021-04-27T15:00:23Z</time>
      </trkpt>
      <trkpt lat="47.27089" lon="6.04623">
        <ele>346.21</ele>
        <time>2021-04-27T15:00:25Z</time>
      </trkpt>
      <trkpt lat="47.27095" lon="6.04619">
        <ele>345.73</ele>
        <time>2021-04-27T15:00:26Z</time>
      </trkpt>
      <trkpt lat="47.27133" lon="6.04596">
        <ele>343.81</ele>
        <time>2021-04-27T15:00:32Z</time>
      </trkpt>
      <trkpt lat="47.27138" lon="6.0459">
        <ele>344.29</ele>
        <time>2021-04-27T15:00:33Z</time>
      </trkpt>
      <trkpt lat="47.27152" lon="6.04569">
        <ele>347.65</ele>
        <time>2021-04-27T15:00:38Z</time>
      </trkpt>
      <trkpt lat="47.27153" lon="6.04566">
        <ele>347.65</ele>
        <time>2021-04-27T15:00:39Z</time>
      </trkpt>
      <trkpt lat="47.27166" lon="6.04538">
        <ele>351.02</ele>
        <time>2021-04-27T15:00:48Z</time>
      </trkpt>
      <trkpt lat="47.27167" lon="6.04537">
        <ele>351.02</ele>
        <time>2021-04-27T15:00:49Z</time>
      </trkpt>
      <trkpt lat="47.27168" lon="6.04537">
        <ele>351.02</ele>
        <time>2021-04-27T15:00:50Z</time>
      </trkpt>
      <trkpt lat="47.2717" lon="6.04538">
        <ele>351.5</ele>
        <time>2021-04-27T15:00:51Z</time>
      </trkpt>
      <trkpt lat="47.27171" lon="6.04539">
        <ele>351.5</ele>
        <time>2021-04-27T15:00:52Z</time>
      </trkpt>
      <trkpt lat="47.27174" lon="6.04541">
        <ele>351.5</ele>
        <time>2021-04-27T15:00:53Z</time>
      </trkpt>
      <trkpt lat="47.27191" lon="6.04562">
        <ele>350.54</ele>
        <time>2021-04-27T15:01:00Z</time>
      </trkpt>
      <trkpt lat="47.27195" lon="6.04566">
        <ele>350.06</ele>
        <time>2021-04-27T15:01:01Z</time>
      </trkpt>
      <trkpt lat="47.27233" lon="6.04589">
        <ele>351.02</ele>
        <time>2021-04-27T15:01:12Z</time>
      </trkpt>
      <trkpt lat="47.27256" lon="6.04623">
        <ele>351.5</ele>
        <time>2021-04-27T15:01:22Z</time>
      </trkpt>
      <trkpt lat="47.2728" lon="6.04659">
        <ele>351.98</ele>
        <time>2021-04-27T15:01:32Z</time>
      </trkpt>
      <trkpt lat="47.27297" lon="6.04697">
        <ele>351.02</ele>
        <time>2021-04-27T15:01:40Z</time>
      </trkpt>
      <trkpt lat="47.273" lon="6.04702">
        <ele>351.02</ele>
        <time>2021-04-27T15:01:41Z</time>
      </trkpt>
      <trkpt lat="47.27303" lon="6.04707">
        <ele>351.02</ele>
        <time>2021-04-27T15:01:42Z</time>
      </trkpt>
      <trkpt lat="47.27312" lon="6.04731">
        <ele>350.54</ele>
        <time>2021-04-27T15:01:46Z</time>
      </trkpt>
      <trkpt lat="47.27313" lon="6.04738">
        <ele>350.54</ele>
        <time>2021-04-27T15:01:47Z</time>
      </trkpt>
      <trkpt lat="47.27315" lon="6.04745">
        <ele>350.06</ele>
        <time>2021-04-27T15:01:48Z</time>
      </trkpt>
      <trkpt lat="47.27317" lon="6.04751">
        <ele>350.54</ele>
        <time>2021-04-27T15:01:49Z</time>
      </trkpt>
      <trkpt lat="47.27319" lon="6.04758">
        <ele>350.06</ele>
        <time>2021-04-27T15:01:50Z</time>
      </trkpt>
      <trkpt lat="47.27328" lon="6.04788">
        <ele>350.06</ele>
        <time>2021-04-27T15:01:55Z</time>
      </trkpt>
      <trkpt lat="47.27335" lon="6.04809">
        <ele>350.54</ele>
        <time>2021-04-27T15:01:59Z</time>
      </trkpt>
      <trkpt lat="47.27342" lon="6.04824">
        <ele>350.06</ele>
        <time>2021-04-27T15:02:02Z</time>
      </trkpt>
      <trkpt lat="47.27346" lon="6.04834">
        <ele>350.06</ele>
        <time>2021-04-27T15:02:04Z</time>
      </trkpt>
      <trkpt lat="47.27351" lon="6.04846">
        <ele>350.06</ele>
        <time>2021-04-27T15:02:06Z</time>
      </trkpt>
      <trkpt lat="47.27355" lon="6.04859">
        <ele>350.06</ele>
        <time>2021-04-27T15:02:08Z</time>
      </trkpt>
      <trkpt lat="47.27356" lon="6.04866">
        <ele>349.58</ele>
        <time>2021-04-27T15:02:09Z</time>
      </trkpt>
      <trkpt lat="47.27359" lon="6.04872">
        <ele>349.58</ele>
        <time>2021-04-27T15:02:10Z</time>
      </trkpt>
      <trkpt lat="47.27363" lon="6.04884">
        <ele>349.58</ele>
        <time>2021-04-27T15:02:12Z</time>
      </trkpt>
      <trkpt lat="47.2737" lon="6.04904">
        <ele>349.1</ele>
        <time>2021-04-27T15:02:15Z</time>
      </trkpt>
      <trkpt lat="47.27372" lon="6.0491">
        <ele>349.1</ele>
        <time>2021-04-27T15:02:16Z</time>
      </trkpt>
      <trkpt lat="47.27374" lon="6.04917">
        <ele>349.1</ele>
        <time>2021-04-27T15:02:17Z</time>
      </trkpt>
      <trkpt lat="47.27389" lon="6.0495">
        <ele>349.1</ele>
        <time>2021-04-27T15:02:23Z</time>
      </trkpt>
      <trkpt lat="47.27398" lon="6.04971">
        <ele>348.62</ele>
        <time>2021-04-27T15:02:27Z</time>
      </trkpt>
      <trkpt lat="47.27403" lon="6.04983">
        <ele>348.62</ele>
        <time>2021-04-27T15:02:29Z</time>
      </trkpt>
      <trkpt lat="47.27413" lon="6.05015">
        <ele>347.17</ele>
        <time>2021-04-27T15:02:33Z</time>
      </trkpt>
      <trkpt lat="47.27415" lon="6.05024">
        <ele>346.69</ele>
        <time>2021-04-27T15:02:34Z</time>
      </trkpt>
      <trkpt lat="47.27422" lon="6.0504">
        <ele>345.25</ele>
        <time>2021-04-27T15:02:36Z</time>
      </trkpt>
      <trkpt lat="47.27427" lon="6.05055">
        <ele>345.25</ele>
        <time>2021-04-27T15:02:38Z</time>
      </trkpt>
      <trkpt lat="47.2743" lon="6.05062">
        <ele>345.25</ele>
        <time>2021-04-27T15:02:39Z</time>
      </trkpt>
      <trkpt lat="47.27434" lon="6.05068">
        <ele>345.25</ele>
        <time>2021-04-27T15:02:40Z</time>
      </trkpt>
      <trkpt lat="47.27438" lon="6.05071">
        <ele>345.25</ele>
        <time>2021-04-27T15:02:41Z</time>
      </trkpt>
      <trkpt lat="47.27442" lon="6.05073">
        <ele>345.25</ele>
        <time>2021-04-27T15:02:42Z</time>
      </trkpt>
      <trkpt lat="47.27446" lon="6.05075">
        <ele>345.25</ele>
        <time>2021-04-27T15:02:43Z</time>
      </trkpt>
      <trkpt lat="47.27451" lon="6.05076">
        <ele>345.25</ele>
        <time>2021-04-27T15:02:44Z</time>
      </trkpt>
      <trkpt lat="47.27455" lon="6.05077">
        <ele>345.73</ele>
        <time>2021-04-27T15:02:45Z</time>
      </trkpt>
      <trkpt lat="47.27476" lon="6.05089">
        <ele>346.69</ele>
        <time>2021-04-27T15:02:51Z</time>
      </trkpt>
      <trkpt lat="47.27479" lon="6.05089">
        <ele>347.17</ele>
        <time>2021-04-27T15:02:52Z</time>
      </trkpt>
      <trkpt lat="47.27482" lon="6.0509">
        <ele>347.17</ele>
        <time>2021-04-27T15:02:53Z</time>
      </trkpt>
      <trkpt lat="47.27485" lon="6.05091">
        <ele>347.17</ele>
        <time>2021-04-27T15:02:54Z</time>
      </trkpt>
      <trkpt lat="47.27487" lon="6.05094">
        <ele>347.65</ele>
        <time>2021-04-27T15:02:55Z</time>
      </trkpt>
      <trkpt lat="47.2749" lon="6.05096">
        <ele>347.65</ele>
        <time>2021-04-27T15:02:56Z</time>
      </trkpt>
      <trkpt lat="47.27492" lon="6.05098">
        <ele>348.13</ele>
        <time>2021-04-27T15:02:57Z</time>
      </trkpt>
      <trkpt lat="47.27494" lon="6.051">
        <ele>348.62</ele>
        <time>2021-04-27T15:02:58Z</time>
      </trkpt>
      <trkpt lat="47.27497" lon="6.05102">
        <ele>348.62</ele>
        <time>2021-04-27T15:02:59Z</time>
      </trkpt>
      <trkpt lat="47.27499" lon="6.05104">
        <ele>348.62</ele>
        <time>2021-04-27T15:03:00Z</time>
      </trkpt>
      <trkpt lat="47.27528" lon="6.05129">
        <ele>350.54</ele>
        <time>2021-04-27T15:03:11Z</time>
      </trkpt>
      <trkpt lat="47.2754" lon="6.05137">
        <ele>350.54</ele>
        <time>2021-04-27T15:03:15Z</time>
      </trkpt>
      <trkpt lat="47.27542" lon="6.05139">
        <ele>350.54</ele>
        <time>2021-04-27T15:03:16Z</time>
      </trkpt>
      <trkpt lat="47.27574" lon="6.05172">
        <ele>350.06</ele>
        <time>2021-04-27T15:03:28Z</time>
      </trkpt>
      <trkpt lat="47.27576" lon="6.05176">
        <ele>350.06</ele>
        <time>2021-04-27T15:03:29Z</time>
      </trkpt>
      <trkpt lat="47.27588" lon="6.05202">
        <ele>350.06</ele>
        <time>2021-04-27T15:03:34Z</time>
      </trkpt>
      <trkpt lat="47.27592" lon="6.05206">
        <ele>350.06</ele>
        <time>2021-04-27T15:03:35Z</time>
      </trkpt>
      <trkpt lat="47.27595" lon="6.0521">
        <ele>349.58</ele>
        <time>2021-04-27T15:03:36Z</time>
      </trkpt>
      <trkpt lat="47.27599" lon="6.05211">
        <ele>349.58</ele>
        <time>2021-04-27T15:03:37Z</time>
      </trkpt>
      <trkpt lat="47.27604" lon="6.05209">
        <ele>349.1</ele>
        <time>2021-04-27T15:03:38Z</time>
      </trkpt>
      <trkpt lat="47.27608" lon="6.05204">
        <ele>348.62</ele>
        <time>2021-04-27T15:03:39Z</time>
      </trkpt>
      <trkpt lat="47.27612" lon="6.05199">
        <ele>348.62</ele>
        <time>2021-04-27T15:03:40Z</time>
      </trkpt>
      <trkpt lat="47.27617" lon="6.05195">
        <ele>348.13</ele>
        <time>2021-04-27T15:03:41Z</time>
      </trkpt>
      <trkpt lat="47.27622" lon="6.05192">
        <ele>347.65</ele>
        <time>2021-04-27T15:03:42Z</time>
      </trkpt>
      <trkpt lat="47.27627" lon="6.05189">
        <ele>347.65</ele>
        <time>2021-04-27T15:03:43Z</time>
      </trkpt>
      <trkpt lat="47.27632" lon="6.05188">
        <ele>347.65</ele>
        <time>2021-04-27T15:03:44Z</time>
      </trkpt>
      <trkpt lat="47.27638" lon="6.05189">
        <ele>347.65</ele>
        <time>2021-04-27T15:03:45Z</time>
      </trkpt>
      <trkpt lat="47.27642" lon="6.05192">
        <ele>347.65</ele>
        <time>2021-04-27T15:03:46Z</time>
      </trkpt>
      <trkpt lat="47.27647" lon="6.05195">
        <ele>347.65</ele>
        <time>2021-04-27T15:03:47Z</time>
      </trkpt>
      <trkpt lat="47.2765" lon="6.05198">
        <ele>347.65</ele>
        <time>2021-04-27T15:03:48Z</time>
      </trkpt>
      <trkpt lat="47.27654" lon="6.05201">
        <ele>347.65</ele>
        <time>2021-04-27T15:03:49Z</time>
      </trkpt>
      <trkpt lat="47.27658" lon="6.05205">
        <ele>347.65</ele>
        <time>2021-04-27T15:03:50Z</time>
      </trkpt>
      <trkpt lat="47.27661" lon="6.05209">
        <ele>347.65</ele>
        <time>2021-04-27T15:03:51Z</time>
      </trkpt>
      <trkpt lat="47.27663" lon="6.05215">
        <ele>346.21</ele>
        <time>2021-04-27T15:03:52Z</time>
      </trkpt>
      <trkpt lat="47.27674" lon="6.05234">
        <ele>346.21</ele>
        <time>2021-04-27T15:03:55Z</time>
      </trkpt>
      <trkpt lat="47.27676" lon="6.05241">
        <ele>346.21</ele>
        <time>2021-04-27T15:03:56Z</time>
      </trkpt>
      <trkpt lat="47.27677" lon="6.05248">
        <ele>346.21</ele>
        <time>2021-04-27T15:03:57Z</time>
      </trkpt>
      <trkpt lat="47.27685" lon="6.05283">
        <ele>345.73</ele>
        <time>2021-04-27T15:04:02Z</time>
      </trkpt>
      <trkpt lat="47.27698" lon="6.05308">
        <ele>346.21</ele>
        <time>2021-04-27T15:04:06Z</time>
      </trkpt>
      <trkpt lat="47.27701" lon="6.05312">
        <ele>346.21</ele>
        <time>2021-04-27T15:04:07Z</time>
      </trkpt>
      <trkpt lat="47.27705" lon="6.05315">
        <ele>346.21</ele>
        <time>2021-04-27T15:04:08Z</time>
      </trkpt>
      <trkpt lat="47.27709" lon="6.05319">
        <ele>346.21</ele>
        <time>2021-04-27T15:04:09Z</time>
      </trkpt>
      <trkpt lat="47.27713" lon="6.05322">
        <ele>346.21</ele>
        <time>2021-04-27T15:04:10Z</time>
      </trkpt>
      <trkpt lat="47.27717" lon="6.05325">
        <ele>346.21</ele>
        <time>2021-04-27T15:04:11Z</time>
      </trkpt>
      <trkpt lat="47.2772" lon="6.0533">
        <ele>346.21</ele>
        <time>2021-04-27T15:04:12Z</time>
      </trkpt>
      <trkpt lat="47.27722" lon="6.05335">
        <ele>346.69</ele>
        <time>2021-04-27T15:04:13Z</time>
      </trkpt>
      <trkpt lat="47.27737" lon="6.05377">
        <ele>349.1</ele>
        <time>2021-04-27T15:04:23Z</time>
      </trkpt>
      <trkpt lat="47.27753" lon="6.05425">
        <ele>349.58</ele>
        <time>2021-04-27T15:04:34Z</time>
      </trkpt>
      <trkpt lat="47.27771" lon="6.05471">
        <ele>348.62</ele>
        <time>2021-04-27T15:04:44Z</time>
      </trkpt>
      <trkpt lat="47.27783" lon="6.05499">
        <ele>347.17</ele>
        <time>2021-04-27T15:04:49Z</time>
      </trkpt>
      <trkpt lat="47.27785" lon="6.05506">
        <ele>347.17</ele>
        <time>2021-04-27T15:04:50Z</time>
      </trkpt>
      <trkpt lat="47.27788" lon="6.05513">
        <ele>346.69</ele>
        <time>2021-04-27T15:04:51Z</time>
      </trkpt>
      <trkpt lat="47.27797" lon="6.05526">
        <ele>345.73</ele>
        <time>2021-04-27T15:04:53Z</time>
      </trkpt>
      <trkpt lat="47.27801" lon="6.05531">
        <ele>345.25</ele>
        <time>2021-04-27T15:04:54Z</time>
      </trkpt>
      <trkpt lat="47.27831" lon="6.05552">
        <ele>345.73</ele>
        <time>2021-04-27T15:05:00Z</time>
      </trkpt>
      <trkpt lat="47.2784" lon="6.05557">
        <ele>346.69</ele>
        <time>2021-04-27T15:05:02Z</time>
      </trkpt>
      <trkpt lat="47.27844" lon="6.0556">
        <ele>346.69</ele>
        <time>2021-04-27T15:05:03Z</time>
      </trkpt>
      <trkpt lat="47.27848" lon="6.05564">
        <ele>346.69</ele>
        <time>2021-04-27T15:05:04Z</time>
      </trkpt>
      <trkpt lat="47.27858" lon="6.05578">
        <ele>346.69</ele>
        <time>2021-04-27T15:05:07Z</time>
      </trkpt>
      <trkpt lat="47.27862" lon="6.05582">
        <ele>347.17</ele>
        <time>2021-04-27T15:05:08Z</time>
      </trkpt>
      <trkpt lat="47.279" lon="6.05618">
        <ele>347.65</ele>
        <time>2021-04-27T15:05:19Z</time>
      </trkpt>
      <trkpt lat="47.2791" lon="6.05629">
        <ele>348.13</ele>
        <time>2021-04-27T15:05:22Z</time>
      </trkpt>
      <trkpt lat="47.27942" lon="6.05666">
        <ele>348.62</ele>
        <time>2021-04-27T15:05:32Z</time>
      </trkpt>
      <trkpt lat="47.2798" lon="6.05704">
        <ele>350.06</ele>
        <time>2021-04-27T15:05:44Z</time>
      </trkpt>
      <trkpt lat="47.28018" lon="6.05742">
        <ele>351.02</ele>
        <time>2021-04-27T15:05:57Z</time>
      </trkpt>
      <trkpt lat="47.28041" lon="6.05762">
        <ele>351.5</ele>
        <time>2021-04-27T15:06:04Z</time>
      </trkpt>
      <trkpt lat="47.28044" lon="6.05767">
        <ele>351.5</ele>
        <time>2021-04-27T15:06:05Z</time>
      </trkpt>
      <trkpt lat="47.28046" lon="6.05773">
        <ele>351.5</ele>
        <time>2021-04-27T15:06:06Z</time>
      </trkpt>
      <trkpt lat="47.28049" lon="6.05778">
        <ele>351.5</ele>
        <time>2021-04-27T15:06:07Z</time>
      </trkpt>
      <trkpt lat="47.28052" lon="6.05784">
        <ele>351.5</ele>
        <time>2021-04-27T15:06:08Z</time>
      </trkpt>
      <trkpt lat="47.2807" lon="6.05829">
        <ele>351.5</ele>
        <time>2021-04-27T15:06:16Z</time>
      </trkpt>
      <trkpt lat="47.28073" lon="6.05834">
        <ele>351.5</ele>
        <time>2021-04-27T15:06:17Z</time>
      </trkpt>
      <trkpt lat="47.28075" lon="6.05839">
        <ele>351.5</ele>
        <time>2021-04-27T15:06:18Z</time>
      </trkpt>
      <trkpt lat="47.28085" lon="6.05858">
        <ele>351.5</ele>
        <time>2021-04-27T15:06:22Z</time>
      </trkpt>
      <trkpt lat="47.28089" lon="6.05859">
        <ele>351.5</ele>
        <time>2021-04-27T15:06:23Z</time>
      </trkpt>
      <trkpt lat="47.28093" lon="6.0586">
        <ele>351.5</ele>
        <time>2021-04-27T15:06:24Z</time>
      </trkpt>
      <trkpt lat="47.28146" lon="6.05872">
        <ele>351.02</ele>
        <time>2021-04-27T15:06:37Z</time>
      </trkpt>
      <trkpt lat="47.28169" lon="6.05869">
        <ele>351.02</ele>
        <time>2021-04-27T15:06:42Z</time>
      </trkpt>
      <trkpt lat="47.28188" lon="6.05866">
        <ele>350.54</ele>
        <time>2021-04-27T15:06:46Z</time>
      </trkpt>
      <trkpt lat="47.28241" lon="6.05849">
        <ele>351.02</ele>
        <time>2021-04-27T15:06:58Z</time>
      </trkpt>
      <trkpt lat="47.28245" lon="6.05849">
        <ele>350.54</ele>
        <time>2021-04-27T15:06:59Z</time>
      </trkpt>
      <trkpt lat="47.28294" lon="6.0586">
        <ele>350.06</ele>
        <time>2021-04-27T15:07:11Z</time>
      </trkpt>
      <trkpt lat="47.28319" lon="6.05863">
        <ele>348.62</ele>
        <time>2021-04-27T15:07:18Z</time>
      </trkpt>
      <trkpt lat="47.28338" lon="6.05857">
        <ele>348.13</ele>
        <time>2021-04-27T15:07:22Z</time>
      </trkpt>
      <trkpt lat="47.2837" lon="6.05841">
        <ele>347.17</ele>
        <time>2021-04-27T15:07:29Z</time>
      </trkpt>
      <trkpt lat="47.28381" lon="6.05841">
        <ele>346.21</ele>
        <time>2021-04-27T15:07:31Z</time>
      </trkpt>
      <trkpt lat="47.28388" lon="6.05843">
        <ele>345.73</ele>
        <time>2021-04-27T15:07:32Z</time>
      </trkpt>
      <trkpt lat="47.28394" lon="6.05847">
        <ele>345.73</ele>
        <time>2021-04-27T15:07:33Z</time>
      </trkpt>
      <trkpt lat="47.28399" lon="6.05852">
        <ele>345.25</ele>
        <time>2021-04-27T15:07:34Z</time>
      </trkpt>
      <trkpt lat="47.28404" lon="6.05858">
        <ele>344.29</ele>
        <time>2021-04-27T15:07:35Z</time>
      </trkpt>
      <trkpt lat="47.2841" lon="6.05863">
        <ele>344.29</ele>
        <time>2021-04-27T15:07:36Z</time>
      </trkpt>
      <trkpt lat="47.28415" lon="6.05869">
        <ele>343.81</ele>
        <time>2021-04-27T15:07:37Z</time>
      </trkpt>
      <trkpt lat="47.2842" lon="6.05872">
        <ele>343.81</ele>
        <time>2021-04-27T15:07:38Z</time>
      </trkpt>
      <trkpt lat="47.28425" lon="6.05876">
        <ele>343.33</ele>
        <time>2021-04-27T15:07:39Z</time>
      </trkpt>
      <trkpt lat="47.28431" lon="6.05881">
        <ele>343.33</ele>
        <time>2021-04-27T15:07:40Z</time>
      </trkpt>
      <trkpt lat="47.28435" lon="6.05886">
        <ele>342.85</ele>
        <time>2021-04-27T15:07:41Z</time>
      </trkpt>
      <trkpt lat="47.2844" lon="6.05893">
        <ele>341.89</ele>
        <time>2021-04-27T15:07:42Z</time>
      </trkpt>
      <trkpt lat="47.28445" lon="6.059">
        <ele>341.41</ele>
        <time>2021-04-27T15:07:43Z</time>
      </trkpt>
      <trkpt lat="47.28449" lon="6.05908">
        <ele>341.41</ele>
        <time>2021-04-27T15:07:44Z</time>
      </trkpt>
      <trkpt lat="47.28455" lon="6.05913">
        <ele>341.41</ele>
        <time>2021-04-27T15:07:45Z</time>
      </trkpt>
      <trkpt lat="47.2848" lon="6.05932">
        <ele>338.52</ele>
        <time>2021-04-27T15:07:49Z</time>
      </trkpt>
      <trkpt lat="47.28506" lon="6.05951">
        <ele>336.6</ele>
        <time>2021-04-27T15:07:53Z</time>
      </trkpt>
      <trkpt lat="47.2851" lon="6.05956">
        <ele>336.6</ele>
        <time>2021-04-27T15:07:54Z</time>
      </trkpt>
      <trkpt lat="47.28514" lon="6.05961">
        <ele>336.6</ele>
        <time>2021-04-27T15:07:55Z</time>
      </trkpt>
      <trkpt lat="47.28533" lon="6.05984">
        <ele>334.2</ele>
        <time>2021-04-27T15:07:59Z</time>
      </trkpt>
      <trkpt lat="47.28538" lon="6.05989">
        <ele>333.71</ele>
        <time>2021-04-27T15:08:00Z</time>
      </trkpt>
      <trkpt lat="47.28542" lon="6.05993">
        <ele>333.71</ele>
        <time>2021-04-27T15:08:01Z</time>
      </trkpt>
      <trkpt lat="47.28546" lon="6.05999">
        <ele>333.23</ele>
        <time>2021-04-27T15:08:02Z</time>
      </trkpt>
      <trkpt lat="47.28554" lon="6.06007">
        <ele>333.23</ele>
        <time>2021-04-27T15:08:04Z</time>
      </trkpt>
      <trkpt lat="47.28558" lon="6.06005">
        <ele>332.75</ele>
        <time>2021-04-27T15:08:05Z</time>
      </trkpt>
      <trkpt lat="47.28589" lon="6.05974">
        <ele>331.31</ele>
        <time>2021-04-27T15:08:13Z</time>
      </trkpt>
      <trkpt lat="47.28615" lon="6.05935">
        <ele>329.39</ele>
        <time>2021-04-27T15:08:19Z</time>
      </trkpt>
      <trkpt lat="47.28621" lon="6.05931">
        <ele>328.43</ele>
        <time>2021-04-27T15:08:20Z</time>
      </trkpt>
      <trkpt lat="47.28626" lon="6.05927">
        <ele>327.95</ele>
        <time>2021-04-27T15:08:21Z</time>
      </trkpt>
      <trkpt lat="47.28632" lon="6.05924">
        <ele>327.95</ele>
        <time>2021-04-27T15:08:22Z</time>
      </trkpt>
      <trkpt lat="47.28648" lon="6.0591">
        <ele>327.47</ele>
        <time>2021-04-27T15:08:25Z</time>
      </trkpt>
      <trkpt lat="47.28687" lon="6.05858">
        <ele>326.99</ele>
        <time>2021-04-27T15:08:34Z</time>
      </trkpt>
      <trkpt lat="47.28701" lon="6.05845">
        <ele>326.02</ele>
        <time>2021-04-27T15:08:37Z</time>
      </trkpt>
      <trkpt lat="47.28707" lon="6.05844">
        <ele>325.06</ele>
        <time>2021-04-27T15:08:38Z</time>
      </trkpt>
      <trkpt lat="47.28745" lon="6.05835">
        <ele>321.7</ele>
        <time>2021-04-27T15:08:43Z</time>
      </trkpt>
      <trkpt lat="47.28753" lon="6.05831">
        <ele>321.7</ele>
        <time>2021-04-27T15:08:44Z</time>
      </trkpt>
      <trkpt lat="47.28775" lon="6.05818">
        <ele>319.78</ele>
        <time>2021-04-27T15:08:47Z</time>
      </trkpt>
      <trkpt lat="47.28781" lon="6.05813">
        <ele>318.81</ele>
        <time>2021-04-27T15:08:48Z</time>
      </trkpt>
      <trkpt lat="47.28799" lon="6.05793">
        <ele>315.93</ele>
        <time>2021-04-27T15:08:51Z</time>
      </trkpt>
      <trkpt lat="47.28804" lon="6.05783">
        <ele>314.97</ele>
        <time>2021-04-27T15:08:52Z</time>
      </trkpt>
      <trkpt lat="47.28809" lon="6.05773">
        <ele>314.49</ele>
        <time>2021-04-27T15:08:53Z</time>
      </trkpt>
      <trkpt lat="47.28811" lon="6.05761">
        <ele>314.49</ele>
        <time>2021-04-27T15:08:54Z</time>
      </trkpt>
      <trkpt lat="47.28823" lon="6.0573">
        <ele>316.89</ele>
        <time>2021-04-27T15:08:59Z</time>
      </trkpt>
      <trkpt lat="47.28825" lon="6.05726">
        <ele>316.89</ele>
        <time>2021-04-27T15:09:00Z</time>
      </trkpt>
      <trkpt lat="47.28828" lon="6.05723">
        <ele>316.89</ele>
        <time>2021-04-27T15:09:01Z</time>
      </trkpt>
      <trkpt lat="47.28831" lon="6.05722">
        <ele>316.89</ele>
        <time>2021-04-27T15:09:02Z</time>
      </trkpt>
      <trkpt lat="47.28834" lon="6.05721">
        <ele>317.37</ele>
        <time>2021-04-27T15:09:03Z</time>
      </trkpt>
      <trkpt lat="47.28837" lon="6.05719">
        <ele>317.37</ele>
        <time>2021-04-27T15:09:04Z</time>
      </trkpt>
      <trkpt lat="47.28871" lon="6.05734">
        <ele>318.33</ele>
        <time>2021-04-27T15:09:15Z</time>
      </trkpt>
      <trkpt lat="47.28907" lon="6.05756">
        <ele>320.26</ele>
        <time>2021-04-27T15:09:26Z</time>
      </trkpt>
      <trkpt lat="47.2893" lon="6.05771">
        <ele>321.22</ele>
        <time>2021-04-27T15:09:36Z</time>
      </trkpt>
      <trkpt lat="47.28932" lon="6.05771">
        <ele>321.22</ele>
        <time>2021-04-27T15:09:37Z</time>
      </trkpt>
      <trkpt lat="47.28934" lon="6.05773">
        <ele>321.22</ele>
        <time>2021-04-27T15:09:38Z</time>
      </trkpt>
      <trkpt lat="47.28964" lon="6.05791">
        <ele>320.74</ele>
        <time>2021-04-27T15:09:47Z</time>
      </trkpt>
      <trkpt lat="47.29008" lon="6.05803">
        <ele>321.7</ele>
        <time>2021-04-27T15:09:59Z</time>
      </trkpt>
      <trkpt lat="47.29042" lon="6.05835">
        <ele>321.22</ele>
        <time>2021-04-27T15:10:09Z</time>
      </trkpt>
      <trkpt lat="47.29056" lon="6.05841">
        <ele>322.18</ele>
        <time>2021-04-27T15:10:14Z</time>
      </trkpt>
      <trkpt lat="47.29058" lon="6.05843">
        <ele>321.7</ele>
        <time>2021-04-27T15:10:15Z</time>
      </trkpt>
      <trkpt lat="47.29091" lon="6.0587">
        <ele>322.66</ele>
        <time>2021-04-27T15:10:27Z</time>
      </trkpt>
      <trkpt lat="47.29094" lon="6.05873">
        <ele>322.66</ele>
        <time>2021-04-27T15:10:28Z</time>
      </trkpt>
      <trkpt lat="47.29098" lon="6.05877">
        <ele>322.66</ele>
        <time>2021-04-27T15:10:29Z</time>
      </trkpt>
      <trkpt lat="47.29101" lon="6.05882">
        <ele>322.66</ele>
        <time>2021-04-27T15:10:30Z</time>
      </trkpt>
      <trkpt lat="47.29109" lon="6.05904">
        <ele>322.18</ele>
        <time>2021-04-27T15:10:34Z</time>
      </trkpt>
      <trkpt lat="47.29116" lon="6.05934">
        <ele>321.22</ele>
        <time>2021-04-27T15:10:39Z</time>
      </trkpt>
      <trkpt lat="47.29118" lon="6.0594">
        <ele>321.22</ele>
        <time>2021-04-27T15:10:40Z</time>
      </trkpt>
      <trkpt lat="47.29121" lon="6.05953">
        <ele>321.22</ele>
        <time>2021-04-27T15:10:42Z</time>
      </trkpt>
      <trkpt lat="47.29123" lon="6.05959">
        <ele>321.22</ele>
        <time>2021-04-27T15:10:43Z</time>
      </trkpt>
      <trkpt lat="47.29126" lon="6.05964">
        <ele>321.22</ele>
        <time>2021-04-27T15:10:44Z</time>
      </trkpt>
      <trkpt lat="47.2913" lon="6.05967">
        <ele>321.22</ele>
        <time>2021-04-27T15:10:45Z</time>
      </trkpt>
      <trkpt lat="47.29134" lon="6.05969">
        <ele>321.7</ele>
        <time>2021-04-27T15:10:46Z</time>
      </trkpt>
      <trkpt lat="47.29137" lon="6.0597">
        <ele>321.22</ele>
        <time>2021-04-27T15:10:47Z</time>
      </trkpt>
      <trkpt lat="47.29146" lon="6.05971">
        <ele>321.22</ele>
        <time>2021-04-27T15:10:49Z</time>
      </trkpt>
      <trkpt lat="47.29151" lon="6.05971">
        <ele>320.74</ele>
        <time>2021-04-27T15:10:50Z</time>
      </trkpt>
      <trkpt lat="47.29155" lon="6.0597">
        <ele>320.74</ele>
        <time>2021-04-27T15:10:51Z</time>
      </trkpt>
      <trkpt lat="47.2916" lon="6.0597">
        <ele>320.74</ele>
        <time>2021-04-27T15:10:52Z</time>
      </trkpt>
      <trkpt lat="47.29165" lon="6.05969">
        <ele>320.74</ele>
        <time>2021-04-27T15:10:53Z</time>
      </trkpt>
      <trkpt lat="47.29171" lon="6.0597">
        <ele>320.74</ele>
        <time>2021-04-27T15:10:54Z</time>
      </trkpt>
      <trkpt lat="47.29175" lon="6.05971">
        <ele>320.74</ele>
        <time>2021-04-27T15:10:55Z</time>
      </trkpt>
      <trkpt lat="47.29178" lon="6.05972">
        <ele>321.22</ele>
        <time>2021-04-27T15:10:56Z</time>
      </trkpt>
      <trkpt lat="47.29181" lon="6.05974">
        <ele>321.7</ele>
        <time>2021-04-27T15:10:57Z</time>
      </trkpt>
      <trkpt lat="47.29183" lon="6.05975">
        <ele>322.18</ele>
        <time>2021-04-27T15:10:58Z</time>
      </trkpt>
      <trkpt lat="47.29185" lon="6.05976">
        <ele>322.18</ele>
        <time>2021-04-27T15:10:59Z</time>
      </trkpt>
      <trkpt lat="47.29187" lon="6.05979">
        <ele>322.18</ele>
        <time>2021-04-27T15:11:00Z</time>
      </trkpt>
      <trkpt lat="47.29189" lon="6.05982">
        <ele>322.18</ele>
        <time>2021-04-27T15:11:01Z</time>
      </trkpt>
      <trkpt lat="47.29192" lon="6.05985">
        <ele>322.18</ele>
        <time>2021-04-27T15:11:02Z</time>
      </trkpt>
      <trkpt lat="47.29194" lon="6.05987">
        <ele>322.18</ele>
        <time>2021-04-27T15:11:03Z</time>
      </trkpt>
      <trkpt lat="47.29197" lon="6.0599">
        <ele>322.18</ele>
        <time>2021-04-27T15:11:04Z</time>
      </trkpt>
      <trkpt lat="47.29199" lon="6.05993">
        <ele>322.66</ele>
        <time>2021-04-27T15:11:05Z</time>
      </trkpt>
      <trkpt lat="47.29201" lon="6.05995">
        <ele>322.66</ele>
        <time>2021-04-27T15:11:06Z</time>
      </trkpt>
      <trkpt lat="47.29204" lon="6.05998">
        <ele>322.66</ele>
        <time>2021-04-27T15:11:07Z</time>
      </trkpt>
      <trkpt lat="47.29206" lon="6.06">
        <ele>323.14</ele>
        <time>2021-04-27T15:11:08Z</time>
      </trkpt>
      <trkpt lat="47.29208" lon="6.06001">
        <ele>323.14</ele>
        <time>2021-04-27T15:11:09Z</time>
      </trkpt>
      <trkpt lat="47.2921" lon="6.06003">
        <ele>323.14</ele>
        <time>2021-04-27T15:11:10Z</time>
      </trkpt>
      <trkpt lat="47.29231" lon="6.06023">
        <ele>324.58</ele>
        <time>2021-04-27T15:11:20Z</time>
      </trkpt>
      <trkpt lat="47.29252" lon="6.06049">
        <ele>326.02</ele>
        <time>2021-04-27T15:11:30Z</time>
      </trkpt>
      <trkpt lat="47.29253" lon="6.06051">
        <ele>326.02</ele>
        <time>2021-04-27T15:11:31Z</time>
      </trkpt>
      <trkpt lat="47.29255" lon="6.06053">
        <ele>326.5</ele>
        <time>2021-04-27T15:11:32Z</time>
      </trkpt>
      <trkpt lat="47.29273" lon="6.06091">
        <ele>327.47</ele>
        <time>2021-04-27T15:11:44Z</time>
      </trkpt>
      <trkpt lat="47.29277" lon="6.061">
        <ele>327.95</ele>
        <time>2021-04-27T15:11:47Z</time>
      </trkpt>
      <trkpt lat="47.29279" lon="6.06102">
        <ele>327.95</ele>
        <time>2021-04-27T15:11:48Z</time>
      </trkpt>
      <trkpt lat="47.29292" lon="6.06112">
        <ele>328.43</ele>
        <time>2021-04-27T15:11:55Z</time>
      </trkpt>
      <trkpt lat="47.29299" lon="6.06113">
        <ele>328.43</ele>
        <time>2021-04-27T15:11:58Z</time>
      </trkpt>
      <trkpt lat="47.29311" lon="6.06104">
        <ele>326.99</ele>
        <time>2021-04-27T15:12:02Z</time>
      </trkpt>
      <trkpt lat="47.29336" lon="6.06099">
        <ele>328.43</ele>
        <time>2021-04-27T15:12:09Z</time>
      </trkpt>
      <trkpt lat="47.2934" lon="6.06097">
        <ele>328.43</ele>
        <time>2021-04-27T15:12:11Z</time>
      </trkpt>
      <trkpt lat="47.29345" lon="6.06098">
        <ele>328.91</ele>
        <time>2021-04-27T15:12:13Z</time>
      </trkpt>
      <trkpt lat="47.29357" lon="6.06115">
        <ele>326.02</ele>
        <time>2021-04-27T15:12:17Z</time>
      </trkpt>
      <trkpt lat="47.29361" lon="6.06118">
        <ele>325.54</ele>
        <time>2021-04-27T15:12:18Z</time>
      </trkpt>
      <trkpt lat="47.29364" lon="6.06118">
        <ele>326.02</ele>
        <time>2021-04-27T15:12:19Z</time>
      </trkpt>
      <trkpt lat="47.29367" lon="6.06117">
        <ele>326.5</ele>
        <time>2021-04-27T15:12:20Z</time>
      </trkpt>
      <trkpt lat="47.2937" lon="6.06116">
        <ele>326.5</ele>
        <time>2021-04-27T15:12:21Z</time>
      </trkpt>
      <trkpt lat="47.29373" lon="6.06117">
        <ele>326.5</ele>
        <time>2021-04-27T15:12:22Z</time>
      </trkpt>
      <trkpt lat="47.29375" lon="6.06117">
        <ele>326.99</ele>
        <time>2021-04-27T15:12:23Z</time>
      </trkpt>
      <trkpt lat="47.29377" lon="6.06118">
        <ele>327.47</ele>
        <time>2021-04-27T15:12:24Z</time>
      </trkpt>
      <trkpt lat="47.29379" lon="6.06119">
        <ele>327.95</ele>
        <time>2021-04-27T15:12:25Z</time>
      </trkpt>
      <trkpt lat="47.29383" lon="6.0612">
        <ele>328.43</ele>
        <time>2021-04-27T15:12:27Z</time>
      </trkpt>
      <trkpt lat="47.29394" lon="6.06123">
        <ele>331.31</ele>
        <time>2021-04-27T15:12:36Z</time>
      </trkpt>
      <trkpt lat="47.294" lon="6.06124">
        <ele>332.75</ele>
        <time>2021-04-27T15:12:41Z</time>
      </trkpt>
      <trkpt lat="47.29412" lon="6.06137">
        <ele>334.2</ele>
        <time>2021-04-27T15:12:50Z</time>
      </trkpt>
      <trkpt lat="47.29413" lon="6.06137">
        <ele>334.2</ele>
        <time>2021-04-27T15:12:51Z</time>
      </trkpt>
      <trkpt lat="47.29425" lon="6.06146">
        <ele>335.16</ele>
        <time>2021-04-27T15:12:58Z</time>
      </trkpt>
      <trkpt lat="47.29426" lon="6.06148">
        <ele>335.16</ele>
        <time>2021-04-27T15:12:59Z</time>
      </trkpt>
      <trkpt lat="47.29427" lon="6.0615">
        <ele>335.64</ele>
        <time>2021-04-27T15:13:00Z</time>
      </trkpt>
      <trkpt lat="47.29428" lon="6.06152">
        <ele>335.64</ele>
        <time>2021-04-27T15:13:01Z</time>
      </trkpt>
      <trkpt lat="47.29429" lon="6.06154">
        <ele>335.64</ele>
        <time>2021-04-27T15:13:02Z</time>
      </trkpt>
      <trkpt lat="47.2943" lon="6.06156">
        <ele>335.64</ele>
        <time>2021-04-27T15:13:03Z</time>
      </trkpt>
      <trkpt lat="47.2943" lon="6.06158">
        <ele>335.64</ele>
        <time>2021-04-27T15:13:04Z</time>
      </trkpt>
      <trkpt lat="47.29432" lon="6.06163">
        <ele>336.12</ele>
        <time>2021-04-27T15:13:06Z</time>
      </trkpt>
      <trkpt lat="47.29434" lon="6.06164">
        <ele>336.12</ele>
        <time>2021-04-27T15:13:07Z</time>
      </trkpt>
      <trkpt lat="47.29436" lon="6.06167">
        <ele>336.12</ele>
        <time>2021-04-27T15:13:08Z</time>
      </trkpt>
      <trkpt lat="47.29437" lon="6.06169">
        <ele>336.12</ele>
        <time>2021-04-27T15:13:09Z</time>
      </trkpt>
      <trkpt lat="47.29438" lon="6.06171">
        <ele>336.6</ele>
        <time>2021-04-27T15:13:10Z</time>
      </trkpt>
      <trkpt lat="47.29448" lon="6.06191">
        <ele>338.52</ele>
        <time>2021-04-27T15:13:21Z</time>
      </trkpt>
      <trkpt lat="47.29452" lon="6.06194">
        <ele>342.85</ele>
        <time>2021-04-27T15:13:26Z</time>
      </trkpt>
      <trkpt lat="47.29452" lon="6.06194">
        <ele>339</ele>
        <time>2021-04-27T15:13:27Z</time>
      </trkpt>
      <trkpt lat="47.29454" lon="6.06197">
        <ele>339</ele>
        <time>2021-04-27T15:13:30Z</time>
      </trkpt>
      <trkpt lat="47.29453" lon="6.06199">
        <ele>339</ele>
        <time>2021-04-27T15:13:31Z</time>
      </trkpt>
      <trkpt lat="47.29452" lon="6.06201">
        <ele>339</ele>
        <time>2021-04-27T15:13:32Z</time>
      </trkpt>
      <trkpt lat="47.29451" lon="6.06202">
        <ele>339</ele>
        <time>2021-04-27T15:13:33Z</time>
      </trkpt>
      <trkpt lat="47.2945" lon="6.06205">
        <ele>339</ele>
        <time>2021-04-27T15:13:34Z</time>
      </trkpt>
      <trkpt lat="47.29449" lon="6.06206">
        <ele>339</ele>
        <time>2021-04-27T15:13:35Z</time>
      </trkpt>
      <trkpt lat="47.29444" lon="6.06215">
        <ele>339</ele>
        <time>2021-04-27T15:13:38Z</time>
      </trkpt>
      <trkpt lat="47.29442" lon="6.06219">
        <ele>339</ele>
        <time>2021-04-27T15:13:39Z</time>
      </trkpt>
      <trkpt lat="47.2944" lon="6.06221">
        <ele>338.52</ele>
        <time>2021-04-27T15:13:40Z</time>
      </trkpt>
      <trkpt lat="47.29412" lon="6.06255">
        <ele>339.48</ele>
        <time>2021-04-27T15:13:53Z</time>
      </trkpt>
      <trkpt lat="47.29393" lon="6.06274">
        <ele>339.96</ele>
        <time>2021-04-27T15:14:01Z</time>
      </trkpt>
      <trkpt lat="47.2939" lon="6.06276">
        <ele>339.96</ele>
        <time>2021-04-27T15:14:02Z</time>
      </trkpt>
      <trkpt lat="47.29388" lon="6.06278">
        <ele>339.96</ele>
        <time>2021-04-27T15:14:03Z</time>
      </trkpt>
      <trkpt lat="47.29385" lon="6.06281">
        <ele>339.96</ele>
        <time>2021-04-27T15:14:04Z</time>
      </trkpt>
      <trkpt lat="47.29382" lon="6.06284">
        <ele>339.96</ele>
        <time>2021-04-27T15:14:05Z</time>
      </trkpt>
      <trkpt lat="47.2938" lon="6.06287">
        <ele>340.44</ele>
        <time>2021-04-27T15:14:06Z</time>
      </trkpt>
      <trkpt lat="47.29356" lon="6.06315">
        <ele>340.92</ele>
        <time>2021-04-27T15:14:15Z</time>
      </trkpt>
      <trkpt lat="47.29326" lon="6.06351">
        <ele>340.92</ele>
        <time>2021-04-27T15:14:26Z</time>
      </trkpt>
      <trkpt lat="47.29293" lon="6.06384">
        <ele>340.44</ele>
        <time>2021-04-27T15:14:37Z</time>
      </trkpt>
      <trkpt lat="47.29267" lon="6.06412">
        <ele>339</ele>
        <time>2021-04-27T15:14:45Z</time>
      </trkpt>
      <trkpt lat="47.29263" lon="6.06418">
        <ele>339</ele>
        <time>2021-04-27T15:14:46Z</time>
      </trkpt>
      <trkpt lat="47.29259" lon="6.06424">
        <ele>339</ele>
        <time>2021-04-27T15:14:47Z</time>
      </trkpt>
      <trkpt lat="47.29254" lon="6.06429">
        <ele>338.52</ele>
        <time>2021-04-27T15:14:48Z</time>
      </trkpt>
      <trkpt lat="47.2925" lon="6.06434">
        <ele>338.04</ele>
        <time>2021-04-27T15:14:49Z</time>
      </trkpt>
      <trkpt lat="47.29246" lon="6.06438">
        <ele>337.56</ele>
        <time>2021-04-27T15:14:50Z</time>
      </trkpt>
      <trkpt lat="47.29226" lon="6.06459">
        <ele>335.64</ele>
        <time>2021-04-27T15:14:54Z</time>
      </trkpt>
      <trkpt lat="47.29222" lon="6.06465">
        <ele>335.64</ele>
        <time>2021-04-27T15:14:55Z</time>
      </trkpt>
      <trkpt lat="47.29217" lon="6.06469">
        <ele>335.16</ele>
        <time>2021-04-27T15:14:56Z</time>
      </trkpt>
      <trkpt lat="47.292" lon="6.06495">
        <ele>335.16</ele>
        <time>2021-04-27T15:15:00Z</time>
      </trkpt>
      <trkpt lat="47.29198" lon="6.06501">
        <ele>334.68</ele>
        <time>2021-04-27T15:15:01Z</time>
      </trkpt>
      <trkpt lat="47.29198" lon="6.06507">
        <ele>334.68</ele>
        <time>2021-04-27T15:15:02Z</time>
      </trkpt>
      <trkpt lat="47.29197" lon="6.06514">
        <ele>335.16</ele>
        <time>2021-04-27T15:15:03Z</time>
      </trkpt>
      <trkpt lat="47.29197" lon="6.06519">
        <ele>335.16</ele>
        <time>2021-04-27T15:15:04Z</time>
      </trkpt>
      <trkpt lat="47.2921" lon="6.0655">
        <ele>336.6</ele>
        <time>2021-04-27T15:15:15Z</time>
      </trkpt>
      <trkpt lat="47.29233" lon="6.06583">
        <ele>338.04</ele>
        <time>2021-04-27T15:15:26Z</time>
      </trkpt>
      <trkpt lat="47.29258" lon="6.06619">
        <ele>339</ele>
        <time>2021-04-27T15:15:38Z</time>
      </trkpt>
      <trkpt lat="47.29291" lon="6.0666">
        <ele>340.92</ele>
        <time>2021-04-27T15:15:52Z</time>
      </trkpt>
      <trkpt lat="47.29324" lon="6.06701">
        <ele>342.37</ele>
        <time>2021-04-27T15:16:05Z</time>
      </trkpt>
      <trkpt lat="47.29358" lon="6.06743">
        <ele>343.81</ele>
        <time>2021-04-27T15:16:19Z</time>
      </trkpt>
      <trkpt lat="47.29386" lon="6.0678">
        <ele>344.29</ele>
        <time>2021-04-27T15:16:33Z</time>
      </trkpt>
      <trkpt lat="47.29408" lon="6.06825">
        <ele>344.29</ele>
        <time>2021-04-27T15:16:46Z</time>
      </trkpt>
      <trkpt lat="47.29408" lon="6.0683">
        <ele>344.29</ele>
        <time>2021-04-27T15:16:47Z</time>
      </trkpt>
      <trkpt lat="47.29404" lon="6.06838">
        <ele>343.33</ele>
        <time>2021-04-27T15:16:49Z</time>
      </trkpt>
      <trkpt lat="47.29401" lon="6.06841">
        <ele>343.33</ele>
        <time>2021-04-27T15:16:50Z</time>
      </trkpt>
      <trkpt lat="47.29387" lon="6.06857">
        <ele>339.96</ele>
        <time>2021-04-27T15:16:55Z</time>
      </trkpt>
      <trkpt lat="47.29384" lon="6.06862">
        <ele>339.48</ele>
        <time>2021-04-27T15:16:56Z</time>
      </trkpt>
      <trkpt lat="47.29375" lon="6.06873">
        <ele>337.56</ele>
        <time>2021-04-27T15:16:58Z</time>
      </trkpt>
      <trkpt lat="47.29369" lon="6.06878">
        <ele>336.6</ele>
        <time>2021-04-27T15:16:59Z</time>
      </trkpt>
      <trkpt lat="47.29348" lon="6.06907">
        <ele>333.71</ele>
        <time>2021-04-27T15:17:03Z</time>
      </trkpt>
      <trkpt lat="47.2933" lon="6.0693">
        <ele>328.91</ele>
        <time>2021-04-27T15:17:07Z</time>
      </trkpt>
      <trkpt lat="47.29324" lon="6.06937">
        <ele>326.99</ele>
        <time>2021-04-27T15:17:08Z</time>
      </trkpt>
      <trkpt lat="47.29319" lon="6.06945">
        <ele>326.02</ele>
        <time>2021-04-27T15:17:09Z</time>
      </trkpt>
      <trkpt lat="47.29311" lon="6.06958">
        <ele>329.39</ele>
        <time>2021-04-27T15:17:11Z</time>
      </trkpt>
      <trkpt lat="47.29302" lon="6.06973">
        <ele>332.27</ele>
        <time>2021-04-27T15:17:15Z</time>
      </trkpt>
      <trkpt lat="47.29284" lon="6.07011">
        <ele>334.2</ele>
        <time>2021-04-27T15:17:25Z</time>
      </trkpt>
      <trkpt lat="47.29282" lon="6.07014">
        <ele>334.2</ele>
        <time>2021-04-27T15:17:26Z</time>
      </trkpt>
      <trkpt lat="47.2928" lon="6.07016">
        <ele>334.2</ele>
        <time>2021-04-27T15:17:27Z</time>
      </trkpt>
      <trkpt lat="47.29277" lon="6.07019">
        <ele>334.2</ele>
        <time>2021-04-27T15:17:29Z</time>
      </trkpt>
      <trkpt lat="47.29275" lon="6.0702">
        <ele>334.2</ele>
        <time>2021-04-27T15:17:30Z</time>
      </trkpt>
      <trkpt lat="47.29272" lon="6.07021">
        <ele>334.2</ele>
        <time>2021-04-27T15:17:31Z</time>
      </trkpt>
      <trkpt lat="47.2927" lon="6.07023">
        <ele>334.2</ele>
        <time>2021-04-27T15:17:32Z</time>
      </trkpt>
      <trkpt lat="47.29268" lon="6.07024">
        <ele>334.68</ele>
        <time>2021-04-27T15:17:33Z</time>
      </trkpt>
      <trkpt lat="47.29266" lon="6.07026">
        <ele>334.68</ele>
        <time>2021-04-27T15:17:34Z</time>
      </trkpt>
      <trkpt lat="47.29263" lon="6.07029">
        <ele>334.68</ele>
        <time>2021-04-27T15:17:35Z</time>
      </trkpt>
      <trkpt lat="47.29261" lon="6.07031">
        <ele>335.16</ele>
        <time>2021-04-27T15:17:36Z</time>
      </trkpt>
      <trkpt lat="47.29248" lon="6.07047">
        <ele>336.6</ele>
        <time>2021-04-27T15:17:43Z</time>
      </trkpt>
      <trkpt lat="47.29246" lon="6.07049">
        <ele>337.08</ele>
        <time>2021-04-27T15:17:44Z</time>
      </trkpt>
      <trkpt lat="47.29221" lon="6.07076">
        <ele>339.96</ele>
        <time>2021-04-27T15:17:57Z</time>
      </trkpt>
      <trkpt lat="47.29207" lon="6.07092">
        <ele>341.89</ele>
        <time>2021-04-27T15:18:08Z</time>
      </trkpt>
      <trkpt lat="47.29184" lon="6.07123">
        <ele>344.29</ele>
        <time>2021-04-27T15:18:22Z</time>
      </trkpt>
      <trkpt lat="47.29171" lon="6.07139">
        <ele>346.21</ele>
        <time>2021-04-27T15:18:32Z</time>
      </trkpt>
      <trkpt lat="47.2917" lon="6.0714">
        <ele>346.21</ele>
        <time>2021-04-27T15:18:33Z</time>
      </trkpt>
      <trkpt lat="47.29169" lon="6.07142">
        <ele>346.21</ele>
        <time>2021-04-27T15:18:34Z</time>
      </trkpt>
      <trkpt lat="47.29162" lon="6.07153">
        <ele>348.13</ele>
        <time>2021-04-27T15:18:39Z</time>
      </trkpt>
      <trkpt lat="47.29158" lon="6.07173">
        <ele>349.1</ele>
        <time>2021-04-27T15:18:46Z</time>
      </trkpt>
      <trkpt lat="47.29156" lon="6.07175">
        <ele>349.58</ele>
        <time>2021-04-27T15:18:48Z</time>
      </trkpt>
      <trkpt lat="47.29154" lon="6.07175">
        <ele>350.06</ele>
        <time>2021-04-27T15:18:49Z</time>
      </trkpt>
      <trkpt lat="47.29153" lon="6.07178">
        <ele>350.54</ele>
        <time>2021-04-27T15:18:53Z</time>
      </trkpt>
      <trkpt lat="47.29152" lon="6.07181">
        <ele>350.54</ele>
        <time>2021-04-27T15:18:54Z</time>
      </trkpt>
      <trkpt lat="47.29151" lon="6.07183">
        <ele>351.02</ele>
        <time>2021-04-27T15:18:55Z</time>
      </trkpt>
      <trkpt lat="47.29149" lon="6.07188">
        <ele>351.5</ele>
        <time>2021-04-27T15:18:57Z</time>
      </trkpt>
      <trkpt lat="47.29148" lon="6.0719">
        <ele>351.5</ele>
        <time>2021-04-27T15:18:58Z</time>
      </trkpt>
      <trkpt lat="47.29135" lon="6.07215">
        <ele>353.9</ele>
        <time>2021-04-27T15:19:10Z</time>
      </trkpt>
      <trkpt lat="47.29133" lon="6.07217">
        <ele>353.9</ele>
        <time>2021-04-27T15:19:11Z</time>
      </trkpt>
      <trkpt lat="47.29132" lon="6.0722">
        <ele>354.38</ele>
        <time>2021-04-27T15:19:12Z</time>
      </trkpt>
      <trkpt lat="47.29131" lon="6.07222">
        <ele>354.38</ele>
        <time>2021-04-27T15:19:13Z</time>
      </trkpt>
      <trkpt lat="47.2913" lon="6.07224">
        <ele>354.38</ele>
        <time>2021-04-27T15:19:14Z</time>
      </trkpt>
      <trkpt lat="47.29129" lon="6.07226">
        <ele>354.86</ele>
        <time>2021-04-27T15:19:15Z</time>
      </trkpt>
      <trkpt lat="47.29124" lon="6.07235">
        <ele>355.34</ele>
        <time>2021-04-27T15:19:19Z</time>
      </trkpt>
      <trkpt lat="47.29123" lon="6.07237">
        <ele>355.34</ele>
        <time>2021-04-27T15:19:20Z</time>
      </trkpt>
      <trkpt lat="47.29122" lon="6.0724">
        <ele>355.34</ele>
        <time>2021-04-27T15:19:21Z</time>
      </trkpt>
      <trkpt lat="47.29102" lon="6.07275">
        <ele>357.75</ele>
        <time>2021-04-27T15:19:36Z</time>
      </trkpt>
      <trkpt lat="47.29077" lon="6.0731">
        <ele>359.19</ele>
        <time>2021-04-27T15:19:50Z</time>
      </trkpt>
      <trkpt lat="47.29057" lon="6.07349">
        <ele>359.67</ele>
        <time>2021-04-27T15:20:03Z</time>
      </trkpt>
      <trkpt lat="47.2903" lon="6.07383">
        <ele>358.71</ele>
        <time>2021-04-27T15:20:14Z</time>
      </trkpt>
      <trkpt lat="47.29018" lon="6.07398">
        <ele>357.27</ele>
        <time>2021-04-27T15:20:17Z</time>
      </trkpt>
      <trkpt lat="47.29015" lon="6.07404">
        <ele>357.27</ele>
        <time>2021-04-27T15:20:18Z</time>
      </trkpt>
      <trkpt lat="47.29003" lon="6.0745">
        <ele>359.19</ele>
        <time>2021-04-27T15:20:27Z</time>
      </trkpt>
      <trkpt lat="47.28984" lon="6.0749">
        <ele>360.63</ele>
        <time>2021-04-27T15:20:38Z</time>
      </trkpt>
      <trkpt lat="47.28969" lon="6.07523">
        <ele>359.19</ele>
        <time>2021-04-27T15:20:47Z</time>
      </trkpt>
      <trkpt lat="47.28966" lon="6.07528">
        <ele>358.71</ele>
        <time>2021-04-27T15:20:48Z</time>
      </trkpt>
      <trkpt lat="47.28952" lon="6.07555">
        <ele>360.63</ele>
        <time>2021-04-27T15:20:54Z</time>
      </trkpt>
      <trkpt lat="47.28929" lon="6.07601">
        <ele>362.55</ele>
        <time>2021-04-27T15:21:05Z</time>
      </trkpt>
      <trkpt lat="47.28909" lon="6.07641">
        <ele>361.59</ele>
        <time>2021-04-27T15:21:16Z</time>
      </trkpt>
      <trkpt lat="47.28904" lon="6.07652">
        <ele>361.11</ele>
        <time>2021-04-27T15:21:18Z</time>
      </trkpt>
      <trkpt lat="47.28891" lon="6.07691">
        <ele>360.63</ele>
        <time>2021-04-27T15:21:24Z</time>
      </trkpt>
      <trkpt lat="47.28886" lon="6.07706">
        <ele>360.15</ele>
        <time>2021-04-27T15:21:27Z</time>
      </trkpt>
      <trkpt lat="47.28883" lon="6.07711">
        <ele>359.67</ele>
        <time>2021-04-27T15:21:28Z</time>
      </trkpt>
      <trkpt lat="47.2888" lon="6.07715">
        <ele>359.67</ele>
        <time>2021-04-27T15:21:29Z</time>
      </trkpt>
      <trkpt lat="47.28877" lon="6.07719">
        <ele>359.19</ele>
        <time>2021-04-27T15:21:30Z</time>
      </trkpt>
      <trkpt lat="47.28874" lon="6.07725">
        <ele>358.71</ele>
        <time>2021-04-27T15:21:31Z</time>
      </trkpt>
      <trkpt lat="47.28871" lon="6.07732">
        <ele>358.23</ele>
        <time>2021-04-27T15:21:32Z</time>
      </trkpt>
      <trkpt lat="47.28851" lon="6.07774">
        <ele>354.86</ele>
        <time>2021-04-27T15:21:37Z</time>
      </trkpt>
      <trkpt lat="47.28828" lon="6.07818">
        <ele>351.5</ele>
        <time>2021-04-27T15:21:44Z</time>
      </trkpt>
      <trkpt lat="47.28828" lon="6.07821">
        <ele>351.5</ele>
        <time>2021-04-27T15:21:45Z</time>
      </trkpt>
      <trkpt lat="47.28828" lon="6.07826">
        <ele>351.5</ele>
        <time>2021-04-27T15:21:46Z</time>
      </trkpt>
      <trkpt lat="47.28829" lon="6.0783">
        <ele>351.5</ele>
        <time>2021-04-27T15:21:47Z</time>
      </trkpt>
      <trkpt lat="47.2884" lon="6.07884">
        <ele>351.5</ele>
        <time>2021-04-27T15:21:57Z</time>
      </trkpt>
      <trkpt lat="47.28842" lon="6.07888">
        <ele>351.5</ele>
        <time>2021-04-27T15:21:58Z</time>
      </trkpt>
      <trkpt lat="47.28844" lon="6.07892">
        <ele>351.98</ele>
        <time>2021-04-27T15:21:59Z</time>
      </trkpt>
      <trkpt lat="47.28846" lon="6.07894">
        <ele>351.98</ele>
        <time>2021-04-27T15:22:00Z</time>
      </trkpt>
      <trkpt lat="47.28848" lon="6.07897">
        <ele>351.98</ele>
        <time>2021-04-27T15:22:01Z</time>
      </trkpt>
      <trkpt lat="47.2885" lon="6.079">
        <ele>352.46</ele>
        <time>2021-04-27T15:22:02Z</time>
      </trkpt>
      <trkpt lat="47.28852" lon="6.07902">
        <ele>352.94</ele>
        <time>2021-04-27T15:22:03Z</time>
      </trkpt>
      <trkpt lat="47.28874" lon="6.07926">
        <ele>354.86</ele>
        <time>2021-04-27T15:22:13Z</time>
      </trkpt>
      <trkpt lat="47.28882" lon="6.07947">
        <ele>354.86</ele>
        <time>2021-04-27T15:22:20Z</time>
      </trkpt>
      <trkpt lat="47.28881" lon="6.07951">
        <ele>354.38</ele>
        <time>2021-04-27T15:22:21Z</time>
      </trkpt>
      <trkpt lat="47.28879" lon="6.07954">
        <ele>353.42</ele>
        <time>2021-04-27T15:22:22Z</time>
      </trkpt>
      <trkpt lat="47.2887" lon="6.07964">
        <ele>352.46</ele>
        <time>2021-04-27T15:22:25Z</time>
      </trkpt>
      <trkpt lat="47.2887" lon="6.07969">
        <ele>351.98</ele>
        <time>2021-04-27T15:22:26Z</time>
      </trkpt>
      <trkpt lat="47.28871" lon="6.07973">
        <ele>351.98</ele>
        <time>2021-04-27T15:22:27Z</time>
      </trkpt>
      <trkpt lat="47.28873" lon="6.07976">
        <ele>351.98</ele>
        <time>2021-04-27T15:22:28Z</time>
      </trkpt>
      <trkpt lat="47.28875" lon="6.07978">
        <ele>351.98</ele>
        <time>2021-04-27T15:22:29Z</time>
      </trkpt>
      <trkpt lat="47.28887" lon="6.07991">
        <ele>350.54</ele>
        <time>2021-04-27T15:22:33Z</time>
      </trkpt>
      <trkpt lat="47.2889" lon="6.07996">
        <ele>350.54</ele>
        <time>2021-04-27T15:22:34Z</time>
      </trkpt>
      <trkpt lat="47.28892" lon="6.08">
        <ele>351.02</ele>
        <time>2021-04-27T15:22:35Z</time>
      </trkpt>
      <trkpt lat="47.28911" lon="6.08034">
        <ele>351.5</ele>
        <time>2021-04-27T15:22:44Z</time>
      </trkpt>
      <trkpt lat="47.2893" lon="6.08083">
        <ele>352.94</ele>
        <time>2021-04-27T15:22:56Z</time>
      </trkpt>
      <trkpt lat="47.28953" lon="6.08136">
        <ele>353.9</ele>
        <time>2021-04-27T15:23:08Z</time>
      </trkpt>
      <trkpt lat="47.28971" lon="6.0818">
        <ele>354.38</ele>
        <time>2021-04-27T15:23:18Z</time>
      </trkpt>
      <trkpt lat="47.28994" lon="6.08232">
        <ele>354.38</ele>
        <time>2021-04-27T15:23:30Z</time>
      </trkpt>
      <trkpt lat="47.29018" lon="6.08273">
        <ele>353.9</ele>
        <time>2021-04-27T15:23:41Z</time>
      </trkpt>
      <trkpt lat="47.29044" lon="6.08303">
        <ele>352.94</ele>
        <time>2021-04-27T15:23:49Z</time>
      </trkpt>
      <trkpt lat="47.29047" lon="6.08308">
        <ele>352.46</ele>
        <time>2021-04-27T15:23:50Z</time>
      </trkpt>
      <trkpt lat="47.2905" lon="6.08316">
        <ele>352.46</ele>
        <time>2021-04-27T15:23:51Z</time>
      </trkpt>
      <trkpt lat="47.29062" lon="6.08363">
        <ele>349.1</ele>
        <time>2021-04-27T15:23:59Z</time>
      </trkpt>
      <trkpt lat="47.29059" lon="6.08384">
        <ele>346.69</ele>
        <time>2021-04-27T15:24:03Z</time>
      </trkpt>
      <trkpt lat="47.29049" lon="6.08404">
        <ele>342.85</ele>
        <time>2021-04-27T15:24:08Z</time>
      </trkpt>
      <trkpt lat="47.29046" lon="6.08414">
        <ele>342.37</ele>
        <time>2021-04-27T15:24:10Z</time>
      </trkpt>
      <trkpt lat="47.29046" lon="6.0842">
        <ele>341.89</ele>
        <time>2021-04-27T15:24:11Z</time>
      </trkpt>
      <trkpt lat="47.29047" lon="6.08425">
        <ele>341.89</ele>
        <time>2021-04-27T15:24:12Z</time>
      </trkpt>
      <trkpt lat="47.29049" lon="6.0843">
        <ele>341.89</ele>
        <time>2021-04-27T15:24:13Z</time>
      </trkpt>
      <trkpt lat="47.2905" lon="6.08435">
        <ele>341.89</ele>
        <time>2021-04-27T15:24:14Z</time>
      </trkpt>
      <trkpt lat="47.29051" lon="6.08441">
        <ele>342.37</ele>
        <time>2021-04-27T15:24:15Z</time>
      </trkpt>
      <trkpt lat="47.29052" lon="6.08446">
        <ele>342.37</ele>
        <time>2021-04-27T15:24:16Z</time>
      </trkpt>
      <trkpt lat="47.29071" lon="6.08505">
        <ele>343.81</ele>
        <time>2021-04-27T15:24:29Z</time>
      </trkpt>
      <trkpt lat="47.29093" lon="6.08568">
        <ele>344.77</ele>
        <time>2021-04-27T15:24:42Z</time>
      </trkpt>
      <trkpt lat="47.29116" lon="6.0861">
        <ele>345.73</ele>
        <time>2021-04-27T15:24:52Z</time>
      </trkpt>
      <trkpt lat="47.29147" lon="6.08667">
        <ele>346.69</ele>
        <time>2021-04-27T15:25:06Z</time>
      </trkpt>
      <trkpt lat="47.29166" lon="6.08739">
        <ele>347.17</ele>
        <time>2021-04-27T15:25:20Z</time>
      </trkpt>
      <trkpt lat="47.2918" lon="6.08808">
        <ele>348.62</ele>
        <time>2021-04-27T15:25:34Z</time>
      </trkpt>
      <trkpt lat="47.29185" lon="6.08863">
        <ele>349.1</ele>
        <time>2021-04-27T15:25:45Z</time>
      </trkpt>
      <trkpt lat="47.29205" lon="6.08916">
        <ele>350.06</ele>
        <time>2021-04-27T15:25:57Z</time>
      </trkpt>
      <trkpt lat="47.2924" lon="6.08955">
        <ele>351.5</ele>
        <time>2021-04-27T15:26:10Z</time>
      </trkpt>
      <trkpt lat="47.2927" lon="6.08991">
        <ele>352.46</ele>
        <time>2021-04-27T15:26:21Z</time>
      </trkpt>
      <trkpt lat="47.2932" lon="6.09047">
        <ele>353.9</ele>
        <time>2021-04-27T15:26:38Z</time>
      </trkpt>
      <trkpt lat="47.29345" lon="6.09077">
        <ele>353.9</ele>
        <time>2021-04-27T15:26:47Z</time>
      </trkpt>
      <trkpt lat="47.29359" lon="6.09093">
        <ele>353.9</ele>
        <time>2021-04-27T15:26:51Z</time>
      </trkpt>
      <trkpt lat="47.29365" lon="6.09101">
        <ele>353.9</ele>
        <time>2021-04-27T15:26:53Z</time>
      </trkpt>
      <trkpt lat="47.29409" lon="6.09155">
        <ele>353.9</ele>
        <time>2021-04-27T15:27:07Z</time>
      </trkpt>
      <trkpt lat="47.29457" lon="6.09207">
        <ele>355.34</ele>
        <time>2021-04-27T15:27:22Z</time>
      </trkpt>
      <trkpt lat="47.29488" lon="6.09247">
        <ele>355.34</ele>
        <time>2021-04-27T15:27:33Z</time>
      </trkpt>
      <trkpt lat="47.29492" lon="6.0925">
        <ele>355.34</ele>
        <time>2021-04-27T15:27:34Z</time>
      </trkpt>
      <trkpt lat="47.29536" lon="6.09298">
        <ele>355.83</ele>
        <time>2021-04-27T15:27:47Z</time>
      </trkpt>
      <trkpt lat="47.2958" lon="6.09351">
        <ele>355.34</ele>
        <time>2021-04-27T15:28:01Z</time>
      </trkpt>
      <trkpt lat="47.29601" lon="6.09373">
        <ele>355.34</ele>
        <time>2021-04-27T15:28:07Z</time>
      </trkpt>
      <trkpt lat="47.2962" lon="6.09393">
        <ele>354.86</ele>
        <time>2021-04-27T15:28:12Z</time>
      </trkpt>
      <trkpt lat="47.29648" lon="6.09424">
        <ele>355.34</ele>
        <time>2021-04-27T15:28:21Z</time>
      </trkpt>
      <trkpt lat="47.29687" lon="6.0947">
        <ele>355.83</ele>
        <time>2021-04-27T15:28:33Z</time>
      </trkpt>
      <trkpt lat="47.297" lon="6.09484">
        <ele>355.34</ele>
        <time>2021-04-27T15:28:37Z</time>
      </trkpt>
      <trkpt lat="47.29704" lon="6.09487">
        <ele>355.34</ele>
        <time>2021-04-27T15:28:38Z</time>
      </trkpt>
      <trkpt lat="47.29708" lon="6.0949">
        <ele>355.34</ele>
        <time>2021-04-27T15:28:39Z</time>
      </trkpt>
      <trkpt lat="47.2973" lon="6.09512">
        <ele>355.34</ele>
        <time>2021-04-27T15:28:45Z</time>
      </trkpt>
      <trkpt lat="47.29734" lon="6.09516">
        <ele>355.34</ele>
        <time>2021-04-27T15:28:46Z</time>
      </trkpt>
      <trkpt lat="47.29737" lon="6.0952">
        <ele>355.34</ele>
        <time>2021-04-27T15:28:47Z</time>
      </trkpt>
      <trkpt lat="47.2977" lon="6.0956">
        <ele>356.31</ele>
        <time>2021-04-27T15:28:59Z</time>
      </trkpt>
      <trkpt lat="47.29799" lon="6.09593">
        <ele>357.27</ele>
        <time>2021-04-27T15:29:10Z</time>
      </trkpt>
      <trkpt lat="47.2984" lon="6.09639">
        <ele>358.23</ele>
        <time>2021-04-27T15:29:22Z</time>
      </trkpt>
      <trkpt lat="47.29878" lon="6.09682">
        <ele>358.71</ele>
        <time>2021-04-27T15:29:34Z</time>
      </trkpt>
      <trkpt lat="47.29912" lon="6.09717">
        <ele>360.15</ele>
        <time>2021-04-27T15:29:46Z</time>
      </trkpt>
      <trkpt lat="47.29936" lon="6.09743">
        <ele>361.11</ele>
        <time>2021-04-27T15:29:56Z</time>
      </trkpt>
      <trkpt lat="47.29979" lon="6.09793">
        <ele>362.07</ele>
        <time>2021-04-27T15:30:11Z</time>
      </trkpt>
      <trkpt lat="47.30011" lon="6.09825">
        <ele>363.52</ele>
        <time>2021-04-27T15:30:23Z</time>
      </trkpt>
      <trkpt lat="47.3002" lon="6.09836">
        <ele>361.11</ele>
        <time>2021-04-27T15:30:27Z</time>
      </trkpt>
      <trkpt lat="47.30022" lon="6.09838">
        <ele>365.92</ele>
        <time>2021-04-27T15:30:28Z</time>
      </trkpt>
      <trkpt lat="47.30024" lon="6.0984">
        <ele>361.59</ele>
        <time>2021-04-27T15:30:29Z</time>
      </trkpt>
      <trkpt lat="47.30025" lon="6.09842">
        <ele>364.96</ele>
        <time>2021-04-27T15:30:30Z</time>
      </trkpt>
      <trkpt lat="47.30048" lon="6.09868">
        <ele>365.44</ele>
        <time>2021-04-27T15:30:42Z</time>
      </trkpt>
      <trkpt lat="47.30061" lon="6.09884">
        <ele>364</ele>
        <time>2021-04-27T15:30:51Z</time>
      </trkpt>
      <trkpt lat="47.30066" lon="6.09892">
        <ele>366.4</ele>
        <time>2021-04-27T15:30:54Z</time>
      </trkpt>
      <trkpt lat="47.30092" lon="6.09925">
        <ele>365.44</ele>
        <time>2021-04-27T15:31:09Z</time>
      </trkpt>
      <trkpt lat="47.30122" lon="6.09957">
        <ele>367.84</ele>
        <time>2021-04-27T15:31:21Z</time>
      </trkpt>
      <trkpt lat="47.30128" lon="6.09964">
        <ele>368.8</ele>
        <time>2021-04-27T15:31:24Z</time>
      </trkpt>
      <trkpt lat="47.30129" lon="6.09967">
        <ele>365.44</ele>
        <time>2021-04-27T15:31:25Z</time>
      </trkpt>
      <trkpt lat="47.3013" lon="6.09969">
        <ele>371.69</ele>
        <time>2021-04-27T15:31:26Z</time>
      </trkpt>
      <trkpt lat="47.30131" lon="6.09971">
        <ele>370.73</ele>
        <time>2021-04-27T15:31:27Z</time>
      </trkpt>
      <trkpt lat="47.30133" lon="6.09976">
        <ele>369.76</ele>
        <time>2021-04-27T15:31:29Z</time>
      </trkpt>
      <trkpt lat="47.30142" lon="6.0999">
        <ele>371.21</ele>
        <time>2021-04-27T15:31:35Z</time>
      </trkpt>
      <trkpt lat="47.30178" lon="6.10021">
        <ele>372.17</ele>
        <time>2021-04-27T15:31:49Z</time>
      </trkpt>
      <trkpt lat="47.30201" lon="6.10066">
        <ele>373.61</ele>
        <time>2021-04-27T15:32:03Z</time>
      </trkpt>
      <trkpt lat="47.30224" lon="6.10115">
        <ele>373.13</ele>
        <time>2021-04-27T15:32:14Z</time>
      </trkpt>
      <trkpt lat="47.30251" lon="6.10157">
        <ele>375.53</ele>
        <time>2021-04-27T15:32:26Z</time>
      </trkpt>
      <trkpt lat="47.30271" lon="6.10182">
        <ele>377.45</ele>
        <time>2021-04-27T15:32:38Z</time>
      </trkpt>
      <trkpt lat="47.30277" lon="6.1019">
        <ele>378.42</ele>
        <time>2021-04-27T15:32:43Z</time>
      </trkpt>
      <trkpt lat="47.30306" lon="6.10207">
        <ele>380.82</ele>
        <time>2021-04-27T15:32:58Z</time>
      </trkpt>
      <trkpt lat="47.30337" lon="6.10235">
        <ele>383.7</ele>
        <time>2021-04-27T15:33:10Z</time>
      </trkpt>
      <trkpt lat="47.30366" lon="6.10265">
        <ele>386.59</ele>
        <time>2021-04-27T15:33:22Z</time>
      </trkpt>
      <trkpt lat="47.30377" lon="6.10288">
        <ele>388.51</ele>
        <time>2021-04-27T15:33:33Z</time>
      </trkpt>
      <trkpt lat="47.3038" lon="6.1029">
        <ele>388.99</ele>
        <time>2021-04-27T15:33:34Z</time>
      </trkpt>
      <trkpt lat="47.30382" lon="6.10292">
        <ele>388.99</ele>
        <time>2021-04-27T15:33:35Z</time>
      </trkpt>
      <trkpt lat="47.30384" lon="6.10295">
        <ele>389.47</ele>
        <time>2021-04-27T15:33:36Z</time>
      </trkpt>
      <trkpt lat="47.30385" lon="6.10298">
        <ele>389.47</ele>
        <time>2021-04-27T15:33:37Z</time>
      </trkpt>
      <trkpt lat="47.30387" lon="6.103">
        <ele>389.47</ele>
        <time>2021-04-27T15:33:38Z</time>
      </trkpt>
      <trkpt lat="47.30389" lon="6.10302">
        <ele>389.95</ele>
        <time>2021-04-27T15:33:39Z</time>
      </trkpt>
      <trkpt lat="47.3039" lon="6.10305">
        <ele>389.95</ele>
        <time>2021-04-27T15:33:40Z</time>
      </trkpt>
      <trkpt lat="47.30408" lon="6.10333">
        <ele>392.36</ele>
        <time>2021-04-27T15:33:52Z</time>
      </trkpt>
      <trkpt lat="47.3041" lon="6.10335">
        <ele>392.36</ele>
        <time>2021-04-27T15:33:54Z</time>
      </trkpt>
      <trkpt lat="47.30411" lon="6.10337">
        <ele>392.36</ele>
        <time>2021-04-27T15:33:55Z</time>
      </trkpt>
      <trkpt lat="47.30413" lon="6.10339">
        <ele>392.84</ele>
        <time>2021-04-27T15:33:56Z</time>
      </trkpt>
      <trkpt lat="47.30442" lon="6.10383">
        <ele>395.72</ele>
        <time>2021-04-27T15:34:13Z</time>
      </trkpt>
      <trkpt lat="47.30461" lon="6.10406">
        <ele>398.12</ele>
        <time>2021-04-27T15:34:24Z</time>
      </trkpt>
      <trkpt lat="47.30483" lon="6.10432">
        <ele>401.01</ele>
        <time>2021-04-27T15:34:37Z</time>
      </trkpt>
      <trkpt lat="47.30509" lon="6.10463">
        <ele>404.37</ele>
        <time>2021-04-27T15:34:53Z</time>
      </trkpt>
      <trkpt lat="47.30535" lon="6.10489">
        <ele>407.26</ele>
        <time>2021-04-27T15:35:07Z</time>
      </trkpt>
      <trkpt lat="47.30561" lon="6.10506">
        <ele>410.14</ele>
        <time>2021-04-27T15:35:20Z</time>
      </trkpt>
      <trkpt lat="47.30569" lon="6.10511">
        <ele>405.81</ele>
        <time>2021-04-27T15:35:24Z</time>
      </trkpt>
      <trkpt lat="47.30571" lon="6.10513">
        <ele>409.66</ele>
        <time>2021-04-27T15:35:25Z</time>
      </trkpt>
      <trkpt lat="47.30573" lon="6.10514">
        <ele>415.43</ele>
        <time>2021-04-27T15:35:26Z</time>
      </trkpt>
      <trkpt lat="47.30575" lon="6.10515">
        <ele>411.1</ele>
        <time>2021-04-27T15:35:27Z</time>
      </trkpt>
      <trkpt lat="47.30606" lon="6.10533">
        <ele>413.02</ele>
        <time>2021-04-27T15:35:41Z</time>
      </trkpt>
      <trkpt lat="47.30628" lon="6.10549">
        <ele>414.47</ele>
        <time>2021-04-27T15:35:52Z</time>
      </trkpt>
      <trkpt lat="47.30658" lon="6.10566">
        <ele>415.91</ele>
        <time>2021-04-27T15:36:05Z</time>
      </trkpt>
      <trkpt lat="47.30691" lon="6.10593">
        <ele>415.91</ele>
        <time>2021-04-27T15:36:18Z</time>
      </trkpt>
      <trkpt lat="47.30692" lon="6.10596">
        <ele>415.91</ele>
        <time>2021-04-27T15:36:19Z</time>
      </trkpt>
      <trkpt lat="47.30692" lon="6.106">
        <ele>415.91</ele>
        <time>2021-04-27T15:36:20Z</time>
      </trkpt>
      <trkpt lat="47.30691" lon="6.10602">
        <ele>415.91</ele>
        <time>2021-04-27T15:36:21Z</time>
      </trkpt>
      <trkpt lat="47.3069" lon="6.10605">
        <ele>415.91</ele>
        <time>2021-04-27T15:36:22Z</time>
      </trkpt>
      <trkpt lat="47.30689" lon="6.10608">
        <ele>416.39</ele>
        <time>2021-04-27T15:36:23Z</time>
      </trkpt>
      <trkpt lat="47.30688" lon="6.10612">
        <ele>416.39</ele>
        <time>2021-04-27T15:36:24Z</time>
      </trkpt>
      <trkpt lat="47.30686" lon="6.10615">
        <ele>416.39</ele>
        <time>2021-04-27T15:36:25Z</time>
      </trkpt>
      <trkpt lat="47.30685" lon="6.10619">
        <ele>416.39</ele>
        <time>2021-04-27T15:36:26Z</time>
      </trkpt>
      <trkpt lat="47.30676" lon="6.10635">
        <ele>420.71</ele>
        <time>2021-04-27T15:36:33Z</time>
      </trkpt>
      <trkpt lat="47.30675" lon="6.10635">
        <ele>417.83</ele>
        <time>2021-04-27T15:36:34Z</time>
      </trkpt>
      <trkpt lat="47.30674" lon="6.10636">
        <ele>414.95</ele>
        <time>2021-04-27T15:36:35Z</time>
      </trkpt>
      <trkpt lat="47.30674" lon="6.10637">
        <ele>419.27</ele>
        <time>2021-04-27T15:36:36Z</time>
      </trkpt>
      <trkpt lat="47.30672" lon="6.10639">
        <ele>417.35</ele>
        <time>2021-04-27T15:36:39Z</time>
      </trkpt>
      <trkpt lat="47.3065" lon="6.10659">
        <ele>417.35</ele>
        <time>2021-04-27T15:36:51Z</time>
      </trkpt>
      <trkpt lat="47.30626" lon="6.10712">
        <ele>415.91</ele>
        <time>2021-04-27T15:37:04Z</time>
      </trkpt>
      <trkpt lat="47.30623" lon="6.10773">
        <ele>415.91</ele>
        <time>2021-04-27T15:37:15Z</time>
      </trkpt>
      <trkpt lat="47.30607" lon="6.10816">
        <ele>414.95</ele>
        <time>2021-04-27T15:37:26Z</time>
      </trkpt>
      <trkpt lat="47.30607" lon="6.1082">
        <ele>414.47</ele>
        <time>2021-04-27T15:37:38Z</time>
      </trkpt>
      <trkpt lat="47.30607" lon="6.10822">
        <ele>413.98</ele>
        <time>2021-04-27T15:37:49Z</time>
      </trkpt>
      <trkpt lat="47.30607" lon="6.10822">
        <ele>414.95</ele>
        <time>2021-04-27T15:38:06Z</time>
      </trkpt>
      <trkpt lat="47.30607" lon="6.10823">
        <ele>415.43</ele>
        <time>2021-04-27T15:38:41Z</time>
      </trkpt>
      <trkpt lat="47.30607" lon="6.10823">
        <ele>414.95</ele>
        <time>2021-04-27T15:39:15Z</time>
      </trkpt>
      <trkpt lat="47.30608" lon="6.10822">
        <ele>415.43</ele>
        <time>2021-04-27T15:39:54Z</time>
      </trkpt>
      <trkpt lat="47.30607" lon="6.10823">
        <ele>415.43</ele>
        <time>2021-04-27T15:40:29Z</time>
      </trkpt>
      <trkpt lat="47.30607" lon="6.10823">
        <ele>414.95</ele>
        <time>2021-04-27T15:40:58Z</time>
      </trkpt>
      <trkpt lat="47.30607" lon="6.10817">
        <ele>415.43</ele>
        <time>2021-04-27T15:41:18Z</time>
      </trkpt>
      <trkpt lat="47.30607" lon="6.10815">
        <ele>415.43</ele>
        <time>2021-04-27T15:41:19Z</time>
      </trkpt>
      <trkpt lat="47.30608" lon="6.10812">
        <ele>415.43</ele>
        <time>2021-04-27T15:41:20Z</time>
      </trkpt>
      <trkpt lat="47.30609" lon="6.1081">
        <ele>415.91</ele>
        <time>2021-04-27T15:41:21Z</time>
      </trkpt>
      <trkpt lat="47.3061" lon="6.10808">
        <ele>415.91</ele>
        <time>2021-04-27T15:41:22Z</time>
      </trkpt>
      <trkpt lat="47.30611" lon="6.10806">
        <ele>415.91</ele>
        <time>2021-04-27T15:41:23Z</time>
      </trkpt>
      <trkpt lat="47.30612" lon="6.10803">
        <ele>415.91</ele>
        <time>2021-04-27T15:41:24Z</time>
      </trkpt>
      <trkpt lat="47.30614" lon="6.108">
        <ele>416.39</ele>
        <time>2021-04-27T15:41:25Z</time>
      </trkpt>
      <trkpt lat="47.30616" lon="6.10797">
        <ele>415.43</ele>
        <time>2021-04-27T15:41:26Z</time>
      </trkpt>
      <trkpt lat="47.30618" lon="6.10794">
        <ele>416.87</ele>
        <time>2021-04-27T15:41:27Z</time>
      </trkpt>
      <trkpt lat="47.30619" lon="6.10791">
        <ele>416.87</ele>
        <time>2021-04-27T15:41:28Z</time>
      </trkpt>
      <trkpt lat="47.3062" lon="6.10788">
        <ele>416.87</ele>
        <time>2021-04-27T15:41:29Z</time>
      </trkpt>
      <trkpt lat="47.30621" lon="6.10786">
        <ele>415.91</ele>
        <time>2021-04-27T15:41:30Z</time>
      </trkpt>
      <trkpt lat="47.30622" lon="6.10783">
        <ele>416.39</ele>
        <time>2021-04-27T15:41:31Z</time>
      </trkpt>
      <trkpt lat="47.30625" lon="6.10776">
        <ele>421.19</ele>
        <time>2021-04-27T15:41:34Z</time>
      </trkpt>
      <trkpt lat="47.30625" lon="6.10774">
        <ele>417.35</ele>
        <time>2021-04-27T15:41:35Z</time>
      </trkpt>
      <trkpt lat="47.30626" lon="6.10769">
        <ele>416.87</ele>
        <time>2021-04-27T15:41:37Z</time>
      </trkpt>
      <trkpt lat="47.30625" lon="6.10723">
        <ele>416.87</ele>
        <time>2021-04-27T15:41:47Z</time>
      </trkpt>
      <trkpt lat="47.30644" lon="6.10678">
        <ele>417.83</ele>
        <time>2021-04-27T15:41:58Z</time>
      </trkpt>
      <trkpt lat="47.30671" lon="6.10656">
        <ele>417.83</ele>
        <time>2021-04-27T15:42:07Z</time>
      </trkpt>
      <trkpt lat="47.30674" lon="6.10655">
        <ele>417.83</ele>
        <time>2021-04-27T15:42:08Z</time>
      </trkpt>
      <trkpt lat="47.30676" lon="6.10654">
        <ele>418.31</ele>
        <time>2021-04-27T15:42:09Z</time>
      </trkpt>
      <trkpt lat="47.30678" lon="6.10657">
        <ele>418.31</ele>
        <time>2021-04-27T15:42:10Z</time>
      </trkpt>
      <trkpt lat="47.30678" lon="6.1066">
        <ele>418.31</ele>
        <time>2021-04-27T15:42:11Z</time>
      </trkpt>
      <trkpt lat="47.30679" lon="6.10663">
        <ele>418.31</ele>
        <time>2021-04-27T15:42:12Z</time>
      </trkpt>
      <trkpt lat="47.30679" lon="6.10667">
        <ele>418.31</ele>
        <time>2021-04-27T15:42:13Z</time>
      </trkpt>
      <trkpt lat="47.30681" lon="6.10671">
        <ele>418.31</ele>
        <time>2021-04-27T15:42:14Z</time>
      </trkpt>
      <trkpt lat="47.30683" lon="6.10676">
        <ele>418.31</ele>
        <time>2021-04-27T15:42:15Z</time>
      </trkpt>
      <trkpt lat="47.307" lon="6.1073">
        <ele>419.27</ele>
        <time>2021-04-27T15:42:26Z</time>
      </trkpt>
      <trkpt lat="47.30711" lon="6.1077">
        <ele>420.23</ele>
        <time>2021-04-27T15:42:35Z</time>
      </trkpt>
      <trkpt lat="47.30711" lon="6.10774">
        <ele>420.23</ele>
        <time>2021-04-27T15:42:36Z</time>
      </trkpt>
      <trkpt lat="47.30712" lon="6.10778">
        <ele>420.23</ele>
        <time>2021-04-27T15:42:37Z</time>
      </trkpt>
      <trkpt lat="47.30712" lon="6.10783">
        <ele>420.23</ele>
        <time>2021-04-27T15:42:38Z</time>
      </trkpt>
      <trkpt lat="47.30713" lon="6.10788">
        <ele>420.71</ele>
        <time>2021-04-27T15:42:39Z</time>
      </trkpt>
      <trkpt lat="47.3072" lon="6.10834">
        <ele>421.68</ele>
        <time>2021-04-27T15:42:48Z</time>
      </trkpt>
      <trkpt lat="47.30729" lon="6.10869">
        <ele>422.16</ele>
        <time>2021-04-27T15:42:55Z</time>
      </trkpt>
      <trkpt lat="47.30729" lon="6.10875">
        <ele>422.16</ele>
        <time>2021-04-27T15:42:56Z</time>
      </trkpt>
      <trkpt lat="47.30729" lon="6.1088">
        <ele>422.16</ele>
        <time>2021-04-27T15:42:57Z</time>
      </trkpt>
      <trkpt lat="47.30729" lon="6.10885">
        <ele>422.16</ele>
        <time>2021-04-27T15:42:58Z</time>
      </trkpt>
      <trkpt lat="47.30729" lon="6.1089">
        <ele>422.16</ele>
        <time>2021-04-27T15:42:59Z</time>
      </trkpt>
      <trkpt lat="47.3073" lon="6.10896">
        <ele>422.64</ele>
        <time>2021-04-27T15:43:00Z</time>
      </trkpt>
      <trkpt lat="47.30734" lon="6.10961">
        <ele>424.56</ele>
        <time>2021-04-27T15:43:11Z</time>
      </trkpt>
      <trkpt lat="47.30748" lon="6.11021">
        <ele>426.48</ele>
        <time>2021-04-27T15:43:22Z</time>
      </trkpt>
      <trkpt lat="47.30766" lon="6.11074">
        <ele>429.37</ele>
        <time>2021-04-27T15:43:32Z</time>
      </trkpt>
      <trkpt lat="47.30779" lon="6.11126">
        <ele>431.29</ele>
        <time>2021-04-27T15:43:42Z</time>
      </trkpt>
      <trkpt lat="47.30789" lon="6.11171">
        <ele>433.21</ele>
        <time>2021-04-27T15:43:53Z</time>
      </trkpt>
      <trkpt lat="47.308" lon="6.11217">
        <ele>436.1</ele>
        <time>2021-04-27T15:44:05Z</time>
      </trkpt>
      <trkpt lat="47.30824" lon="6.11249">
        <ele>436.58</ele>
        <time>2021-04-27T15:44:16Z</time>
      </trkpt>
      <trkpt lat="47.30848" lon="6.11275">
        <ele>435.61</ele>
        <time>2021-04-27T15:44:24Z</time>
      </trkpt>
      <trkpt lat="47.30864" lon="6.11286">
        <ele>433.69</ele>
        <time>2021-04-27T15:44:28Z</time>
      </trkpt>
      <trkpt lat="47.30868" lon="6.11289">
        <ele>433.21</ele>
        <time>2021-04-27T15:44:29Z</time>
      </trkpt>
      <trkpt lat="47.30872" lon="6.11293">
        <ele>432.73</ele>
        <time>2021-04-27T15:44:30Z</time>
      </trkpt>
      <trkpt lat="47.30876" lon="6.11298">
        <ele>432.25</ele>
        <time>2021-04-27T15:44:31Z</time>
      </trkpt>
      <trkpt lat="47.3088" lon="6.11305">
        <ele>431.77</ele>
        <time>2021-04-27T15:44:32Z</time>
      </trkpt>
      <trkpt lat="47.30884" lon="6.11313">
        <ele>430.81</ele>
        <time>2021-04-27T15:44:33Z</time>
      </trkpt>
      <trkpt lat="47.30887" lon="6.11319">
        <ele>430.81</ele>
        <time>2021-04-27T15:44:34Z</time>
      </trkpt>
      <trkpt lat="47.30897" lon="6.11343">
        <ele>428.4</ele>
        <time>2021-04-27T15:44:39Z</time>
      </trkpt>
      <trkpt lat="47.30912" lon="6.1138">
        <ele>425.04</ele>
        <time>2021-04-27T15:44:47Z</time>
      </trkpt>
      <trkpt lat="47.30911" lon="6.11422">
        <ele>426</ele>
        <time>2021-04-27T15:44:55Z</time>
      </trkpt>
      <trkpt lat="47.30906" lon="6.11457">
        <ele>428.89</ele>
        <time>2021-04-27T15:45:04Z</time>
      </trkpt>
      <trkpt lat="47.309" lon="6.11482">
        <ele>431.77</ele>
        <time>2021-04-27T15:45:14Z</time>
      </trkpt>
      <trkpt lat="47.30893" lon="6.11502">
        <ele>435.13</ele>
        <time>2021-04-27T15:45:23Z</time>
      </trkpt>
      <trkpt lat="47.30888" lon="6.11515">
        <ele>437.54</ele>
        <time>2021-04-27T15:45:30Z</time>
      </trkpt>
      <trkpt lat="47.30888" lon="6.11518">
        <ele>437.54</ele>
        <time>2021-04-27T15:45:31Z</time>
      </trkpt>
      <trkpt lat="47.30887" lon="6.1152">
        <ele>438.02</ele>
        <time>2021-04-27T15:45:32Z</time>
      </trkpt>
      <trkpt lat="47.30887" lon="6.11527">
        <ele>438.5</ele>
        <time>2021-04-27T15:45:35Z</time>
      </trkpt>
      <trkpt lat="47.30887" lon="6.1153">
        <ele>438.5</ele>
        <time>2021-04-27T15:45:36Z</time>
      </trkpt>
      <trkpt lat="47.30887" lon="6.11533">
        <ele>438.5</ele>
        <time>2021-04-27T15:45:37Z</time>
      </trkpt>
      <trkpt lat="47.30888" lon="6.11536">
        <ele>438.98</ele>
        <time>2021-04-27T15:45:38Z</time>
      </trkpt>
      <trkpt lat="47.30888" lon="6.11539">
        <ele>438.98</ele>
        <time>2021-04-27T15:45:39Z</time>
      </trkpt>
      <trkpt lat="47.30889" lon="6.11542">
        <ele>438.98</ele>
        <time>2021-04-27T15:45:40Z</time>
      </trkpt>
      <trkpt lat="47.30895" lon="6.11584">
        <ele>439.94</ele>
        <time>2021-04-27T15:45:51Z</time>
      </trkpt>
      <trkpt lat="47.309" lon="6.11634">
        <ele>439.94</ele>
        <time>2021-04-27T15:46:02Z</time>
      </trkpt>
      <trkpt lat="47.30898" lon="6.11659">
        <ele>440.9</ele>
        <time>2021-04-27T15:46:08Z</time>
      </trkpt>
      <trkpt lat="47.30897" lon="6.11662">
        <ele>440.42</ele>
        <time>2021-04-27T15:46:09Z</time>
      </trkpt>
      <trkpt lat="47.30895" lon="6.11664">
        <ele>440.9</ele>
        <time>2021-04-27T15:46:10Z</time>
      </trkpt>
      <trkpt lat="47.30893" lon="6.11666">
        <ele>440.9</ele>
        <time>2021-04-27T15:46:11Z</time>
      </trkpt>
      <trkpt lat="47.30892" lon="6.11668">
        <ele>440.9</ele>
        <time>2021-04-27T15:46:12Z</time>
      </trkpt>
      <trkpt lat="47.30891" lon="6.11671">
        <ele>440.9</ele>
        <time>2021-04-27T15:46:13Z</time>
      </trkpt>
      <trkpt lat="47.30889" lon="6.11676">
        <ele>440.42</ele>
        <time>2021-04-27T15:46:14Z</time>
      </trkpt>
      <trkpt lat="47.30888" lon="6.11681">
        <ele>439.46</ele>
        <time>2021-04-27T15:46:15Z</time>
      </trkpt>
      <trkpt lat="47.30886" lon="6.11689">
        <ele>438.98</ele>
        <time>2021-04-27T15:46:16Z</time>
      </trkpt>
      <trkpt lat="47.3088" lon="6.11711">
        <ele>438.5</ele>
        <time>2021-04-27T15:46:19Z</time>
      </trkpt>
      <trkpt lat="47.30881" lon="6.11716">
        <ele>438.5</ele>
        <time>2021-04-27T15:46:20Z</time>
      </trkpt>
      <trkpt lat="47.30881" lon="6.11719">
        <ele>438.98</ele>
        <time>2021-04-27T15:46:21Z</time>
      </trkpt>
      <trkpt lat="47.30882" lon="6.11722">
        <ele>438.98</ele>
        <time>2021-04-27T15:46:22Z</time>
      </trkpt>
      <trkpt lat="47.30882" lon="6.11724">
        <ele>438.98</ele>
        <time>2021-04-27T15:46:23Z</time>
      </trkpt>
      <trkpt lat="47.30882" lon="6.11727">
        <ele>438.98</ele>
        <time>2021-04-27T15:46:24Z</time>
      </trkpt>
      <trkpt lat="47.30883" lon="6.11737">
        <ele>439.46</ele>
        <time>2021-04-27T15:46:31Z</time>
      </trkpt>
      <trkpt lat="47.30884" lon="6.1174">
        <ele>439.46</ele>
        <time>2021-04-27T15:46:32Z</time>
      </trkpt>
      <trkpt lat="47.30885" lon="6.11742">
        <ele>439.46</ele>
        <time>2021-04-27T15:46:33Z</time>
      </trkpt>
      <trkpt lat="47.30886" lon="6.11745">
        <ele>439.46</ele>
        <time>2021-04-27T15:46:34Z</time>
      </trkpt>
      <trkpt lat="47.30886" lon="6.11748">
        <ele>439.46</ele>
        <time>2021-04-27T15:46:35Z</time>
      </trkpt>
      <trkpt lat="47.30892" lon="6.11803">
        <ele>441.38</ele>
        <time>2021-04-27T15:46:48Z</time>
      </trkpt>
      <trkpt lat="47.30898" lon="6.11843">
        <ele>441.86</ele>
        <time>2021-04-27T15:46:58Z</time>
      </trkpt>
      <trkpt lat="47.30907" lon="6.1189">
        <ele>441.38</ele>
        <time>2021-04-27T15:47:06Z</time>
      </trkpt>
      <trkpt lat="47.30914" lon="6.11939">
        <ele>442.34</ele>
        <time>2021-04-27T15:47:15Z</time>
      </trkpt>
      <trkpt lat="47.30925" lon="6.11999">
        <ele>441.38</ele>
        <time>2021-04-27T15:47:25Z</time>
      </trkpt>
      <trkpt lat="47.30924" lon="6.12014">
        <ele>439.94</ele>
        <time>2021-04-27T15:47:27Z</time>
      </trkpt>
      <trkpt lat="47.30922" lon="6.12022">
        <ele>438.98</ele>
        <time>2021-04-27T15:47:28Z</time>
      </trkpt>
      <trkpt lat="47.30918" lon="6.12031">
        <ele>437.54</ele>
        <time>2021-04-27T15:47:29Z</time>
      </trkpt>
      <trkpt lat="47.30913" lon="6.12039">
        <ele>436.58</ele>
        <time>2021-04-27T15:47:30Z</time>
      </trkpt>
      <trkpt lat="47.30907" lon="6.12046">
        <ele>436.58</ele>
        <time>2021-04-27T15:47:31Z</time>
      </trkpt>
      <trkpt lat="47.30902" lon="6.12051">
        <ele>436.58</ele>
        <time>2021-04-27T15:47:32Z</time>
      </trkpt>
      <trkpt lat="47.3088" lon="6.12072">
        <ele>439.94</ele>
        <time>2021-04-27T15:47:39Z</time>
      </trkpt>
      <trkpt lat="47.30859" lon="6.12063">
        <ele>441.38</ele>
        <time>2021-04-27T15:47:47Z</time>
      </trkpt>
      <trkpt lat="47.30849" lon="6.12055">
        <ele>441.86</ele>
        <time>2021-04-27T15:47:51Z</time>
      </trkpt>
      <trkpt lat="47.3083" lon="6.12044">
        <ele>441.38</ele>
        <time>2021-04-27T15:47:59Z</time>
      </trkpt>
      <trkpt lat="47.30805" lon="6.12031">
        <ele>441.86</ele>
        <time>2021-04-27T15:48:11Z</time>
      </trkpt>
      <trkpt lat="47.30795" lon="6.12022">
        <ele>441.86</ele>
        <time>2021-04-27T15:48:16Z</time>
      </trkpt>
      <trkpt lat="47.30786" lon="6.12017">
        <ele>442.34</ele>
        <time>2021-04-27T15:48:21Z</time>
      </trkpt>
      <trkpt lat="47.30783" lon="6.12015">
        <ele>442.82</ele>
        <time>2021-04-27T15:48:23Z</time>
      </trkpt>
      <trkpt lat="47.30765" lon="6.11999">
        <ele>443.79</ele>
        <time>2021-04-27T15:48:34Z</time>
      </trkpt>
      <trkpt lat="47.30753" lon="6.11989">
        <ele>445.23</ele>
        <time>2021-04-27T15:48:40Z</time>
      </trkpt>
      <trkpt lat="47.30726" lon="6.11972">
        <ele>448.11</ele>
        <time>2021-04-27T15:48:53Z</time>
      </trkpt>
      <trkpt lat="47.30713" lon="6.11961">
        <ele>451.48</ele>
        <time>2021-04-27T15:49:01Z</time>
      </trkpt>
      <trkpt lat="47.30711" lon="6.11959">
        <ele>451.48</ele>
        <time>2021-04-27T15:49:02Z</time>
      </trkpt>
      <trkpt lat="47.30693" lon="6.11942">
        <ele>454.84</ele>
        <time>2021-04-27T15:49:13Z</time>
      </trkpt>
      <trkpt lat="47.30667" lon="6.11918">
        <ele>458.21</ele>
        <time>2021-04-27T15:49:28Z</time>
      </trkpt>
      <trkpt lat="47.30642" lon="6.1189">
        <ele>458.69</ele>
        <time>2021-04-27T15:49:39Z</time>
      </trkpt>
      <trkpt lat="47.3063" lon="6.11863">
        <ele>457.72</ele>
        <time>2021-04-27T15:49:45Z</time>
      </trkpt>
      <trkpt lat="47.30623" lon="6.11848">
        <ele>457.24</ele>
        <time>2021-04-27T15:49:48Z</time>
      </trkpt>
      <trkpt lat="47.30609" lon="6.11815">
        <ele>457.24</ele>
        <time>2021-04-27T15:49:55Z</time>
      </trkpt>
      <trkpt lat="47.306" lon="6.11793">
        <ele>456.28</ele>
        <time>2021-04-27T15:49:59Z</time>
      </trkpt>
      <trkpt lat="47.30596" lon="6.11771">
        <ele>455.32</ele>
        <time>2021-04-27T15:50:02Z</time>
      </trkpt>
      <trkpt lat="47.3058" lon="6.11734">
        <ele>453.88</ele>
        <time>2021-04-27T15:50:07Z</time>
      </trkpt>
      <trkpt lat="47.30577" lon="6.11726">
        <ele>453.88</ele>
        <time>2021-04-27T15:50:08Z</time>
      </trkpt>
      <trkpt lat="47.30571" lon="6.11705">
        <ele>453.88</ele>
        <time>2021-04-27T15:50:11Z</time>
      </trkpt>
      <trkpt lat="47.30572" lon="6.11699">
        <ele>453.88</ele>
        <time>2021-04-27T15:50:12Z</time>
      </trkpt>
      <trkpt lat="47.30574" lon="6.11695">
        <ele>453.88</ele>
        <time>2021-04-27T15:50:13Z</time>
      </trkpt>
      <trkpt lat="47.30578" lon="6.1169">
        <ele>453.88</ele>
        <time>2021-04-27T15:50:15Z</time>
      </trkpt>
      <trkpt lat="47.30602" lon="6.11644">
        <ele>454.84</ele>
        <time>2021-04-27T15:50:27Z</time>
      </trkpt>
      <trkpt lat="47.30602" lon="6.11604">
        <ele>455.8</ele>
        <time>2021-04-27T15:50:35Z</time>
      </trkpt>
      <trkpt lat="47.3059" lon="6.1156">
        <ele>457.24</ele>
        <time>2021-04-27T15:50:45Z</time>
      </trkpt>
      <trkpt lat="47.30581" lon="6.1152">
        <ele>459.17</ele>
        <time>2021-04-27T15:50:55Z</time>
      </trkpt>
      <trkpt lat="47.30578" lon="6.11512">
        <ele>458.69</ele>
        <time>2021-04-27T15:50:58Z</time>
      </trkpt>
      <trkpt lat="47.30577" lon="6.11508">
        <ele>458.69</ele>
        <time>2021-04-27T15:50:59Z</time>
      </trkpt>
      <trkpt lat="47.30577" lon="6.11505">
        <ele>458.69</ele>
        <time>2021-04-27T15:51:00Z</time>
      </trkpt>
      <trkpt lat="47.30566" lon="6.11469">
        <ele>456.76</ele>
        <time>2021-04-27T15:51:10Z</time>
      </trkpt>
      <trkpt lat="47.3056" lon="6.1143">
        <ele>454.36</ele>
        <time>2021-04-27T15:51:16Z</time>
      </trkpt>
      <trkpt lat="47.30557" lon="6.11422">
        <ele>454.36</ele>
        <time>2021-04-27T15:51:17Z</time>
      </trkpt>
      <trkpt lat="47.30552" lon="6.11408">
        <ele>453.4</ele>
        <time>2021-04-27T15:51:19Z</time>
      </trkpt>
      <trkpt lat="47.30551" lon="6.114">
        <ele>452.92</ele>
        <time>2021-04-27T15:51:20Z</time>
      </trkpt>
      <trkpt lat="47.30551" lon="6.11392">
        <ele>452.44</ele>
        <time>2021-04-27T15:51:21Z</time>
      </trkpt>
      <trkpt lat="47.3055" lon="6.11383">
        <ele>451.96</ele>
        <time>2021-04-27T15:51:22Z</time>
      </trkpt>
      <trkpt lat="47.30549" lon="6.11375">
        <ele>451.48</ele>
        <time>2021-04-27T15:51:23Z</time>
      </trkpt>
      <trkpt lat="47.30547" lon="6.11367">
        <ele>451</ele>
        <time>2021-04-27T15:51:24Z</time>
      </trkpt>
      <trkpt lat="47.30545" lon="6.11357">
        <ele>449.55</ele>
        <time>2021-04-27T15:51:25Z</time>
      </trkpt>
      <trkpt lat="47.30542" lon="6.11348">
        <ele>449.07</ele>
        <time>2021-04-27T15:51:26Z</time>
      </trkpt>
      <trkpt lat="47.30539" lon="6.11339">
        <ele>448.59</ele>
        <time>2021-04-27T15:51:27Z</time>
      </trkpt>
      <trkpt lat="47.30516" lon="6.11284">
        <ele>445.71</ele>
        <time>2021-04-27T15:51:32Z</time>
      </trkpt>
      <trkpt lat="47.30512" lon="6.11272">
        <ele>445.23</ele>
        <time>2021-04-27T15:51:33Z</time>
      </trkpt>
      <trkpt lat="47.30502" lon="6.11241">
        <ele>444.27</ele>
        <time>2021-04-27T15:51:36Z</time>
      </trkpt>
      <trkpt lat="47.30489" lon="6.11213">
        <ele>443.31</ele>
        <time>2021-04-27T15:51:39Z</time>
      </trkpt>
      <trkpt lat="47.30464" lon="6.11139">
        <ele>439.94</ele>
        <time>2021-04-27T15:51:46Z</time>
      </trkpt>
      <trkpt lat="47.30461" lon="6.11129">
        <ele>439.46</ele>
        <time>2021-04-27T15:51:47Z</time>
      </trkpt>
      <trkpt lat="47.30454" lon="6.1108">
        <ele>438.02</ele>
        <time>2021-04-27T15:51:54Z</time>
      </trkpt>
      <trkpt lat="47.30452" lon="6.11075">
        <ele>437.54</ele>
        <time>2021-04-27T15:51:56Z</time>
      </trkpt>
      <trkpt lat="47.30447" lon="6.11066">
        <ele>437.54</ele>
        <time>2021-04-27T15:52:07Z</time>
      </trkpt>
      <trkpt lat="47.30444" lon="6.11063">
        <ele>437.54</ele>
        <time>2021-04-27T15:52:10Z</time>
      </trkpt>
      <trkpt lat="47.30443" lon="6.11061">
        <ele>437.54</ele>
        <time>2021-04-27T15:52:11Z</time>
      </trkpt>
      <trkpt lat="47.30442" lon="6.11058">
        <ele>437.54</ele>
        <time>2021-04-27T15:52:12Z</time>
      </trkpt>
      <trkpt lat="47.30441" lon="6.11054">
        <ele>437.06</ele>
        <time>2021-04-27T15:52:13Z</time>
      </trkpt>
      <trkpt lat="47.30439" lon="6.11051">
        <ele>437.06</ele>
        <time>2021-04-27T15:52:14Z</time>
      </trkpt>
      <trkpt lat="47.30438" lon="6.11048">
        <ele>437.06</ele>
        <time>2021-04-27T15:52:15Z</time>
      </trkpt>
      <trkpt lat="47.30437" lon="6.11044">
        <ele>436.58</ele>
        <time>2021-04-27T15:52:16Z</time>
      </trkpt>
      <trkpt lat="47.30436" lon="6.11038">
        <ele>437.06</ele>
        <time>2021-04-27T15:52:17Z</time>
      </trkpt>
      <trkpt lat="47.30422" lon="6.10994">
        <ele>437.06</ele>
        <time>2021-04-27T15:52:26Z</time>
      </trkpt>
      <trkpt lat="47.30413" lon="6.10965">
        <ele>436.58</ele>
        <time>2021-04-27T15:52:34Z</time>
      </trkpt>
      <trkpt lat="47.30407" lon="6.10944">
        <ele>436.1</ele>
        <time>2021-04-27T15:52:48Z</time>
      </trkpt>
      <trkpt lat="47.30404" lon="6.10935">
        <ele>436.1</ele>
        <time>2021-04-27T15:53:01Z</time>
      </trkpt>
      <trkpt lat="47.304" lon="6.10924">
        <ele>435.61</ele>
        <time>2021-04-27T15:53:09Z</time>
      </trkpt>
      <trkpt lat="47.304" lon="6.10921">
        <ele>435.61</ele>
        <time>2021-04-27T15:53:10Z</time>
      </trkpt>
      <trkpt lat="47.30399" lon="6.10919">
        <ele>435.61</ele>
        <time>2021-04-27T15:53:11Z</time>
      </trkpt>
      <trkpt lat="47.30398" lon="6.10916">
        <ele>435.61</ele>
        <time>2021-04-27T15:53:12Z</time>
      </trkpt>
      <trkpt lat="47.30397" lon="6.10913">
        <ele>435.13</ele>
        <time>2021-04-27T15:53:13Z</time>
      </trkpt>
      <trkpt lat="47.30395" lon="6.10909">
        <ele>435.13</ele>
        <time>2021-04-27T15:53:14Z</time>
      </trkpt>
      <trkpt lat="47.30394" lon="6.10904">
        <ele>434.65</ele>
        <time>2021-04-27T15:53:15Z</time>
      </trkpt>
      <trkpt lat="47.30393" lon="6.109">
        <ele>434.65</ele>
        <time>2021-04-27T15:53:16Z</time>
      </trkpt>
      <trkpt lat="47.30391" lon="6.10895">
        <ele>434.65</ele>
        <time>2021-04-27T15:53:17Z</time>
      </trkpt>
      <trkpt lat="47.30389" lon="6.10891">
        <ele>434.65</ele>
        <time>2021-04-27T15:53:18Z</time>
      </trkpt>
      <trkpt lat="47.30385" lon="6.10882">
        <ele>434.17</ele>
        <time>2021-04-27T15:53:27Z</time>
      </trkpt>
      <trkpt lat="47.30384" lon="6.10881">
        <ele>434.65</ele>
        <time>2021-04-27T15:53:45Z</time>
      </trkpt>
      <trkpt lat="47.30383" lon="6.10878">
        <ele>434.17</ele>
        <time>2021-04-27T15:53:52Z</time>
      </trkpt>
      <trkpt lat="47.30382" lon="6.10876">
        <ele>434.17</ele>
        <time>2021-04-27T15:53:53Z</time>
      </trkpt>
      <trkpt lat="47.30377" lon="6.10863">
        <ele>433.69</ele>
        <time>2021-04-27T15:54:05Z</time>
      </trkpt>
      <trkpt lat="47.30364" lon="6.10831">
        <ele>432.73</ele>
        <time>2021-04-27T15:54:13Z</time>
      </trkpt>
      <trkpt lat="47.30342" lon="6.1077">
        <ele>429.37</ele>
        <time>2021-04-27T15:54:24Z</time>
      </trkpt>
      <trkpt lat="47.30332" lon="6.1074">
        <ele>428.4</ele>
        <time>2021-04-27T15:54:28Z</time>
      </trkpt>
      <trkpt lat="47.30329" lon="6.10732">
        <ele>427.92</ele>
        <time>2021-04-27T15:54:29Z</time>
      </trkpt>
      <trkpt lat="47.30323" lon="6.10717">
        <ele>426.96</ele>
        <time>2021-04-27T15:54:31Z</time>
      </trkpt>
      <trkpt lat="47.30321" lon="6.10709">
        <ele>426.48</ele>
        <time>2021-04-27T15:54:32Z</time>
      </trkpt>
      <trkpt lat="47.30309" lon="6.10676">
        <ele>425.04</ele>
        <time>2021-04-27T15:54:36Z</time>
      </trkpt>
      <trkpt lat="47.30307" lon="6.10669">
        <ele>424.56</ele>
        <time>2021-04-27T15:54:37Z</time>
      </trkpt>
      <trkpt lat="47.30305" lon="6.10663">
        <ele>424.08</ele>
        <time>2021-04-27T15:54:38Z</time>
      </trkpt>
      <trkpt lat="47.30302" lon="6.10658">
        <ele>424.08</ele>
        <time>2021-04-27T15:54:39Z</time>
      </trkpt>
      <trkpt lat="47.30298" lon="6.10653">
        <ele>423.6</ele>
        <time>2021-04-27T15:54:40Z</time>
      </trkpt>
      <trkpt lat="47.30295" lon="6.10647">
        <ele>423.12</ele>
        <time>2021-04-27T15:54:41Z</time>
      </trkpt>
      <trkpt lat="47.30293" lon="6.10642">
        <ele>422.64</ele>
        <time>2021-04-27T15:54:42Z</time>
      </trkpt>
      <trkpt lat="47.30292" lon="6.10636">
        <ele>422.16</ele>
        <time>2021-04-27T15:54:43Z</time>
      </trkpt>
      <trkpt lat="47.3029" lon="6.10632">
        <ele>422.16</ele>
        <time>2021-04-27T15:54:44Z</time>
      </trkpt>
      <trkpt lat="47.30289" lon="6.10628">
        <ele>421.68</ele>
        <time>2021-04-27T15:54:45Z</time>
      </trkpt>
      <trkpt lat="47.30286" lon="6.10623">
        <ele>420.71</ele>
        <time>2021-04-27T15:54:46Z</time>
      </trkpt>
      <trkpt lat="47.30275" lon="6.10603">
        <ele>418.79</ele>
        <time>2021-04-27T15:54:49Z</time>
      </trkpt>
      <trkpt lat="47.30264" lon="6.10587">
        <ele>417.83</ele>
        <time>2021-04-27T15:54:51Z</time>
      </trkpt>
      <trkpt lat="47.30259" lon="6.10579">
        <ele>417.35</ele>
        <time>2021-04-27T15:54:52Z</time>
      </trkpt>
      <trkpt lat="47.30254" lon="6.10571">
        <ele>416.39</ele>
        <time>2021-04-27T15:54:53Z</time>
      </trkpt>
      <trkpt lat="47.30248" lon="6.10563">
        <ele>415.43</ele>
        <time>2021-04-27T15:54:54Z</time>
      </trkpt>
      <trkpt lat="47.30242" lon="6.10556">
        <ele>414.47</ele>
        <time>2021-04-27T15:54:55Z</time>
      </trkpt>
      <trkpt lat="47.30237" lon="6.10549">
        <ele>413.98</ele>
        <time>2021-04-27T15:54:56Z</time>
      </trkpt>
      <trkpt lat="47.30233" lon="6.10543">
        <ele>413.5</ele>
        <time>2021-04-27T15:54:57Z</time>
      </trkpt>
      <trkpt lat="47.3023" lon="6.10536">
        <ele>412.54</ele>
        <time>2021-04-27T15:54:58Z</time>
      </trkpt>
      <trkpt lat="47.30216" lon="6.1051">
        <ele>410.62</ele>
        <time>2021-04-27T15:55:01Z</time>
      </trkpt>
      <trkpt lat="47.30209" lon="6.10502">
        <ele>409.18</ele>
        <time>2021-04-27T15:55:02Z</time>
      </trkpt>
      <trkpt lat="47.30189" lon="6.1048">
        <ele>405.81</ele>
        <time>2021-04-27T15:55:05Z</time>
      </trkpt>
      <trkpt lat="47.30182" lon="6.10472">
        <ele>404.85</ele>
        <time>2021-04-27T15:55:06Z</time>
      </trkpt>
      <trkpt lat="47.30172" lon="6.10456">
        <ele>401.49</ele>
        <time>2021-04-27T15:55:08Z</time>
      </trkpt>
      <trkpt lat="47.30167" lon="6.10447">
        <ele>401.01</ele>
        <time>2021-04-27T15:55:09Z</time>
      </trkpt>
      <trkpt lat="47.30164" lon="6.10438">
        <ele>400.05</ele>
        <time>2021-04-27T15:55:10Z</time>
      </trkpt>
      <trkpt lat="47.30157" lon="6.10407">
        <ele>398.12</ele>
        <time>2021-04-27T15:55:13Z</time>
      </trkpt>
      <trkpt lat="47.30143" lon="6.10368">
        <ele>395.24</ele>
        <time>2021-04-27T15:55:17Z</time>
      </trkpt>
      <trkpt lat="47.30138" lon="6.10358">
        <ele>395.24</ele>
        <time>2021-04-27T15:55:18Z</time>
      </trkpt>
      <trkpt lat="47.30133" lon="6.10351">
        <ele>394.76</ele>
        <time>2021-04-27T15:55:19Z</time>
      </trkpt>
      <trkpt lat="47.30128" lon="6.10343">
        <ele>394.28</ele>
        <time>2021-04-27T15:55:20Z</time>
      </trkpt>
      <trkpt lat="47.30125" lon="6.10334">
        <ele>393.8</ele>
        <time>2021-04-27T15:55:21Z</time>
      </trkpt>
      <trkpt lat="47.30122" lon="6.10326">
        <ele>393.32</ele>
        <time>2021-04-27T15:55:22Z</time>
      </trkpt>
      <trkpt lat="47.3012" lon="6.10317">
        <ele>392.84</ele>
        <time>2021-04-27T15:55:23Z</time>
      </trkpt>
      <trkpt lat="47.30117" lon="6.10308">
        <ele>392.84</ele>
        <time>2021-04-27T15:55:24Z</time>
      </trkpt>
      <trkpt lat="47.30114" lon="6.10298">
        <ele>392.36</ele>
        <time>2021-04-27T15:55:25Z</time>
      </trkpt>
      <trkpt lat="47.3011" lon="6.10288">
        <ele>391.87</ele>
        <time>2021-04-27T15:55:26Z</time>
      </trkpt>
      <trkpt lat="47.30107" lon="6.10279">
        <ele>391.87</ele>
        <time>2021-04-27T15:55:27Z</time>
      </trkpt>
      <trkpt lat="47.30103" lon="6.1027">
        <ele>391.39</ele>
        <time>2021-04-27T15:55:28Z</time>
      </trkpt>
      <trkpt lat="47.30098" lon="6.10261">
        <ele>390.91</ele>
        <time>2021-04-27T15:55:29Z</time>
      </trkpt>
      <trkpt lat="47.30089" lon="6.10245">
        <ele>390.91</ele>
        <time>2021-04-27T15:55:31Z</time>
      </trkpt>
      <trkpt lat="47.30068" lon="6.10213">
        <ele>390.91</ele>
        <time>2021-04-27T15:55:36Z</time>
      </trkpt>
      <trkpt lat="47.30063" lon="6.10207">
        <ele>390.91</ele>
        <time>2021-04-27T15:55:37Z</time>
      </trkpt>
      <trkpt lat="47.30055" lon="6.10198">
        <ele>390.91</ele>
        <time>2021-04-27T15:55:39Z</time>
      </trkpt>
      <trkpt lat="47.30036" lon="6.10181">
        <ele>390.43</ele>
        <time>2021-04-27T15:55:43Z</time>
      </trkpt>
      <trkpt lat="47.30024" lon="6.10167">
        <ele>389.95</ele>
        <time>2021-04-27T15:55:46Z</time>
      </trkpt>
      <trkpt lat="47.3002" lon="6.10161">
        <ele>389.95</ele>
        <time>2021-04-27T15:55:47Z</time>
      </trkpt>
      <trkpt lat="47.30016" lon="6.10154">
        <ele>389.47</ele>
        <time>2021-04-27T15:55:48Z</time>
      </trkpt>
      <trkpt lat="47.30012" lon="6.10148">
        <ele>389.47</ele>
        <time>2021-04-27T15:55:49Z</time>
      </trkpt>
      <trkpt lat="47.30008" lon="6.10143">
        <ele>388.99</ele>
        <time>2021-04-27T15:55:50Z</time>
      </trkpt>
      <trkpt lat="47.30003" lon="6.10138">
        <ele>388.99</ele>
        <time>2021-04-27T15:55:51Z</time>
      </trkpt>
      <trkpt lat="47.29999" lon="6.10133">
        <ele>388.51</ele>
        <time>2021-04-27T15:55:52Z</time>
      </trkpt>
      <trkpt lat="47.29995" lon="6.10127">
        <ele>388.51</ele>
        <time>2021-04-27T15:55:53Z</time>
      </trkpt>
      <trkpt lat="47.29984" lon="6.10111">
        <ele>387.07</ele>
        <time>2021-04-27T15:55:55Z</time>
      </trkpt>
      <trkpt lat="47.29978" lon="6.10104">
        <ele>386.59</ele>
        <time>2021-04-27T15:55:56Z</time>
      </trkpt>
      <trkpt lat="47.29954" lon="6.10081">
        <ele>385.63</ele>
        <time>2021-04-27T15:56:00Z</time>
      </trkpt>
      <trkpt lat="47.29948" lon="6.10078">
        <ele>385.63</ele>
        <time>2021-04-27T15:56:01Z</time>
      </trkpt>
      <trkpt lat="47.29938" lon="6.10073">
        <ele>385.63</ele>
        <time>2021-04-27T15:56:03Z</time>
      </trkpt>
      <trkpt lat="47.29932" lon="6.10071">
        <ele>385.63</ele>
        <time>2021-04-27T15:56:04Z</time>
      </trkpt>
      <trkpt lat="47.29927" lon="6.10068">
        <ele>385.63</ele>
        <time>2021-04-27T15:56:05Z</time>
      </trkpt>
      <trkpt lat="47.29922" lon="6.10066">
        <ele>385.63</ele>
        <time>2021-04-27T15:56:06Z</time>
      </trkpt>
      <trkpt lat="47.29917" lon="6.10063">
        <ele>385.63</ele>
        <time>2021-04-27T15:56:07Z</time>
      </trkpt>
      <trkpt lat="47.29913" lon="6.1006">
        <ele>385.15</ele>
        <time>2021-04-27T15:56:08Z</time>
      </trkpt>
      <trkpt lat="47.29908" lon="6.10057">
        <ele>385.15</ele>
        <time>2021-04-27T15:56:09Z</time>
      </trkpt>
      <trkpt lat="47.29899" lon="6.1005">
        <ele>384.66</ele>
        <time>2021-04-27T15:56:11Z</time>
      </trkpt>
      <trkpt lat="47.29872" lon="6.10018">
        <ele>382.74</ele>
        <time>2021-04-27T15:56:17Z</time>
      </trkpt>
      <trkpt lat="47.29862" lon="6.10009">
        <ele>381.78</ele>
        <time>2021-04-27T15:56:19Z</time>
      </trkpt>
      <trkpt lat="47.29833" lon="6.09987">
        <ele>380.82</ele>
        <time>2021-04-27T15:56:24Z</time>
      </trkpt>
      <trkpt lat="47.29826" lon="6.09983">
        <ele>380.82</ele>
        <time>2021-04-27T15:56:25Z</time>
      </trkpt>
      <trkpt lat="47.2982" lon="6.0998">
        <ele>381.3</ele>
        <time>2021-04-27T15:56:26Z</time>
      </trkpt>
      <trkpt lat="47.29814" lon="6.09976">
        <ele>381.3</ele>
        <time>2021-04-27T15:56:27Z</time>
      </trkpt>
      <trkpt lat="47.29809" lon="6.09972">
        <ele>380.82</ele>
        <time>2021-04-27T15:56:28Z</time>
      </trkpt>
      <trkpt lat="47.29788" lon="6.09954">
        <ele>379.86</ele>
        <time>2021-04-27T15:56:32Z</time>
      </trkpt>
      <trkpt lat="47.29783" lon="6.09948">
        <ele>379.86</ele>
        <time>2021-04-27T15:56:33Z</time>
      </trkpt>
      <trkpt lat="47.29777" lon="6.09945">
        <ele>379.86</ele>
        <time>2021-04-27T15:56:34Z</time>
      </trkpt>
      <trkpt lat="47.29771" lon="6.09942">
        <ele>379.38</ele>
        <time>2021-04-27T15:56:35Z</time>
      </trkpt>
      <trkpt lat="47.29764" lon="6.0994">
        <ele>379.38</ele>
        <time>2021-04-27T15:56:36Z</time>
      </trkpt>
      <trkpt lat="47.29758" lon="6.09939">
        <ele>379.38</ele>
        <time>2021-04-27T15:56:37Z</time>
      </trkpt>
      <trkpt lat="47.29752" lon="6.09937">
        <ele>378.9</ele>
        <time>2021-04-27T15:56:38Z</time>
      </trkpt>
      <trkpt lat="47.29746" lon="6.09935">
        <ele>378.9</ele>
        <time>2021-04-27T15:56:39Z</time>
      </trkpt>
      <trkpt lat="47.2974" lon="6.09933">
        <ele>378.42</ele>
        <time>2021-04-27T15:56:40Z</time>
      </trkpt>
      <trkpt lat="47.29734" lon="6.0993">
        <ele>378.42</ele>
        <time>2021-04-27T15:56:41Z</time>
      </trkpt>
      <trkpt lat="47.29727" lon="6.09928">
        <ele>378.42</ele>
        <time>2021-04-27T15:56:42Z</time>
      </trkpt>
      <trkpt lat="47.2968" lon="6.09901">
        <ele>376.01</ele>
        <time>2021-04-27T15:56:50Z</time>
      </trkpt>
      <trkpt lat="47.29674" lon="6.09896">
        <ele>375.53</ele>
        <time>2021-04-27T15:56:51Z</time>
      </trkpt>
      <trkpt lat="47.29662" lon="6.09887">
        <ele>375.05</ele>
        <time>2021-04-27T15:56:53Z</time>
      </trkpt>
      <trkpt lat="47.29658" lon="6.09883">
        <ele>375.05</ele>
        <time>2021-04-27T15:56:54Z</time>
      </trkpt>
      <trkpt lat="47.29655" lon="6.09877">
        <ele>374.57</ele>
        <time>2021-04-27T15:56:55Z</time>
      </trkpt>
      <trkpt lat="47.29645" lon="6.09863">
        <ele>373.61</ele>
        <time>2021-04-27T15:56:59Z</time>
      </trkpt>
      <trkpt lat="47.29642" lon="6.09863">
        <ele>374.09</ele>
        <time>2021-04-27T15:57:00Z</time>
      </trkpt>
      <trkpt lat="47.2964" lon="6.09863">
        <ele>374.09</ele>
        <time>2021-04-27T15:57:01Z</time>
      </trkpt>
      <trkpt lat="47.29638" lon="6.09863">
        <ele>374.09</ele>
        <time>2021-04-27T15:57:02Z</time>
      </trkpt>
      <trkpt lat="47.29635" lon="6.09861">
        <ele>374.09</ele>
        <time>2021-04-27T15:57:03Z</time>
      </trkpt>
      <trkpt lat="47.2963" lon="6.0986">
        <ele>374.09</ele>
        <time>2021-04-27T15:57:04Z</time>
      </trkpt>
      <trkpt lat="47.29625" lon="6.09858">
        <ele>373.61</ele>
        <time>2021-04-27T15:57:05Z</time>
      </trkpt>
      <trkpt lat="47.29613" lon="6.09849">
        <ele>374.09</ele>
        <time>2021-04-27T15:57:08Z</time>
      </trkpt>
      <trkpt lat="47.296" lon="6.09835">
        <ele>373.61</ele>
        <time>2021-04-27T15:57:11Z</time>
      </trkpt>
      <trkpt lat="47.29597" lon="6.09832">
        <ele>373.13</ele>
        <time>2021-04-27T15:57:12Z</time>
      </trkpt>
      <trkpt lat="47.29595" lon="6.09829">
        <ele>373.13</ele>
        <time>2021-04-27T15:57:13Z</time>
      </trkpt>
      <trkpt lat="47.29592" lon="6.09825">
        <ele>372.65</ele>
        <time>2021-04-27T15:57:14Z</time>
      </trkpt>
      <trkpt lat="47.29588" lon="6.09819">
        <ele>372.65</ele>
        <time>2021-04-27T15:57:15Z</time>
      </trkpt>
      <trkpt lat="47.29586" lon="6.09814">
        <ele>372.17</ele>
        <time>2021-04-27T15:57:16Z</time>
      </trkpt>
      <trkpt lat="47.2958" lon="6.09798">
        <ele>371.69</ele>
        <time>2021-04-27T15:57:18Z</time>
      </trkpt>
      <trkpt lat="47.29573" lon="6.09783">
        <ele>370.73</ele>
        <time>2021-04-27T15:57:20Z</time>
      </trkpt>
      <trkpt lat="47.29566" lon="6.0977">
        <ele>370.24</ele>
        <time>2021-04-27T15:57:22Z</time>
      </trkpt>
      <trkpt lat="47.29544" lon="6.09739">
        <ele>369.76</ele>
        <time>2021-04-27T15:57:31Z</time>
      </trkpt>
      <trkpt lat="47.29534" lon="6.09724">
        <ele>370.24</ele>
        <time>2021-04-27T15:57:35Z</time>
      </trkpt>
      <trkpt lat="47.29533" lon="6.0972">
        <ele>370.24</ele>
        <time>2021-04-27T15:57:36Z</time>
      </trkpt>
      <trkpt lat="47.29531" lon="6.09715">
        <ele>369.76</ele>
        <time>2021-04-27T15:57:37Z</time>
      </trkpt>
      <trkpt lat="47.29512" lon="6.09679">
        <ele>369.28</ele>
        <time>2021-04-27T15:57:45Z</time>
      </trkpt>
      <trkpt lat="47.29488" lon="6.09635">
        <ele>368.8</ele>
        <time>2021-04-27T15:57:53Z</time>
      </trkpt>
      <trkpt lat="47.29485" lon="6.09629">
        <ele>368.8</ele>
        <time>2021-04-27T15:57:54Z</time>
      </trkpt>
      <trkpt lat="47.29482" lon="6.09624">
        <ele>368.8</ele>
        <time>2021-04-27T15:57:55Z</time>
      </trkpt>
      <trkpt lat="47.29478" lon="6.09621">
        <ele>368.8</ele>
        <time>2021-04-27T15:57:56Z</time>
      </trkpt>
      <trkpt lat="47.29474" lon="6.09618">
        <ele>368.8</ele>
        <time>2021-04-27T15:57:57Z</time>
      </trkpt>
      <trkpt lat="47.2947" lon="6.09615">
        <ele>369.28</ele>
        <time>2021-04-27T15:57:58Z</time>
      </trkpt>
      <trkpt lat="47.2945" lon="6.09596">
        <ele>370.24</ele>
        <time>2021-04-27T15:58:05Z</time>
      </trkpt>
      <trkpt lat="47.29446" lon="6.09586">
        <ele>369.28</ele>
        <time>2021-04-27T15:58:07Z</time>
      </trkpt>
      <trkpt lat="47.29443" lon="6.09581">
        <ele>369.28</ele>
        <time>2021-04-27T15:58:08Z</time>
      </trkpt>
      <trkpt lat="47.29429" lon="6.0956">
        <ele>368.8</ele>
        <time>2021-04-27T15:58:12Z</time>
      </trkpt>
      <trkpt lat="47.29425" lon="6.09555">
        <ele>368.8</ele>
        <time>2021-04-27T15:58:13Z</time>
      </trkpt>
      <trkpt lat="47.29413" lon="6.09541">
        <ele>368.32</ele>
        <time>2021-04-27T15:58:16Z</time>
      </trkpt>
      <trkpt lat="47.29397" lon="6.09517">
        <ele>366.88</ele>
        <time>2021-04-27T15:58:20Z</time>
      </trkpt>
      <trkpt lat="47.29392" lon="6.09511">
        <ele>366.4</ele>
        <time>2021-04-27T15:58:21Z</time>
      </trkpt>
      <trkpt lat="47.29387" lon="6.09505">
        <ele>365.92</ele>
        <time>2021-04-27T15:58:22Z</time>
      </trkpt>
      <trkpt lat="47.29364" lon="6.09475">
        <ele>364</ele>
        <time>2021-04-27T15:58:26Z</time>
      </trkpt>
      <trkpt lat="47.29359" lon="6.09465">
        <ele>362.55</ele>
        <time>2021-04-27T15:58:27Z</time>
      </trkpt>
      <trkpt lat="47.29347" lon="6.09438">
        <ele>360.63</ele>
        <time>2021-04-27T15:58:30Z</time>
      </trkpt>
      <trkpt lat="47.29341" lon="6.09434">
        <ele>360.63</ele>
        <time>2021-04-27T15:58:31Z</time>
      </trkpt>
      <trkpt lat="47.29336" lon="6.09429">
        <ele>360.15</ele>
        <time>2021-04-27T15:58:32Z</time>
      </trkpt>
      <trkpt lat="47.29323" lon="6.0941">
        <ele>358.71</ele>
        <time>2021-04-27T15:58:35Z</time>
      </trkpt>
      <trkpt lat="47.2932" lon="6.09401">
        <ele>358.23</ele>
        <time>2021-04-27T15:58:36Z</time>
      </trkpt>
      <trkpt lat="47.29317" lon="6.09391">
        <ele>357.75</ele>
        <time>2021-04-27T15:58:37Z</time>
      </trkpt>
      <trkpt lat="47.29312" lon="6.09383">
        <ele>357.27</ele>
        <time>2021-04-27T15:58:38Z</time>
      </trkpt>
      <trkpt lat="47.29307" lon="6.09375">
        <ele>356.79</ele>
        <time>2021-04-27T15:58:39Z</time>
      </trkpt>
      <trkpt lat="47.29302" lon="6.09367">
        <ele>356.79</ele>
        <time>2021-04-27T15:58:40Z</time>
      </trkpt>
      <trkpt lat="47.29298" lon="6.09359">
        <ele>356.31</ele>
        <time>2021-04-27T15:58:41Z</time>
      </trkpt>
      <trkpt lat="47.29285" lon="6.09333">
        <ele>355.34</ele>
        <time>2021-04-27T15:58:44Z</time>
      </trkpt>
      <trkpt lat="47.29281" lon="6.09325">
        <ele>355.34</ele>
        <time>2021-04-27T15:58:45Z</time>
      </trkpt>
      <trkpt lat="47.29277" lon="6.09318">
        <ele>355.34</ele>
        <time>2021-04-27T15:58:46Z</time>
      </trkpt>
      <trkpt lat="47.29258" lon="6.09282">
        <ele>354.38</ele>
        <time>2021-04-27T15:58:51Z</time>
      </trkpt>
      <trkpt lat="47.29255" lon="6.09274">
        <ele>354.38</ele>
        <time>2021-04-27T15:58:52Z</time>
      </trkpt>
      <trkpt lat="47.29253" lon="6.09267">
        <ele>354.38</ele>
        <time>2021-04-27T15:58:53Z</time>
      </trkpt>
      <trkpt lat="47.2925" lon="6.0926">
        <ele>354.38</ele>
        <time>2021-04-27T15:58:54Z</time>
      </trkpt>
      <trkpt lat="47.29248" lon="6.09255">
        <ele>354.38</ele>
        <time>2021-04-27T15:58:55Z</time>
      </trkpt>
      <trkpt lat="47.29245" lon="6.09252">
        <ele>354.38</ele>
        <time>2021-04-27T15:58:56Z</time>
      </trkpt>
      <trkpt lat="47.29242" lon="6.09248">
        <ele>354.38</ele>
        <time>2021-04-27T15:58:57Z</time>
      </trkpt>
      <trkpt lat="47.29238" lon="6.09244">
        <ele>354.38</ele>
        <time>2021-04-27T15:58:58Z</time>
      </trkpt>
      <trkpt lat="47.29235" lon="6.09242">
        <ele>354.38</ele>
        <time>2021-04-27T15:58:59Z</time>
      </trkpt>
      <trkpt lat="47.29231" lon="6.0924">
        <ele>353.9</ele>
        <time>2021-04-27T15:59:00Z</time>
      </trkpt>
      <trkpt lat="47.29227" lon="6.09238">
        <ele>353.9</ele>
        <time>2021-04-27T15:59:01Z</time>
      </trkpt>
      <trkpt lat="47.29199" lon="6.09214">
        <ele>355.83</ele>
        <time>2021-04-27T15:59:11Z</time>
      </trkpt>
      <trkpt lat="47.29197" lon="6.09211">
        <ele>355.83</ele>
        <time>2021-04-27T15:59:12Z</time>
      </trkpt>
      <trkpt lat="47.29196" lon="6.09209">
        <ele>355.83</ele>
        <time>2021-04-27T15:59:13Z</time>
      </trkpt>
      <trkpt lat="47.29197" lon="6.09205">
        <ele>355.83</ele>
        <time>2021-04-27T15:59:16Z</time>
      </trkpt>
      <trkpt lat="47.29198" lon="6.09204">
        <ele>355.83</ele>
        <time>2021-04-27T15:59:17Z</time>
      </trkpt>
      <trkpt lat="47.29199" lon="6.09203">
        <ele>355.34</ele>
        <time>2021-04-27T15:59:18Z</time>
      </trkpt>
      <trkpt lat="47.29201" lon="6.09201">
        <ele>354.86</ele>
        <time>2021-04-27T15:59:19Z</time>
      </trkpt>
      <trkpt lat="47.29204" lon="6.09198">
        <ele>353.9</ele>
        <time>2021-04-27T15:59:20Z</time>
      </trkpt>
      <trkpt lat="47.29208" lon="6.09194">
        <ele>353.42</ele>
        <time>2021-04-27T15:59:21Z</time>
      </trkpt>
      <trkpt lat="47.29212" lon="6.09189">
        <ele>353.42</ele>
        <time>2021-04-27T15:59:22Z</time>
      </trkpt>
      <trkpt lat="47.2922" lon="6.09176">
        <ele>352.46</ele>
        <time>2021-04-27T15:59:24Z</time>
      </trkpt>
      <trkpt lat="47.29223" lon="6.09168">
        <ele>352.46</ele>
        <time>2021-04-27T15:59:25Z</time>
      </trkpt>
      <trkpt lat="47.29226" lon="6.09161">
        <ele>352.46</ele>
        <time>2021-04-27T15:59:26Z</time>
      </trkpt>
      <trkpt lat="47.29227" lon="6.09154">
        <ele>351.98</ele>
        <time>2021-04-27T15:59:27Z</time>
      </trkpt>
      <trkpt lat="47.29227" lon="6.09146">
        <ele>351.98</ele>
        <time>2021-04-27T15:59:28Z</time>
      </trkpt>
      <trkpt lat="47.29227" lon="6.09139">
        <ele>351.98</ele>
        <time>2021-04-27T15:59:29Z</time>
      </trkpt>
      <trkpt lat="47.29225" lon="6.09133">
        <ele>351.98</ele>
        <time>2021-04-27T15:59:30Z</time>
      </trkpt>
      <trkpt lat="47.29223" lon="6.09126">
        <ele>351.98</ele>
        <time>2021-04-27T15:59:31Z</time>
      </trkpt>
      <trkpt lat="47.29221" lon="6.09121">
        <ele>351.98</ele>
        <time>2021-04-27T15:59:32Z</time>
      </trkpt>
      <trkpt lat="47.29217" lon="6.09115">
        <ele>351.5</ele>
        <time>2021-04-27T15:59:33Z</time>
      </trkpt>
      <trkpt lat="47.29214" lon="6.09108">
        <ele>351.5</ele>
        <time>2021-04-27T15:59:34Z</time>
      </trkpt>
      <trkpt lat="47.29212" lon="6.09101">
        <ele>351.5</ele>
        <time>2021-04-27T15:59:35Z</time>
      </trkpt>
      <trkpt lat="47.2921" lon="6.09094">
        <ele>351.5</ele>
        <time>2021-04-27T15:59:36Z</time>
      </trkpt>
      <trkpt lat="47.2921" lon="6.09087">
        <ele>351.5</ele>
        <time>2021-04-27T15:59:37Z</time>
      </trkpt>
      <trkpt lat="47.29211" lon="6.0908">
        <ele>351.5</ele>
        <time>2021-04-27T15:59:38Z</time>
      </trkpt>
      <trkpt lat="47.29212" lon="6.09075">
        <ele>351.5</ele>
        <time>2021-04-27T15:59:39Z</time>
      </trkpt>
      <trkpt lat="47.29214" lon="6.09068">
        <ele>351.5</ele>
        <time>2021-04-27T15:59:40Z</time>
      </trkpt>
      <trkpt lat="47.29216" lon="6.09062">
        <ele>351.5</ele>
        <time>2021-04-27T15:59:41Z</time>
      </trkpt>
      <trkpt lat="47.29219" lon="6.09056">
        <ele>351.5</ele>
        <time>2021-04-27T15:59:42Z</time>
      </trkpt>
      <trkpt lat="47.29242" lon="6.09015">
        <ele>353.42</ele>
        <time>2021-04-27T15:59:52Z</time>
      </trkpt>
      <trkpt lat="47.29252" lon="6.08986">
        <ele>354.86</ele>
        <time>2021-04-27T16:00:00Z</time>
      </trkpt>
      <trkpt lat="47.29252" lon="6.08982">
        <ele>355.34</ele>
        <time>2021-04-27T16:00:01Z</time>
      </trkpt>
      <trkpt lat="47.29251" lon="6.08979">
        <ele>355.34</ele>
        <time>2021-04-27T16:00:02Z</time>
      </trkpt>
      <trkpt lat="47.2922" lon="6.08939">
        <ele>354.38</ele>
        <time>2021-04-27T16:00:11Z</time>
      </trkpt>
      <trkpt lat="47.29197" lon="6.08908">
        <ele>353.42</ele>
        <time>2021-04-27T16:00:17Z</time>
      </trkpt>
      <trkpt lat="47.29194" lon="6.08902">
        <ele>353.42</ele>
        <time>2021-04-27T16:00:18Z</time>
      </trkpt>
      <trkpt lat="47.29188" lon="6.08888">
        <ele>352.94</ele>
        <time>2021-04-27T16:00:20Z</time>
      </trkpt>
      <trkpt lat="47.29186" lon="6.0888">
        <ele>352.94</ele>
        <time>2021-04-27T16:00:21Z</time>
      </trkpt>
      <trkpt lat="47.29185" lon="6.08872">
        <ele>352.46</ele>
        <time>2021-04-27T16:00:22Z</time>
      </trkpt>
      <trkpt lat="47.29184" lon="6.08865">
        <ele>352.46</ele>
        <time>2021-04-27T16:00:23Z</time>
      </trkpt>
      <trkpt lat="47.29183" lon="6.08856">
        <ele>352.46</ele>
        <time>2021-04-27T16:00:24Z</time>
      </trkpt>
      <trkpt lat="47.29174" lon="6.08778">
        <ele>351.5</ele>
        <time>2021-04-27T16:00:33Z</time>
      </trkpt>
      <trkpt lat="47.29172" lon="6.08769">
        <ele>351.02</ele>
        <time>2021-04-27T16:00:34Z</time>
      </trkpt>
      <trkpt lat="47.29158" lon="6.08707">
        <ele>350.54</ele>
        <time>2021-04-27T16:00:41Z</time>
      </trkpt>
      <trkpt lat="47.29149" lon="6.08674">
        <ele>350.06</ele>
        <time>2021-04-27T16:00:45Z</time>
      </trkpt>
      <trkpt lat="47.29143" lon="6.0866">
        <ele>350.06</ele>
        <time>2021-04-27T16:00:47Z</time>
      </trkpt>
      <trkpt lat="47.2914" lon="6.08654">
        <ele>350.06</ele>
        <time>2021-04-27T16:00:48Z</time>
      </trkpt>
      <trkpt lat="47.2913" lon="6.08635">
        <ele>349.58</ele>
        <time>2021-04-27T16:00:51Z</time>
      </trkpt>
      <trkpt lat="47.29126" lon="6.08629">
        <ele>349.1</ele>
        <time>2021-04-27T16:00:52Z</time>
      </trkpt>
      <trkpt lat="47.29123" lon="6.08623">
        <ele>349.1</ele>
        <time>2021-04-27T16:00:53Z</time>
      </trkpt>
      <trkpt lat="47.29119" lon="6.08617">
        <ele>349.1</ele>
        <time>2021-04-27T16:00:54Z</time>
      </trkpt>
      <trkpt lat="47.29115" lon="6.08611">
        <ele>348.62</ele>
        <time>2021-04-27T16:00:55Z</time>
      </trkpt>
      <trkpt lat="47.29112" lon="6.08605">
        <ele>348.62</ele>
        <time>2021-04-27T16:00:56Z</time>
      </trkpt>
      <trkpt lat="47.29079" lon="6.0853">
        <ele>347.65</ele>
        <time>2021-04-27T16:01:07Z</time>
      </trkpt>
      <trkpt lat="47.29072" lon="6.08508">
        <ele>347.17</ele>
        <time>2021-04-27T16:01:10Z</time>
      </trkpt>
      <trkpt lat="47.29066" lon="6.08486">
        <ele>346.69</ele>
        <time>2021-04-27T16:01:13Z</time>
      </trkpt>
      <trkpt lat="47.2905" lon="6.08443">
        <ele>345.25</ele>
        <time>2021-04-27T16:01:19Z</time>
      </trkpt>
      <trkpt lat="47.29049" lon="6.08437">
        <ele>344.77</ele>
        <time>2021-04-27T16:01:20Z</time>
      </trkpt>
      <trkpt lat="47.2905" lon="6.08432">
        <ele>344.77</ele>
        <time>2021-04-27T16:01:21Z</time>
      </trkpt>
      <trkpt lat="47.2905" lon="6.08428">
        <ele>344.77</ele>
        <time>2021-04-27T16:01:22Z</time>
      </trkpt>
      <trkpt lat="47.29051" lon="6.08425">
        <ele>345.25</ele>
        <time>2021-04-27T16:01:23Z</time>
      </trkpt>
      <trkpt lat="47.29053" lon="6.08423">
        <ele>345.25</ele>
        <time>2021-04-27T16:01:24Z</time>
      </trkpt>
      <trkpt lat="47.29054" lon="6.08421">
        <ele>345.25</ele>
        <time>2021-04-27T16:01:25Z</time>
      </trkpt>
      <trkpt lat="47.29055" lon="6.08419">
        <ele>345.73</ele>
        <time>2021-04-27T16:01:26Z</time>
      </trkpt>
      <trkpt lat="47.29061" lon="6.08412">
        <ele>348.13</ele>
        <time>2021-04-27T16:01:31Z</time>
      </trkpt>
      <trkpt lat="47.29062" lon="6.08409">
        <ele>348.62</ele>
        <time>2021-04-27T16:01:32Z</time>
      </trkpt>
      <trkpt lat="47.29063" lon="6.08408">
        <ele>348.62</ele>
        <time>2021-04-27T16:01:33Z</time>
      </trkpt>
      <trkpt lat="47.29064" lon="6.08406">
        <ele>349.1</ele>
        <time>2021-04-27T16:01:34Z</time>
      </trkpt>
      <trkpt lat="47.29065" lon="6.08404">
        <ele>349.58</ele>
        <time>2021-04-27T16:01:35Z</time>
      </trkpt>
      <trkpt lat="47.29066" lon="6.08403">
        <ele>349.58</ele>
        <time>2021-04-27T16:01:36Z</time>
      </trkpt>
      <trkpt lat="47.29067" lon="6.084">
        <ele>350.06</ele>
        <time>2021-04-27T16:01:37Z</time>
      </trkpt>
      <trkpt lat="47.29067" lon="6.08398">
        <ele>350.06</ele>
        <time>2021-04-27T16:01:38Z</time>
      </trkpt>
      <trkpt lat="47.29068" lon="6.08396">
        <ele>350.54</ele>
        <time>2021-04-27T16:01:39Z</time>
      </trkpt>
      <trkpt lat="47.29068" lon="6.08393">
        <ele>350.54</ele>
        <time>2021-04-27T16:01:40Z</time>
      </trkpt>
      <trkpt lat="47.29069" lon="6.0839">
        <ele>351.02</ele>
        <time>2021-04-27T16:01:41Z</time>
      </trkpt>
      <trkpt lat="47.2907" lon="6.08387">
        <ele>351.02</ele>
        <time>2021-04-27T16:01:42Z</time>
      </trkpt>
      <trkpt lat="47.2907" lon="6.08383">
        <ele>351.5</ele>
        <time>2021-04-27T16:01:43Z</time>
      </trkpt>
      <trkpt lat="47.29071" lon="6.08369">
        <ele>352.94</ele>
        <time>2021-04-27T16:01:49Z</time>
      </trkpt>
      <trkpt lat="47.29066" lon="6.08341">
        <ele>354.38</ele>
        <time>2021-04-27T16:02:00Z</time>
      </trkpt>
      <trkpt lat="47.29051" lon="6.08314">
        <ele>355.83</ele>
        <time>2021-04-27T16:02:11Z</time>
      </trkpt>
      <trkpt lat="47.29027" lon="6.08287">
        <ele>356.31</ele>
        <time>2021-04-27T16:02:22Z</time>
      </trkpt>
      <trkpt lat="47.2901" lon="6.08256">
        <ele>356.79</ele>
        <time>2021-04-27T16:02:31Z</time>
      </trkpt>
      <trkpt lat="47.29008" lon="6.08251">
        <ele>356.79</ele>
        <time>2021-04-27T16:02:32Z</time>
      </trkpt>
      <trkpt lat="47.28992" lon="6.08223">
        <ele>356.31</ele>
        <time>2021-04-27T16:02:38Z</time>
      </trkpt>
      <trkpt lat="47.28989" lon="6.08217">
        <ele>356.31</ele>
        <time>2021-04-27T16:02:39Z</time>
      </trkpt>
      <trkpt lat="47.28986" lon="6.08211">
        <ele>356.31</ele>
        <time>2021-04-27T16:02:40Z</time>
      </trkpt>
      <trkpt lat="47.28984" lon="6.08205">
        <ele>356.31</ele>
        <time>2021-04-27T16:02:41Z</time>
      </trkpt>
      <trkpt lat="47.28982" lon="6.08199">
        <ele>356.31</ele>
        <time>2021-04-27T16:02:42Z</time>
      </trkpt>
      <trkpt lat="47.2898" lon="6.08194">
        <ele>356.31</ele>
        <time>2021-04-27T16:02:43Z</time>
      </trkpt>
      <trkpt lat="47.28975" lon="6.08183">
        <ele>356.31</ele>
        <time>2021-04-27T16:02:45Z</time>
      </trkpt>
      <trkpt lat="47.28973" lon="6.08177">
        <ele>356.31</ele>
        <time>2021-04-27T16:02:46Z</time>
      </trkpt>
      <trkpt lat="47.28968" lon="6.08166">
        <ele>355.83</ele>
        <time>2021-04-27T16:02:48Z</time>
      </trkpt>
      <trkpt lat="47.28966" lon="6.08161">
        <ele>355.83</ele>
        <time>2021-04-27T16:02:49Z</time>
      </trkpt>
      <trkpt lat="47.28963" lon="6.08154">
        <ele>355.83</ele>
        <time>2021-04-27T16:02:50Z</time>
      </trkpt>
      <trkpt lat="47.28961" lon="6.08148">
        <ele>355.83</ele>
        <time>2021-04-27T16:02:51Z</time>
      </trkpt>
      <trkpt lat="47.28958" lon="6.08142">
        <ele>355.83</ele>
        <time>2021-04-27T16:02:52Z</time>
      </trkpt>
      <trkpt lat="47.28956" lon="6.08137">
        <ele>355.83</ele>
        <time>2021-04-27T16:02:53Z</time>
      </trkpt>
      <trkpt lat="47.28954" lon="6.08131">
        <ele>355.83</ele>
        <time>2021-04-27T16:02:54Z</time>
      </trkpt>
      <trkpt lat="47.28951" lon="6.08125">
        <ele>355.34</ele>
        <time>2021-04-27T16:02:55Z</time>
      </trkpt>
      <trkpt lat="47.28946" lon="6.08112">
        <ele>355.34</ele>
        <time>2021-04-27T16:02:57Z</time>
      </trkpt>
      <trkpt lat="47.28943" lon="6.08105">
        <ele>354.86</ele>
        <time>2021-04-27T16:02:58Z</time>
      </trkpt>
      <trkpt lat="47.28939" lon="6.08099">
        <ele>354.86</ele>
        <time>2021-04-27T16:02:59Z</time>
      </trkpt>
      <trkpt lat="47.28936" lon="6.08092">
        <ele>353.9</ele>
        <time>2021-04-27T16:03:00Z</time>
      </trkpt>
      <trkpt lat="47.28934" lon="6.08084">
        <ele>353.9</ele>
        <time>2021-04-27T16:03:01Z</time>
      </trkpt>
      <trkpt lat="47.28932" lon="6.08076">
        <ele>353.42</ele>
        <time>2021-04-27T16:03:02Z</time>
      </trkpt>
      <trkpt lat="47.2893" lon="6.08069">
        <ele>353.42</ele>
        <time>2021-04-27T16:03:03Z</time>
      </trkpt>
      <trkpt lat="47.28926" lon="6.08054">
        <ele>352.94</ele>
        <time>2021-04-27T16:03:05Z</time>
      </trkpt>
      <trkpt lat="47.2892" lon="6.08039">
        <ele>351.98</ele>
        <time>2021-04-27T16:03:07Z</time>
      </trkpt>
      <trkpt lat="47.28915" lon="6.08032">
        <ele>351.5</ele>
        <time>2021-04-27T16:03:08Z</time>
      </trkpt>
      <trkpt lat="47.28898" lon="6.08007">
        <ele>351.98</ele>
        <time>2021-04-27T16:03:12Z</time>
      </trkpt>
      <trkpt lat="47.28894" lon="6.08004">
        <ele>352.46</ele>
        <time>2021-04-27T16:03:13Z</time>
      </trkpt>
      <trkpt lat="47.2889" lon="6.08001">
        <ele>352.94</ele>
        <time>2021-04-27T16:03:14Z</time>
      </trkpt>
      <trkpt lat="47.28888" lon="6.07997">
        <ele>352.94</ele>
        <time>2021-04-27T16:03:15Z</time>
      </trkpt>
      <trkpt lat="47.28886" lon="6.07993">
        <ele>352.94</ele>
        <time>2021-04-27T16:03:16Z</time>
      </trkpt>
      <trkpt lat="47.28886" lon="6.07989">
        <ele>353.42</ele>
        <time>2021-04-27T16:03:17Z</time>
      </trkpt>
      <trkpt lat="47.28891" lon="6.07981">
        <ele>354.38</ele>
        <time>2021-04-27T16:03:20Z</time>
      </trkpt>
      <trkpt lat="47.28911" lon="6.07954">
        <ele>356.79</ele>
        <time>2021-04-27T16:03:31Z</time>
      </trkpt>
      <trkpt lat="47.28933" lon="6.07929">
        <ele>358.23</ele>
        <time>2021-04-27T16:03:41Z</time>
      </trkpt>
      <trkpt lat="47.28957" lon="6.07889">
        <ele>361.11</ele>
        <time>2021-04-27T16:03:51Z</time>
      </trkpt>
      <trkpt lat="47.28971" lon="6.07868">
        <ele>362.07</ele>
        <time>2021-04-27T16:03:57Z</time>
      </trkpt>
      <trkpt lat="47.28996" lon="6.07822">
        <ele>364.48</ele>
        <time>2021-04-27T16:04:09Z</time>
      </trkpt>
      <trkpt lat="47.29019" lon="6.07775">
        <ele>365.44</ele>
        <time>2021-04-27T16:04:19Z</time>
      </trkpt>
      <trkpt lat="47.29045" lon="6.07719">
        <ele>364.48</ele>
        <time>2021-04-27T16:04:30Z</time>
      </trkpt>
      <trkpt lat="47.2904" lon="6.07681">
        <ele>364.48</ele>
        <time>2021-04-27T16:04:37Z</time>
      </trkpt>
      <trkpt lat="47.29039" lon="6.07675">
        <ele>364</ele>
        <time>2021-04-27T16:04:38Z</time>
      </trkpt>
      <trkpt lat="47.29037" lon="6.07662">
        <ele>363.52</ele>
        <time>2021-04-27T16:04:40Z</time>
      </trkpt>
      <trkpt lat="47.29037" lon="6.07657">
        <ele>364</ele>
        <time>2021-04-27T16:04:41Z</time>
      </trkpt>
      <trkpt lat="47.29036" lon="6.07652">
        <ele>364</ele>
        <time>2021-04-27T16:04:42Z</time>
      </trkpt>
      <trkpt lat="47.29035" lon="6.07647">
        <ele>363.52</ele>
        <time>2021-04-27T16:04:43Z</time>
      </trkpt>
      <trkpt lat="47.29034" lon="6.07643">
        <ele>363.52</ele>
        <time>2021-04-27T16:04:44Z</time>
      </trkpt>
      <trkpt lat="47.29032" lon="6.07638">
        <ele>363.52</ele>
        <time>2021-04-27T16:04:45Z</time>
      </trkpt>
      <trkpt lat="47.2903" lon="6.07634">
        <ele>363.52</ele>
        <time>2021-04-27T16:04:46Z</time>
      </trkpt>
      <trkpt lat="47.2902" lon="6.07609">
        <ele>363.04</ele>
        <time>2021-04-27T16:04:50Z</time>
      </trkpt>
      <trkpt lat="47.29018" lon="6.07602">
        <ele>362.55</ele>
        <time>2021-04-27T16:04:51Z</time>
      </trkpt>
      <trkpt lat="47.29015" lon="6.07582">
        <ele>362.07</ele>
        <time>2021-04-27T16:04:54Z</time>
      </trkpt>
      <trkpt lat="47.28996" lon="6.07512">
        <ele>360.15</ele>
        <time>2021-04-27T16:05:04Z</time>
      </trkpt>
      <trkpt lat="47.28995" lon="6.07505">
        <ele>359.67</ele>
        <time>2021-04-27T16:05:05Z</time>
      </trkpt>
      <trkpt lat="47.28996" lon="6.07498">
        <ele>359.67</ele>
        <time>2021-04-27T16:05:06Z</time>
      </trkpt>
      <trkpt lat="47.28999" lon="6.07485">
        <ele>359.19</ele>
        <time>2021-04-27T16:05:08Z</time>
      </trkpt>
      <trkpt lat="47.2901" lon="6.07459">
        <ele>357.75</ele>
        <time>2021-04-27T16:05:12Z</time>
      </trkpt>
      <trkpt lat="47.29015" lon="6.07442">
        <ele>356.79</ele>
        <time>2021-04-27T16:05:14Z</time>
      </trkpt>
      <trkpt lat="47.29016" lon="6.07432">
        <ele>356.79</ele>
        <time>2021-04-27T16:05:15Z</time>
      </trkpt>
      <trkpt lat="47.29018" lon="6.07423">
        <ele>356.31</ele>
        <time>2021-04-27T16:05:16Z</time>
      </trkpt>
      <trkpt lat="47.29022" lon="6.07415">
        <ele>355.83</ele>
        <time>2021-04-27T16:05:17Z</time>
      </trkpt>
      <trkpt lat="47.29026" lon="6.07409">
        <ele>355.83</ele>
        <time>2021-04-27T16:05:18Z</time>
      </trkpt>
      <trkpt lat="47.2903" lon="6.07404">
        <ele>356.79</ele>
        <time>2021-04-27T16:05:19Z</time>
      </trkpt>
      <trkpt lat="47.29034" lon="6.074">
        <ele>357.27</ele>
        <time>2021-04-27T16:05:20Z</time>
      </trkpt>
      <trkpt lat="47.29051" lon="6.07381">
        <ele>357.75</ele>
        <time>2021-04-27T16:05:25Z</time>
      </trkpt>
      <trkpt lat="47.29072" lon="6.07346">
        <ele>357.75</ele>
        <time>2021-04-27T16:05:32Z</time>
      </trkpt>
      <trkpt lat="47.29111" lon="6.07274">
        <ele>354.38</ele>
        <time>2021-04-27T16:05:43Z</time>
      </trkpt>
      <trkpt lat="47.29137" lon="6.07227">
        <ele>351.02</ele>
        <time>2021-04-27T16:05:48Z</time>
      </trkpt>
      <trkpt lat="47.29153" lon="6.0719">
        <ele>348.13</ele>
        <time>2021-04-27T16:05:52Z</time>
      </trkpt>
      <trkpt lat="47.29157" lon="6.07178">
        <ele>346.69</ele>
        <time>2021-04-27T16:05:54Z</time>
      </trkpt>
      <trkpt lat="47.29159" lon="6.07172">
        <ele>346.21</ele>
        <time>2021-04-27T16:05:55Z</time>
      </trkpt>
      <trkpt lat="47.29161" lon="6.07162">
        <ele>345.25</ele>
        <time>2021-04-27T16:05:57Z</time>
      </trkpt>
      <trkpt lat="47.29164" lon="6.07158">
        <ele>344.77</ele>
        <time>2021-04-27T16:05:58Z</time>
      </trkpt>
      <trkpt lat="47.29167" lon="6.07153">
        <ele>343.81</ele>
        <time>2021-04-27T16:05:59Z</time>
      </trkpt>
      <trkpt lat="47.29171" lon="6.07148">
        <ele>343.33</ele>
        <time>2021-04-27T16:06:00Z</time>
      </trkpt>
      <trkpt lat="47.29174" lon="6.07144">
        <ele>342.85</ele>
        <time>2021-04-27T16:06:01Z</time>
      </trkpt>
      <trkpt lat="47.29177" lon="6.07141">
        <ele>342.37</ele>
        <time>2021-04-27T16:06:02Z</time>
      </trkpt>
      <trkpt lat="47.29181" lon="6.07136">
        <ele>341.41</ele>
        <time>2021-04-27T16:06:03Z</time>
      </trkpt>
      <trkpt lat="47.29184" lon="6.07129">
        <ele>341.41</ele>
        <time>2021-04-27T16:06:04Z</time>
      </trkpt>
      <trkpt lat="47.29188" lon="6.07122">
        <ele>340.92</ele>
        <time>2021-04-27T16:06:05Z</time>
      </trkpt>
      <trkpt lat="47.29193" lon="6.07116">
        <ele>339.96</ele>
        <time>2021-04-27T16:06:06Z</time>
      </trkpt>
      <trkpt lat="47.292" lon="6.07112">
        <ele>339.48</ele>
        <time>2021-04-27T16:06:07Z</time>
      </trkpt>
      <trkpt lat="47.29204" lon="6.07107">
        <ele>338.52</ele>
        <time>2021-04-27T16:06:08Z</time>
      </trkpt>
      <trkpt lat="47.29208" lon="6.07101">
        <ele>338.04</ele>
        <time>2021-04-27T16:06:09Z</time>
      </trkpt>
      <trkpt lat="47.29213" lon="6.07095">
        <ele>337.56</ele>
        <time>2021-04-27T16:06:10Z</time>
      </trkpt>
      <trkpt lat="47.29237" lon="6.07065">
        <ele>334.2</ele>
        <time>2021-04-27T16:06:15Z</time>
      </trkpt>
      <trkpt lat="47.29261" lon="6.07032">
        <ele>330.83</ele>
        <time>2021-04-27T16:06:20Z</time>
      </trkpt>
      <trkpt lat="47.29263" lon="6.0703">
        <ele>330.35</ele>
        <time>2021-04-27T16:06:21Z</time>
      </trkpt>
      <trkpt lat="47.29267" lon="6.0703">
        <ele>330.35</ele>
        <time>2021-04-27T16:06:24Z</time>
      </trkpt>
      <trkpt lat="47.29269" lon="6.07028">
        <ele>330.35</ele>
        <time>2021-04-27T16:06:25Z</time>
      </trkpt>
      <trkpt lat="47.29271" lon="6.07026">
        <ele>329.87</ele>
        <time>2021-04-27T16:06:26Z</time>
      </trkpt>
      <trkpt lat="47.29273" lon="6.07025">
        <ele>329.87</ele>
        <time>2021-04-27T16:06:27Z</time>
      </trkpt>
      <trkpt lat="47.29273" lon="6.07016">
        <ele>328.91</ele>
        <time>2021-04-27T16:06:37Z</time>
      </trkpt>
      <trkpt lat="47.29282" lon="6.07007">
        <ele>329.39</ele>
        <time>2021-04-27T16:06:43Z</time>
      </trkpt>
      <trkpt lat="47.29295" lon="6.06995">
        <ele>326.99</ele>
        <time>2021-04-27T16:06:48Z</time>
      </trkpt>
      <trkpt lat="47.29306" lon="6.06979">
        <ele>323.62</ele>
        <time>2021-04-27T16:06:51Z</time>
      </trkpt>
      <trkpt lat="47.29321" lon="6.06962">
        <ele>325.06</ele>
        <time>2021-04-27T16:06:54Z</time>
      </trkpt>
      <trkpt lat="47.29328" lon="6.06955">
        <ele>328.43</ele>
        <time>2021-04-27T16:06:57Z</time>
      </trkpt>
      <trkpt lat="47.2933" lon="6.06952">
        <ele>328.91</ele>
        <time>2021-04-27T16:06:59Z</time>
      </trkpt>
      <trkpt lat="47.29348" lon="6.06927">
        <ele>332.27</ele>
        <time>2021-04-27T16:07:09Z</time>
      </trkpt>
      <trkpt lat="47.29365" lon="6.069">
        <ele>334.68</ele>
        <time>2021-04-27T16:07:21Z</time>
      </trkpt>
      <trkpt lat="47.2937" lon="6.06895">
        <ele>335.16</ele>
        <time>2021-04-27T16:07:24Z</time>
      </trkpt>
      <trkpt lat="47.29391" lon="6.06872">
        <ele>337.08</ele>
        <time>2021-04-27T16:07:35Z</time>
      </trkpt>
      <trkpt lat="47.29398" lon="6.06865">
        <ele>338.04</ele>
        <time>2021-04-27T16:07:39Z</time>
      </trkpt>
      <trkpt lat="47.294" lon="6.06862">
        <ele>338.52</ele>
        <time>2021-04-27T16:07:40Z</time>
      </trkpt>
      <trkpt lat="47.29402" lon="6.0686">
        <ele>338.52</ele>
        <time>2021-04-27T16:07:41Z</time>
      </trkpt>
      <trkpt lat="47.29404" lon="6.06858">
        <ele>338.52</ele>
        <time>2021-04-27T16:07:42Z</time>
      </trkpt>
      <trkpt lat="47.29406" lon="6.06856">
        <ele>339</ele>
        <time>2021-04-27T16:07:43Z</time>
      </trkpt>
      <trkpt lat="47.29408" lon="6.06853">
        <ele>339</ele>
        <time>2021-04-27T16:07:44Z</time>
      </trkpt>
      <trkpt lat="47.2941" lon="6.06849">
        <ele>339.48</ele>
        <time>2021-04-27T16:07:45Z</time>
      </trkpt>
      <trkpt lat="47.29411" lon="6.06846">
        <ele>339.48</ele>
        <time>2021-04-27T16:07:46Z</time>
      </trkpt>
      <trkpt lat="47.29412" lon="6.06843">
        <ele>339.48</ele>
        <time>2021-04-27T16:07:47Z</time>
      </trkpt>
      <trkpt lat="47.29412" lon="6.06839">
        <ele>339.96</ele>
        <time>2021-04-27T16:07:48Z</time>
      </trkpt>
      <trkpt lat="47.29412" lon="6.06834">
        <ele>339.96</ele>
        <time>2021-04-27T16:07:49Z</time>
      </trkpt>
      <trkpt lat="47.29399" lon="6.06786">
        <ele>339.96</ele>
        <time>2021-04-27T16:08:00Z</time>
      </trkpt>
      <trkpt lat="47.29374" lon="6.06755">
        <ele>339.48</ele>
        <time>2021-04-27T16:08:08Z</time>
      </trkpt>
      <trkpt lat="47.29367" lon="6.06746">
        <ele>339</ele>
        <time>2021-04-27T16:08:10Z</time>
      </trkpt>
      <trkpt lat="47.29358" lon="6.06737">
        <ele>338.52</ele>
        <time>2021-04-27T16:08:12Z</time>
      </trkpt>
      <trkpt lat="47.29354" lon="6.06732">
        <ele>338.52</ele>
        <time>2021-04-27T16:08:13Z</time>
      </trkpt>
      <trkpt lat="47.29351" lon="6.06727">
        <ele>338.52</ele>
        <time>2021-04-27T16:08:14Z</time>
      </trkpt>
      <trkpt lat="47.29347" lon="6.06722">
        <ele>338.04</ele>
        <time>2021-04-27T16:08:15Z</time>
      </trkpt>
      <trkpt lat="47.29343" lon="6.06717">
        <ele>338.04</ele>
        <time>2021-04-27T16:08:16Z</time>
      </trkpt>
      <trkpt lat="47.29315" lon="6.06682">
        <ele>336.6</ele>
        <time>2021-04-27T16:08:22Z</time>
      </trkpt>
      <trkpt lat="47.29283" lon="6.06641">
        <ele>334.68</ele>
        <time>2021-04-27T16:08:28Z</time>
      </trkpt>
      <trkpt lat="47.29237" lon="6.06587">
        <ele>330.83</ele>
        <time>2021-04-27T16:08:35Z</time>
      </trkpt>
      <trkpt lat="47.2923" lon="6.06579">
        <ele>330.35</ele>
        <time>2021-04-27T16:08:36Z</time>
      </trkpt>
      <trkpt lat="47.29225" lon="6.06573">
        <ele>330.35</ele>
        <time>2021-04-27T16:08:37Z</time>
      </trkpt>
      <trkpt lat="47.29221" lon="6.06568">
        <ele>330.35</ele>
        <time>2021-04-27T16:08:38Z</time>
      </trkpt>
      <trkpt lat="47.29217" lon="6.06564">
        <ele>329.87</ele>
        <time>2021-04-27T16:08:39Z</time>
      </trkpt>
      <trkpt lat="47.29214" lon="6.06559">
        <ele>329.87</ele>
        <time>2021-04-27T16:08:40Z</time>
      </trkpt>
      <trkpt lat="47.29199" lon="6.06532">
        <ele>327.95</ele>
        <time>2021-04-27T16:08:46Z</time>
      </trkpt>
      <trkpt lat="47.29199" lon="6.0653">
        <ele>327.95</ele>
        <time>2021-04-27T16:08:47Z</time>
      </trkpt>
      <trkpt lat="47.29201" lon="6.06528">
        <ele>327.95</ele>
        <time>2021-04-27T16:08:48Z</time>
      </trkpt>
      <trkpt lat="47.29202" lon="6.06526">
        <ele>327.95</ele>
        <time>2021-04-27T16:08:49Z</time>
      </trkpt>
      <trkpt lat="47.29204" lon="6.06524">
        <ele>328.43</ele>
        <time>2021-04-27T16:08:50Z</time>
      </trkpt>
      <trkpt lat="47.29206" lon="6.06522">
        <ele>328.43</ele>
        <time>2021-04-27T16:08:51Z</time>
      </trkpt>
      <trkpt lat="47.29207" lon="6.0652">
        <ele>328.43</ele>
        <time>2021-04-27T16:08:52Z</time>
      </trkpt>
      <trkpt lat="47.29208" lon="6.06518">
        <ele>328.43</ele>
        <time>2021-04-27T16:08:53Z</time>
      </trkpt>
      <trkpt lat="47.29209" lon="6.06515">
        <ele>328.43</ele>
        <time>2021-04-27T16:08:54Z</time>
      </trkpt>
      <trkpt lat="47.29211" lon="6.06513">
        <ele>328.91</ele>
        <time>2021-04-27T16:08:55Z</time>
      </trkpt>
      <trkpt lat="47.29212" lon="6.06511">
        <ele>328.91</ele>
        <time>2021-04-27T16:08:56Z</time>
      </trkpt>
      <trkpt lat="47.29233" lon="6.06481">
        <ele>330.35</ele>
        <time>2021-04-27T16:09:07Z</time>
      </trkpt>
      <trkpt lat="47.29265" lon="6.06447">
        <ele>331.79</ele>
        <time>2021-04-27T16:09:16Z</time>
      </trkpt>
      <trkpt lat="47.29302" lon="6.06413">
        <ele>332.75</ele>
        <time>2021-04-27T16:09:25Z</time>
      </trkpt>
      <trkpt lat="47.29347" lon="6.0637">
        <ele>332.27</ele>
        <time>2021-04-27T16:09:37Z</time>
      </trkpt>
      <trkpt lat="47.29386" lon="6.06329">
        <ele>330.35</ele>
        <time>2021-04-27T16:09:47Z</time>
      </trkpt>
      <trkpt lat="47.29395" lon="6.06319">
        <ele>329.87</ele>
        <time>2021-04-27T16:09:49Z</time>
      </trkpt>
      <trkpt lat="47.29405" lon="6.06308">
        <ele>329.39</ele>
        <time>2021-04-27T16:09:51Z</time>
      </trkpt>
      <trkpt lat="47.29422" lon="6.06291">
        <ele>329.39</ele>
        <time>2021-04-27T16:09:55Z</time>
      </trkpt>
      <trkpt lat="47.29459" lon="6.06247">
        <ele>328.43</ele>
        <time>2021-04-27T16:10:03Z</time>
      </trkpt>
      <trkpt lat="47.29462" lon="6.0624">
        <ele>328.43</ele>
        <time>2021-04-27T16:10:04Z</time>
      </trkpt>
      <trkpt lat="47.29465" lon="6.06218">
        <ele>327.47</ele>
        <time>2021-04-27T16:10:07Z</time>
      </trkpt>
      <trkpt lat="47.29464" lon="6.06211">
        <ele>326.99</ele>
        <time>2021-04-27T16:10:08Z</time>
      </trkpt>
      <trkpt lat="47.2946" lon="6.06196">
        <ele>325.54</ele>
        <time>2021-04-27T16:10:10Z</time>
      </trkpt>
      <trkpt lat="47.29456" lon="6.06188">
        <ele>325.06</ele>
        <time>2021-04-27T16:10:11Z</time>
      </trkpt>
      <trkpt lat="47.29453" lon="6.0618">
        <ele>324.58</ele>
        <time>2021-04-27T16:10:12Z</time>
      </trkpt>
      <trkpt lat="47.29447" lon="6.06167">
        <ele>324.1</ele>
        <time>2021-04-27T16:10:14Z</time>
      </trkpt>
      <trkpt lat="47.29442" lon="6.06162">
        <ele>323.62</ele>
        <time>2021-04-27T16:10:15Z</time>
      </trkpt>
      <trkpt lat="47.29438" lon="6.06158">
        <ele>322.66</ele>
        <time>2021-04-27T16:10:16Z</time>
      </trkpt>
      <trkpt lat="47.29434" lon="6.06152">
        <ele>322.66</ele>
        <time>2021-04-27T16:10:17Z</time>
      </trkpt>
      <trkpt lat="47.29431" lon="6.06146">
        <ele>322.18</ele>
        <time>2021-04-27T16:10:18Z</time>
      </trkpt>
      <trkpt lat="47.29428" lon="6.06141">
        <ele>321.7</ele>
        <time>2021-04-27T16:10:19Z</time>
      </trkpt>
      <trkpt lat="47.29425" lon="6.06136">
        <ele>321.22</ele>
        <time>2021-04-27T16:10:20Z</time>
      </trkpt>
      <trkpt lat="47.2942" lon="6.06132">
        <ele>320.26</ele>
        <time>2021-04-27T16:10:21Z</time>
      </trkpt>
      <trkpt lat="47.29415" lon="6.06128">
        <ele>319.3</ele>
        <time>2021-04-27T16:10:22Z</time>
      </trkpt>
      <trkpt lat="47.2941" lon="6.06123">
        <ele>317.37</ele>
        <time>2021-04-27T16:10:23Z</time>
      </trkpt>
      <trkpt lat="47.29404" lon="6.06119">
        <ele>315.93</ele>
        <time>2021-04-27T16:10:24Z</time>
      </trkpt>
      <trkpt lat="47.29401" lon="6.06118">
        <ele>314.97</ele>
        <time>2021-04-27T16:10:25Z</time>
      </trkpt>
      <trkpt lat="47.29398" lon="6.06118">
        <ele>314.49</ele>
        <time>2021-04-27T16:10:26Z</time>
      </trkpt>
      <trkpt lat="47.29396" lon="6.06119">
        <ele>314.97</ele>
        <time>2021-04-27T16:10:27Z</time>
      </trkpt>
      <trkpt lat="47.29393" lon="6.0612">
        <ele>314.49</ele>
        <time>2021-04-27T16:10:28Z</time>
      </trkpt>
      <trkpt lat="47.29391" lon="6.0612">
        <ele>314.49</ele>
        <time>2021-04-27T16:10:29Z</time>
      </trkpt>
      <trkpt lat="47.2939" lon="6.06119">
        <ele>314.49</ele>
        <time>2021-04-27T16:10:30Z</time>
      </trkpt>
      <trkpt lat="47.29387" lon="6.06116">
        <ele>314.49</ele>
        <time>2021-04-27T16:10:31Z</time>
      </trkpt>
      <trkpt lat="47.29385" lon="6.06114">
        <ele>314.49</ele>
        <time>2021-04-27T16:10:32Z</time>
      </trkpt>
      <trkpt lat="47.29384" lon="6.06113">
        <ele>315.45</ele>
        <time>2021-04-27T16:10:33Z</time>
      </trkpt>
      <trkpt lat="47.29382" lon="6.06111">
        <ele>316.41</ele>
        <time>2021-04-27T16:10:34Z</time>
      </trkpt>
      <trkpt lat="47.2938" lon="6.0611">
        <ele>316.89</ele>
        <time>2021-04-27T16:10:35Z</time>
      </trkpt>
      <trkpt lat="47.29378" lon="6.06108">
        <ele>316.89</ele>
        <time>2021-04-27T16:10:36Z</time>
      </trkpt>
      <trkpt lat="47.29376" lon="6.06108">
        <ele>316.89</ele>
        <time>2021-04-27T16:10:37Z</time>
      </trkpt>
      <trkpt lat="47.29373" lon="6.06108">
        <ele>316.89</ele>
        <time>2021-04-27T16:10:38Z</time>
      </trkpt>
      <trkpt lat="47.2937" lon="6.06108">
        <ele>316.89</ele>
        <time>2021-04-27T16:10:39Z</time>
      </trkpt>
      <trkpt lat="47.29352" lon="6.06111">
        <ele>315.45</ele>
        <time>2021-04-27T16:10:43Z</time>
      </trkpt>
      <trkpt lat="47.29347" lon="6.06112">
        <ele>314.97</ele>
        <time>2021-04-27T16:10:44Z</time>
      </trkpt>
      <trkpt lat="47.29342" lon="6.06113">
        <ele>314.97</ele>
        <time>2021-04-27T16:10:45Z</time>
      </trkpt>
      <trkpt lat="47.29338" lon="6.06116">
        <ele>314.97</ele>
        <time>2021-04-27T16:10:46Z</time>
      </trkpt>
      <trkpt lat="47.29335" lon="6.06119">
        <ele>314.97</ele>
        <time>2021-04-27T16:10:47Z</time>
      </trkpt>
      <trkpt lat="47.29332" lon="6.0612">
        <ele>315.45</ele>
        <time>2021-04-27T16:10:48Z</time>
      </trkpt>
      <trkpt lat="47.2933" lon="6.0612">
        <ele>315.93</ele>
        <time>2021-04-27T16:10:49Z</time>
      </trkpt>
      <trkpt lat="47.29327" lon="6.06119">
        <ele>315.93</ele>
        <time>2021-04-27T16:10:50Z</time>
      </trkpt>
      <trkpt lat="47.29324" lon="6.06119">
        <ele>315.93</ele>
        <time>2021-04-27T16:10:51Z</time>
      </trkpt>
      <trkpt lat="47.2932" lon="6.06119">
        <ele>315.93</ele>
        <time>2021-04-27T16:10:52Z</time>
      </trkpt>
      <trkpt lat="47.29317" lon="6.06117">
        <ele>315.93</ele>
        <time>2021-04-27T16:10:53Z</time>
      </trkpt>
      <trkpt lat="47.29313" lon="6.06116">
        <ele>315.45</ele>
        <time>2021-04-27T16:10:54Z</time>
      </trkpt>
      <trkpt lat="47.29309" lon="6.06116">
        <ele>315.45</ele>
        <time>2021-04-27T16:10:55Z</time>
      </trkpt>
      <trkpt lat="47.29305" lon="6.06116">
        <ele>315.45</ele>
        <time>2021-04-27T16:10:56Z</time>
      </trkpt>
      <trkpt lat="47.29301" lon="6.06116">
        <ele>315.45</ele>
        <time>2021-04-27T16:10:57Z</time>
      </trkpt>
      <trkpt lat="47.29298" lon="6.06112">
        <ele>315.45</ele>
        <time>2021-04-27T16:10:58Z</time>
      </trkpt>
      <trkpt lat="47.29295" lon="6.06107">
        <ele>314.97</ele>
        <time>2021-04-27T16:10:59Z</time>
      </trkpt>
      <trkpt lat="47.29294" lon="6.06101">
        <ele>314.97</ele>
        <time>2021-04-27T16:11:00Z</time>
      </trkpt>
      <trkpt lat="47.29289" lon="6.06083">
        <ele>314.01</ele>
        <time>2021-04-27T16:11:03Z</time>
      </trkpt>
      <trkpt lat="47.29286" lon="6.06078">
        <ele>314.01</ele>
        <time>2021-04-27T16:11:04Z</time>
      </trkpt>
      <trkpt lat="47.29272" lon="6.06061">
        <ele>313.53</ele>
        <time>2021-04-27T16:11:08Z</time>
      </trkpt>
      <trkpt lat="47.29268" lon="6.06056">
        <ele>313.05</ele>
        <time>2021-04-27T16:11:09Z</time>
      </trkpt>
      <trkpt lat="47.29239" lon="6.06022">
        <ele>311.6</ele>
        <time>2021-04-27T16:11:16Z</time>
      </trkpt>
      <trkpt lat="47.29228" lon="6.06014">
        <ele>310.64</ele>
        <time>2021-04-27T16:11:18Z</time>
      </trkpt>
      <trkpt lat="47.29223" lon="6.0601">
        <ele>310.16</ele>
        <time>2021-04-27T16:11:19Z</time>
      </trkpt>
      <trkpt lat="47.29218" lon="6.06004">
        <ele>309.68</ele>
        <time>2021-04-27T16:11:20Z</time>
      </trkpt>
      <trkpt lat="47.29214" lon="6.05999">
        <ele>309.68</ele>
        <time>2021-04-27T16:11:21Z</time>
      </trkpt>
      <trkpt lat="47.2921" lon="6.05993">
        <ele>309.68</ele>
        <time>2021-04-27T16:11:22Z</time>
      </trkpt>
      <trkpt lat="47.29206" lon="6.05989">
        <ele>309.2</ele>
        <time>2021-04-27T16:11:23Z</time>
      </trkpt>
      <trkpt lat="47.29201" lon="6.05984">
        <ele>309.2</ele>
        <time>2021-04-27T16:11:24Z</time>
      </trkpt>
      <trkpt lat="47.29194" lon="6.05977">
        <ele>308.72</ele>
        <time>2021-04-27T16:11:26Z</time>
      </trkpt>
      <trkpt lat="47.29189" lon="6.05975">
        <ele>308.24</ele>
        <time>2021-04-27T16:11:27Z</time>
      </trkpt>
      <trkpt lat="47.29184" lon="6.05975">
        <ele>308.24</ele>
        <time>2021-04-27T16:11:28Z</time>
      </trkpt>
      <trkpt lat="47.29179" lon="6.05976">
        <ele>307.76</ele>
        <time>2021-04-27T16:11:29Z</time>
      </trkpt>
      <trkpt lat="47.29174" lon="6.05978">
        <ele>308.24</ele>
        <time>2021-04-27T16:11:30Z</time>
      </trkpt>
      <trkpt lat="47.29169" lon="6.05978">
        <ele>308.24</ele>
        <time>2021-04-27T16:11:31Z</time>
      </trkpt>
      <trkpt lat="47.29163" lon="6.05978">
        <ele>308.24</ele>
        <time>2021-04-27T16:11:32Z</time>
      </trkpt>
      <trkpt lat="47.29153" lon="6.05978">
        <ele>308.72</ele>
        <time>2021-04-27T16:11:34Z</time>
      </trkpt>
      <trkpt lat="47.29149" lon="6.05977">
        <ele>308.72</ele>
        <time>2021-04-27T16:11:35Z</time>
      </trkpt>
      <trkpt lat="47.29144" lon="6.05975">
        <ele>309.2</ele>
        <time>2021-04-27T16:11:36Z</time>
      </trkpt>
      <trkpt lat="47.2914" lon="6.05972">
        <ele>309.2</ele>
        <time>2021-04-27T16:11:37Z</time>
      </trkpt>
      <trkpt lat="47.29137" lon="6.05968">
        <ele>308.72</ele>
        <time>2021-04-27T16:11:38Z</time>
      </trkpt>
      <trkpt lat="47.29134" lon="6.05962">
        <ele>308.72</ele>
        <time>2021-04-27T16:11:39Z</time>
      </trkpt>
      <trkpt lat="47.29132" lon="6.05957">
        <ele>308.72</ele>
        <time>2021-04-27T16:11:40Z</time>
      </trkpt>
      <trkpt lat="47.29131" lon="6.0595">
        <ele>308.72</ele>
        <time>2021-04-27T16:11:41Z</time>
      </trkpt>
      <trkpt lat="47.2913" lon="6.05943">
        <ele>308.72</ele>
        <time>2021-04-27T16:11:42Z</time>
      </trkpt>
      <trkpt lat="47.29126" lon="6.05929">
        <ele>308.72</ele>
        <time>2021-04-27T16:11:44Z</time>
      </trkpt>
      <trkpt lat="47.29123" lon="6.05922">
        <ele>308.72</ele>
        <time>2021-04-27T16:11:45Z</time>
      </trkpt>
      <trkpt lat="47.29122" lon="6.05916">
        <ele>309.2</ele>
        <time>2021-04-27T16:11:46Z</time>
      </trkpt>
      <trkpt lat="47.2912" lon="6.0591">
        <ele>309.2</ele>
        <time>2021-04-27T16:11:47Z</time>
      </trkpt>
      <trkpt lat="47.2912" lon="6.05904">
        <ele>309.68</ele>
        <time>2021-04-27T16:11:48Z</time>
      </trkpt>
      <trkpt lat="47.29118" lon="6.05899">
        <ele>309.68</ele>
        <time>2021-04-27T16:11:49Z</time>
      </trkpt>
      <trkpt lat="47.29116" lon="6.05895">
        <ele>310.16</ele>
        <time>2021-04-27T16:11:50Z</time>
      </trkpt>
      <trkpt lat="47.29102" lon="6.05879">
        <ele>309.68</ele>
        <time>2021-04-27T16:11:55Z</time>
      </trkpt>
      <trkpt lat="47.29097" lon="6.05875">
        <ele>309.68</ele>
        <time>2021-04-27T16:11:56Z</time>
      </trkpt>
      <trkpt lat="47.29092" lon="6.05871">
        <ele>309.68</ele>
        <time>2021-04-27T16:11:57Z</time>
      </trkpt>
      <trkpt lat="47.29087" lon="6.05868">
        <ele>309.2</ele>
        <time>2021-04-27T16:11:58Z</time>
      </trkpt>
      <trkpt lat="47.29081" lon="6.05865">
        <ele>309.2</ele>
        <time>2021-04-27T16:11:59Z</time>
      </trkpt>
      <trkpt lat="47.29076" lon="6.05862">
        <ele>309.2</ele>
        <time>2021-04-27T16:12:00Z</time>
      </trkpt>
      <trkpt lat="47.29072" lon="6.05858">
        <ele>309.2</ele>
        <time>2021-04-27T16:12:01Z</time>
      </trkpt>
      <trkpt lat="47.29069" lon="6.05854">
        <ele>309.2</ele>
        <time>2021-04-27T16:12:02Z</time>
      </trkpt>
      <trkpt lat="47.29068" lon="6.05849">
        <ele>308.72</ele>
        <time>2021-04-27T16:12:03Z</time>
      </trkpt>
      <trkpt lat="47.29066" lon="6.05846">
        <ele>309.2</ele>
        <time>2021-04-27T16:12:04Z</time>
      </trkpt>
      <trkpt lat="47.29064" lon="6.05844">
        <ele>308.72</ele>
        <time>2021-04-27T16:12:05Z</time>
      </trkpt>
      <trkpt lat="47.29062" lon="6.05843">
        <ele>308.72</ele>
        <time>2021-04-27T16:12:06Z</time>
      </trkpt>
      <trkpt lat="47.29059" lon="6.05841">
        <ele>308.72</ele>
        <time>2021-04-27T16:12:07Z</time>
      </trkpt>
      <trkpt lat="47.29057" lon="6.05838">
        <ele>308.72</ele>
        <time>2021-04-27T16:12:08Z</time>
      </trkpt>
      <trkpt lat="47.2903" lon="6.05808">
        <ele>309.2</ele>
        <time>2021-04-27T16:12:18Z</time>
      </trkpt>
      <trkpt lat="47.29002" lon="6.05797">
        <ele>308.24</ele>
        <time>2021-04-27T16:12:25Z</time>
      </trkpt>
      <trkpt lat="47.28992" lon="6.05794">
        <ele>307.76</ele>
        <time>2021-04-27T16:12:27Z</time>
      </trkpt>
      <trkpt lat="47.28987" lon="6.05793">
        <ele>307.28</ele>
        <time>2021-04-27T16:12:28Z</time>
      </trkpt>
      <trkpt lat="47.28981" lon="6.05793">
        <ele>307.28</ele>
        <time>2021-04-27T16:12:29Z</time>
      </trkpt>
      <trkpt lat="47.28973" lon="6.05791">
        <ele>307.28</ele>
        <time>2021-04-27T16:12:31Z</time>
      </trkpt>
      <trkpt lat="47.2897" lon="6.05788">
        <ele>307.76</ele>
        <time>2021-04-27T16:12:32Z</time>
      </trkpt>
      <trkpt lat="47.28946" lon="6.05771">
        <ele>308.24</ele>
        <time>2021-04-27T16:12:39Z</time>
      </trkpt>
      <trkpt lat="47.28943" lon="6.0577">
        <ele>308.24</ele>
        <time>2021-04-27T16:12:40Z</time>
      </trkpt>
      <trkpt lat="47.2894" lon="6.05769">
        <ele>308.24</ele>
        <time>2021-04-27T16:12:41Z</time>
      </trkpt>
      <trkpt lat="47.28937" lon="6.05767">
        <ele>308.24</ele>
        <time>2021-04-27T16:12:42Z</time>
      </trkpt>
      <trkpt lat="47.28934" lon="6.05766">
        <ele>308.24</ele>
        <time>2021-04-27T16:12:43Z</time>
      </trkpt>
      <trkpt lat="47.2892" lon="6.05757">
        <ele>307.76</ele>
        <time>2021-04-27T16:12:48Z</time>
      </trkpt>
      <trkpt lat="47.28919" lon="6.05756">
        <ele>307.76</ele>
        <time>2021-04-27T16:12:49Z</time>
      </trkpt>
      <trkpt lat="47.28918" lon="6.05755">
        <ele>307.76</ele>
        <time>2021-04-27T16:12:50Z</time>
      </trkpt>
      <trkpt lat="47.28916" lon="6.05754">
        <ele>306.8</ele>
        <time>2021-04-27T16:13:05Z</time>
      </trkpt>
      <trkpt lat="47.28913" lon="6.05755">
        <ele>306.8</ele>
        <time>2021-04-27T16:13:42Z</time>
      </trkpt>
      <trkpt lat="47.28915" lon="6.05753">
        <ele>307.28</ele>
        <time>2021-04-27T16:14:15Z</time>
      </trkpt>
      <trkpt lat="47.28909" lon="6.05752">
        <ele>307.76</ele>
        <time>2021-04-27T16:14:46Z</time>
      </trkpt>
      <trkpt lat="47.28887" lon="6.05738">
        <ele>306.8</ele>
        <time>2021-04-27T16:14:54Z</time>
      </trkpt>
      <trkpt lat="47.28883" lon="6.05736">
        <ele>306.32</ele>
        <time>2021-04-27T16:14:55Z</time>
      </trkpt>
      <trkpt lat="47.28879" lon="6.05732">
        <ele>306.32</ele>
        <time>2021-04-27T16:14:56Z</time>
      </trkpt>
      <trkpt lat="47.28876" lon="6.05728">
        <ele>305.84</ele>
        <time>2021-04-27T16:14:57Z</time>
      </trkpt>
      <trkpt lat="47.28873" lon="6.05724">
        <ele>305.84</ele>
        <time>2021-04-27T16:14:58Z</time>
      </trkpt>
      <trkpt lat="47.28869" lon="6.0572">
        <ele>305.84</ele>
        <time>2021-04-27T16:14:59Z</time>
      </trkpt>
      <trkpt lat="47.28866" lon="6.05718">
        <ele>305.84</ele>
        <time>2021-04-27T16:15:00Z</time>
      </trkpt>
      <trkpt lat="47.28862" lon="6.05716">
        <ele>305.84</ele>
        <time>2021-04-27T16:15:01Z</time>
      </trkpt>
      <trkpt lat="47.28858" lon="6.05714">
        <ele>305.36</ele>
        <time>2021-04-27T16:15:02Z</time>
      </trkpt>
      <trkpt lat="47.28855" lon="6.05714">
        <ele>305.36</ele>
        <time>2021-04-27T16:15:03Z</time>
      </trkpt>
      <trkpt lat="47.28851" lon="6.05715">
        <ele>305.36</ele>
        <time>2021-04-27T16:15:04Z</time>
      </trkpt>
      <trkpt lat="47.28846" lon="6.05716">
        <ele>304.88</ele>
        <time>2021-04-27T16:15:05Z</time>
      </trkpt>
      <trkpt lat="47.28836" lon="6.05717">
        <ele>304.39</ele>
        <time>2021-04-27T16:15:07Z</time>
      </trkpt>
      <trkpt lat="47.28831" lon="6.05719">
        <ele>304.39</ele>
        <time>2021-04-27T16:15:08Z</time>
      </trkpt>
      <trkpt lat="47.28815" lon="6.05727">
        <ele>303.91</ele>
        <time>2021-04-27T16:15:11Z</time>
      </trkpt>
      <trkpt lat="47.28811" lon="6.05732">
        <ele>303.91</ele>
        <time>2021-04-27T16:15:12Z</time>
      </trkpt>
      <trkpt lat="47.28809" lon="6.05739">
        <ele>303.91</ele>
        <time>2021-04-27T16:15:13Z</time>
      </trkpt>
      <trkpt lat="47.28805" lon="6.05756">
        <ele>303.43</ele>
        <time>2021-04-27T16:15:15Z</time>
      </trkpt>
      <trkpt lat="47.28802" lon="6.05763">
        <ele>303.43</ele>
        <time>2021-04-27T16:15:16Z</time>
      </trkpt>
      <trkpt lat="47.28799" lon="6.05768">
        <ele>303.43</ele>
        <time>2021-04-27T16:15:17Z</time>
      </trkpt>
      <trkpt lat="47.28796" lon="6.05773">
        <ele>303.91</ele>
        <time>2021-04-27T16:15:18Z</time>
      </trkpt>
      <trkpt lat="47.28793" lon="6.05777">
        <ele>304.39</ele>
        <time>2021-04-27T16:15:19Z</time>
      </trkpt>
      <trkpt lat="47.28791" lon="6.05783">
        <ele>305.36</ele>
        <time>2021-04-27T16:15:20Z</time>
      </trkpt>
      <trkpt lat="47.28789" lon="6.05789">
        <ele>305.84</ele>
        <time>2021-04-27T16:15:21Z</time>
      </trkpt>
      <trkpt lat="47.28787" lon="6.05796">
        <ele>306.32</ele>
        <time>2021-04-27T16:15:22Z</time>
      </trkpt>
      <trkpt lat="47.28785" lon="6.05802">
        <ele>306.8</ele>
        <time>2021-04-27T16:15:23Z</time>
      </trkpt>
      <trkpt lat="47.28782" lon="6.05808">
        <ele>307.28</ele>
        <time>2021-04-27T16:15:24Z</time>
      </trkpt>
      <trkpt lat="47.28778" lon="6.05813">
        <ele>307.76</ele>
        <time>2021-04-27T16:15:25Z</time>
      </trkpt>
      <trkpt lat="47.28774" lon="6.05817">
        <ele>308.24</ele>
        <time>2021-04-27T16:15:26Z</time>
      </trkpt>
      <trkpt lat="47.2877" lon="6.05819">
        <ele>308.24</ele>
        <time>2021-04-27T16:15:27Z</time>
      </trkpt>
      <trkpt lat="47.28766" lon="6.05821">
        <ele>308.72</ele>
        <time>2021-04-27T16:15:28Z</time>
      </trkpt>
      <trkpt lat="47.28743" lon="6.0583">
        <ele>310.64</ele>
        <time>2021-04-27T16:15:33Z</time>
      </trkpt>
      <trkpt lat="47.28721" lon="6.05836">
        <ele>312.57</ele>
        <time>2021-04-27T16:15:38Z</time>
      </trkpt>
      <trkpt lat="47.28717" lon="6.05838">
        <ele>313.05</ele>
        <time>2021-04-27T16:15:39Z</time>
      </trkpt>
      <trkpt lat="47.28713" lon="6.05841">
        <ele>313.53</ele>
        <time>2021-04-27T16:15:40Z</time>
      </trkpt>
      <trkpt lat="47.28709" lon="6.05844">
        <ele>314.01</ele>
        <time>2021-04-27T16:15:41Z</time>
      </trkpt>
      <trkpt lat="47.28706" lon="6.05848">
        <ele>314.01</ele>
        <time>2021-04-27T16:15:42Z</time>
      </trkpt>
      <trkpt lat="47.28667" lon="6.059">
        <ele>315.45</ele>
        <time>2021-04-27T16:15:55Z</time>
      </trkpt>
      <trkpt lat="47.28641" lon="6.05921">
        <ele>315.93</ele>
        <time>2021-04-27T16:16:03Z</time>
      </trkpt>
      <trkpt lat="47.28624" lon="6.05934">
        <ele>316.89</ele>
        <time>2021-04-27T16:16:08Z</time>
      </trkpt>
      <trkpt lat="47.28594" lon="6.05979">
        <ele>318.81</ele>
        <time>2021-04-27T16:16:19Z</time>
      </trkpt>
      <trkpt lat="47.28573" lon="6.06001">
        <ele>319.78</ele>
        <time>2021-04-27T16:16:26Z</time>
      </trkpt>
      <trkpt lat="47.28556" lon="6.05981">
        <ele>321.22</ele>
        <time>2021-04-27T16:16:33Z</time>
      </trkpt>
      <trkpt lat="47.28552" lon="6.05979">
        <ele>321.22</ele>
        <time>2021-04-27T16:16:34Z</time>
      </trkpt>
      <trkpt lat="47.28532" lon="6.05956">
        <ele>323.62</ele>
        <time>2021-04-27T16:16:43Z</time>
      </trkpt>
      <trkpt lat="47.28494" lon="6.05928">
        <ele>325.54</ele>
        <time>2021-04-27T16:16:54Z</time>
      </trkpt>
      <trkpt lat="47.28477" lon="6.05913">
        <ele>326.99</ele>
        <time>2021-04-27T16:17:00Z</time>
      </trkpt>
      <trkpt lat="47.28468" lon="6.05903">
        <ele>327.95</ele>
        <time>2021-04-27T16:17:04Z</time>
      </trkpt>
      <trkpt lat="47.28465" lon="6.05896">
        <ele>327.95</ele>
        <time>2021-04-27T16:17:06Z</time>
      </trkpt>
      <trkpt lat="47.28455" lon="6.05884">
        <ele>329.39</ele>
        <time>2021-04-27T16:17:11Z</time>
      </trkpt>
      <trkpt lat="47.28447" lon="6.05874">
        <ele>329.87</ele>
        <time>2021-04-27T16:17:15Z</time>
      </trkpt>
      <trkpt lat="47.28439" lon="6.05864">
        <ele>330.83</ele>
        <time>2021-04-27T16:17:19Z</time>
      </trkpt>
      <trkpt lat="47.28407" lon="6.05843">
        <ele>332.75</ele>
        <time>2021-04-27T16:17:32Z</time>
      </trkpt>
      <trkpt lat="47.28391" lon="6.05844">
        <ele>333.71</ele>
        <time>2021-04-27T16:17:37Z</time>
      </trkpt>
      <trkpt lat="47.2838" lon="6.05851">
        <ele>333.71</ele>
        <time>2021-04-27T16:17:42Z</time>
      </trkpt>
      <trkpt lat="47.28341" lon="6.05865">
        <ele>334.68</ele>
        <time>2021-04-27T16:17:54Z</time>
      </trkpt>
      <trkpt lat="47.28298" lon="6.0586">
        <ele>335.64</ele>
        <time>2021-04-27T16:18:05Z</time>
      </trkpt>
      <trkpt lat="47.28289" lon="6.05858">
        <ele>335.64</ele>
        <time>2021-04-27T16:18:07Z</time>
      </trkpt>
      <trkpt lat="47.28272" lon="6.05853">
        <ele>335.64</ele>
        <time>2021-04-27T16:18:11Z</time>
      </trkpt>
      <trkpt lat="47.28263" lon="6.05853">
        <ele>335.64</ele>
        <time>2021-04-27T16:18:13Z</time>
      </trkpt>
      <trkpt lat="47.28238" lon="6.05857">
        <ele>335.64</ele>
        <time>2021-04-27T16:18:18Z</time>
      </trkpt>
      <trkpt lat="47.28234" lon="6.05858">
        <ele>335.64</ele>
        <time>2021-04-27T16:18:19Z</time>
      </trkpt>
      <trkpt lat="47.28229" lon="6.0586">
        <ele>335.16</ele>
        <time>2021-04-27T16:18:20Z</time>
      </trkpt>
      <trkpt lat="47.28225" lon="6.05861">
        <ele>335.16</ele>
        <time>2021-04-27T16:18:21Z</time>
      </trkpt>
      <trkpt lat="47.2822" lon="6.05863">
        <ele>335.16</ele>
        <time>2021-04-27T16:18:22Z</time>
      </trkpt>
      <trkpt lat="47.28215" lon="6.05865">
        <ele>335.16</ele>
        <time>2021-04-27T16:18:23Z</time>
      </trkpt>
      <trkpt lat="47.28211" lon="6.05865">
        <ele>335.16</ele>
        <time>2021-04-27T16:18:24Z</time>
      </trkpt>
      <trkpt lat="47.28206" lon="6.05866">
        <ele>335.16</ele>
        <time>2021-04-27T16:18:25Z</time>
      </trkpt>
      <trkpt lat="47.28198" lon="6.05867">
        <ele>335.16</ele>
        <time>2021-04-27T16:18:27Z</time>
      </trkpt>
      <trkpt lat="47.28183" lon="6.05869">
        <ele>335.16</ele>
        <time>2021-04-27T16:18:30Z</time>
      </trkpt>
      <trkpt lat="47.28178" lon="6.05869">
        <ele>335.16</ele>
        <time>2021-04-27T16:18:31Z</time>
      </trkpt>
      <trkpt lat="47.28173" lon="6.0587">
        <ele>335.16</ele>
        <time>2021-04-27T16:18:32Z</time>
      </trkpt>
      <trkpt lat="47.28149" lon="6.05865">
        <ele>335.64</ele>
        <time>2021-04-27T16:18:37Z</time>
      </trkpt>
      <trkpt lat="47.28144" lon="6.05864">
        <ele>335.64</ele>
        <time>2021-04-27T16:18:38Z</time>
      </trkpt>
      <trkpt lat="47.28129" lon="6.05862">
        <ele>336.12</ele>
        <time>2021-04-27T16:18:41Z</time>
      </trkpt>
      <trkpt lat="47.28124" lon="6.0586">
        <ele>336.12</ele>
        <time>2021-04-27T16:18:42Z</time>
      </trkpt>
      <trkpt lat="47.28104" lon="6.05848">
        <ele>335.16</ele>
        <time>2021-04-27T16:18:46Z</time>
      </trkpt>
      <trkpt lat="47.281" lon="6.05843">
        <ele>335.16</ele>
        <time>2021-04-27T16:18:47Z</time>
      </trkpt>
      <trkpt lat="47.28096" lon="6.05838">
        <ele>335.16</ele>
        <time>2021-04-27T16:18:48Z</time>
      </trkpt>
      <trkpt lat="47.28072" lon="6.0578">
        <ele>335.16</ele>
        <time>2021-04-27T16:18:57Z</time>
      </trkpt>
      <trkpt lat="47.28067" lon="6.05769">
        <ele>335.16</ele>
        <time>2021-04-27T16:18:59Z</time>
      </trkpt>
      <trkpt lat="47.28063" lon="6.05764">
        <ele>335.16</ele>
        <time>2021-04-27T16:19:00Z</time>
      </trkpt>
      <trkpt lat="47.28059" lon="6.05759">
        <ele>335.16</ele>
        <time>2021-04-27T16:19:01Z</time>
      </trkpt>
      <trkpt lat="47.28054" lon="6.05756">
        <ele>335.16</ele>
        <time>2021-04-27T16:19:02Z</time>
      </trkpt>
      <trkpt lat="47.28049" lon="6.05753">
        <ele>335.16</ele>
        <time>2021-04-27T16:19:03Z</time>
      </trkpt>
      <trkpt lat="47.28045" lon="6.05751">
        <ele>334.68</ele>
        <time>2021-04-27T16:19:04Z</time>
      </trkpt>
      <trkpt lat="47.2804" lon="6.05748">
        <ele>334.68</ele>
        <time>2021-04-27T16:19:05Z</time>
      </trkpt>
      <trkpt lat="47.28035" lon="6.05745">
        <ele>334.68</ele>
        <time>2021-04-27T16:19:06Z</time>
      </trkpt>
      <trkpt lat="47.28029" lon="6.05741">
        <ele>334.2</ele>
        <time>2021-04-27T16:19:07Z</time>
      </trkpt>
      <trkpt lat="47.2801" lon="6.05721">
        <ele>333.23</ele>
        <time>2021-04-27T16:19:11Z</time>
      </trkpt>
      <trkpt lat="47.28" lon="6.05709">
        <ele>332.75</ele>
        <time>2021-04-27T16:19:13Z</time>
      </trkpt>
      <trkpt lat="47.27995" lon="6.05705">
        <ele>332.75</ele>
        <time>2021-04-27T16:19:14Z</time>
      </trkpt>
      <trkpt lat="47.27985" lon="6.05696">
        <ele>332.27</ele>
        <time>2021-04-27T16:19:16Z</time>
      </trkpt>
      <trkpt lat="47.2798" lon="6.05691">
        <ele>332.27</ele>
        <time>2021-04-27T16:19:17Z</time>
      </trkpt>
      <trkpt lat="47.27975" lon="6.05686">
        <ele>332.27</ele>
        <time>2021-04-27T16:19:18Z</time>
      </trkpt>
      <trkpt lat="47.2796" lon="6.05672">
        <ele>331.31</ele>
        <time>2021-04-27T16:19:21Z</time>
      </trkpt>
      <trkpt lat="47.2794" lon="6.05649">
        <ele>330.35</ele>
        <time>2021-04-27T16:19:25Z</time>
      </trkpt>
      <trkpt lat="47.27926" lon="6.05629">
        <ele>330.35</ele>
        <time>2021-04-27T16:19:28Z</time>
      </trkpt>
      <trkpt lat="47.2792" lon="6.05624">
        <ele>330.35</ele>
        <time>2021-04-27T16:19:29Z</time>
      </trkpt>
      <trkpt lat="47.27915" lon="6.05619">
        <ele>329.87</ele>
        <time>2021-04-27T16:19:30Z</time>
      </trkpt>
      <trkpt lat="47.27903" lon="6.05608">
        <ele>329.39</ele>
        <time>2021-04-27T16:19:32Z</time>
      </trkpt>
      <trkpt lat="47.27898" lon="6.05604">
        <ele>329.39</ele>
        <time>2021-04-27T16:19:33Z</time>
      </trkpt>
      <trkpt lat="47.27892" lon="6.05599">
        <ele>328.91</ele>
        <time>2021-04-27T16:19:34Z</time>
      </trkpt>
      <trkpt lat="47.27887" lon="6.05594">
        <ele>328.91</ele>
        <time>2021-04-27T16:19:35Z</time>
      </trkpt>
      <trkpt lat="47.27882" lon="6.05588">
        <ele>328.91</ele>
        <time>2021-04-27T16:19:36Z</time>
      </trkpt>
      <trkpt lat="47.27876" lon="6.05581">
        <ele>328.43</ele>
        <time>2021-04-27T16:19:37Z</time>
      </trkpt>
      <trkpt lat="47.27872" lon="6.05575">
        <ele>328.43</ele>
        <time>2021-04-27T16:19:38Z</time>
      </trkpt>
      <trkpt lat="47.27867" lon="6.05571">
        <ele>328.43</ele>
        <time>2021-04-27T16:19:39Z</time>
      </trkpt>
      <trkpt lat="47.27862" lon="6.05567">
        <ele>328.43</ele>
        <time>2021-04-27T16:19:40Z</time>
      </trkpt>
      <trkpt lat="47.27857" lon="6.05565">
        <ele>328.43</ele>
        <time>2021-04-27T16:19:41Z</time>
      </trkpt>
      <trkpt lat="47.27852" lon="6.05563">
        <ele>328.43</ele>
        <time>2021-04-27T16:19:42Z</time>
      </trkpt>
      <trkpt lat="47.27848" lon="6.0556">
        <ele>328.43</ele>
        <time>2021-04-27T16:19:43Z</time>
      </trkpt>
      <trkpt lat="47.27843" lon="6.05556">
        <ele>328.43</ele>
        <time>2021-04-27T16:19:44Z</time>
      </trkpt>
      <trkpt lat="47.27838" lon="6.05553">
        <ele>327.95</ele>
        <time>2021-04-27T16:19:45Z</time>
      </trkpt>
      <trkpt lat="47.27833" lon="6.05549">
        <ele>327.95</ele>
        <time>2021-04-27T16:19:46Z</time>
      </trkpt>
      <trkpt lat="47.27823" lon="6.05544">
        <ele>327.95</ele>
        <time>2021-04-27T16:19:48Z</time>
      </trkpt>
      <trkpt lat="47.27818" lon="6.0554">
        <ele>327.95</ele>
        <time>2021-04-27T16:19:49Z</time>
      </trkpt>
      <trkpt lat="47.27814" lon="6.05535">
        <ele>327.95</ele>
        <time>2021-04-27T16:19:50Z</time>
      </trkpt>
      <trkpt lat="47.27808" lon="6.05526">
        <ele>328.43</ele>
        <time>2021-04-27T16:19:52Z</time>
      </trkpt>
      <trkpt lat="47.27805" lon="6.0552">
        <ele>328.43</ele>
        <time>2021-04-27T16:19:53Z</time>
      </trkpt>
      <trkpt lat="47.27803" lon="6.05516">
        <ele>328.91</ele>
        <time>2021-04-27T16:19:54Z</time>
      </trkpt>
      <trkpt lat="47.278" lon="6.05512">
        <ele>328.91</ele>
        <time>2021-04-27T16:19:55Z</time>
      </trkpt>
      <trkpt lat="47.27798" lon="6.05507">
        <ele>329.39</ele>
        <time>2021-04-27T16:19:56Z</time>
      </trkpt>
      <trkpt lat="47.27773" lon="6.05438">
        <ele>331.31</ele>
        <time>2021-04-27T16:20:09Z</time>
      </trkpt>
      <trkpt lat="47.2777" lon="6.05433">
        <ele>331.31</ele>
        <time>2021-04-27T16:20:10Z</time>
      </trkpt>
      <trkpt lat="47.27768" lon="6.05428">
        <ele>330.83</ele>
        <time>2021-04-27T16:20:11Z</time>
      </trkpt>
      <trkpt lat="47.27765" lon="6.05424">
        <ele>330.83</ele>
        <time>2021-04-27T16:20:12Z</time>
      </trkpt>
      <trkpt lat="47.27762" lon="6.0542">
        <ele>330.83</ele>
        <time>2021-04-27T16:20:13Z</time>
      </trkpt>
      <trkpt lat="47.2776" lon="6.05415">
        <ele>330.83</ele>
        <time>2021-04-27T16:20:14Z</time>
      </trkpt>
      <trkpt lat="47.27758" lon="6.05409">
        <ele>330.35</ele>
        <time>2021-04-27T16:20:15Z</time>
      </trkpt>
      <trkpt lat="47.27757" lon="6.05402">
        <ele>330.35</ele>
        <time>2021-04-27T16:20:16Z</time>
      </trkpt>
      <trkpt lat="47.27757" lon="6.05394">
        <ele>329.87</ele>
        <time>2021-04-27T16:20:17Z</time>
      </trkpt>
      <trkpt lat="47.27756" lon="6.05386">
        <ele>329.87</ele>
        <time>2021-04-27T16:20:18Z</time>
      </trkpt>
      <trkpt lat="47.27754" lon="6.05379">
        <ele>329.39</ele>
        <time>2021-04-27T16:20:19Z</time>
      </trkpt>
      <trkpt lat="47.27749" lon="6.05366">
        <ele>328.91</ele>
        <time>2021-04-27T16:20:21Z</time>
      </trkpt>
      <trkpt lat="47.27737" lon="6.05343">
        <ele>327.47</ele>
        <time>2021-04-27T16:20:24Z</time>
      </trkpt>
      <trkpt lat="47.27732" lon="6.05336">
        <ele>326.99</ele>
        <time>2021-04-27T16:20:25Z</time>
      </trkpt>
      <trkpt lat="47.27726" lon="6.05331">
        <ele>326.99</ele>
        <time>2021-04-27T16:20:26Z</time>
      </trkpt>
      <trkpt lat="47.27722" lon="6.05326">
        <ele>326.99</ele>
        <time>2021-04-27T16:20:27Z</time>
      </trkpt>
      <trkpt lat="47.27717" lon="6.05318">
        <ele>326.99</ele>
        <time>2021-04-27T16:20:28Z</time>
      </trkpt>
      <trkpt lat="47.27712" lon="6.0531">
        <ele>326.99</ele>
        <time>2021-04-27T16:20:29Z</time>
      </trkpt>
      <trkpt lat="47.27708" lon="6.05301">
        <ele>326.5</ele>
        <time>2021-04-27T16:20:30Z</time>
      </trkpt>
      <trkpt lat="47.27705" lon="6.05292">
        <ele>326.5</ele>
        <time>2021-04-27T16:20:31Z</time>
      </trkpt>
      <trkpt lat="47.27703" lon="6.05284">
        <ele>326.5</ele>
        <time>2021-04-27T16:20:32Z</time>
      </trkpt>
      <trkpt lat="47.27702" lon="6.05276">
        <ele>326.5</ele>
        <time>2021-04-27T16:20:33Z</time>
      </trkpt>
      <trkpt lat="47.27699" lon="6.0525">
        <ele>326.99</ele>
        <time>2021-04-27T16:20:36Z</time>
      </trkpt>
      <trkpt lat="47.27697" lon="6.05244">
        <ele>326.99</ele>
        <time>2021-04-27T16:20:37Z</time>
      </trkpt>
      <trkpt lat="47.27693" lon="6.05237">
        <ele>326.99</ele>
        <time>2021-04-27T16:20:38Z</time>
      </trkpt>
      <trkpt lat="47.27689" lon="6.05231">
        <ele>326.99</ele>
        <time>2021-04-27T16:20:39Z</time>
      </trkpt>
      <trkpt lat="47.27685" lon="6.05225">
        <ele>326.99</ele>
        <time>2021-04-27T16:20:40Z</time>
      </trkpt>
      <trkpt lat="47.27682" lon="6.05219">
        <ele>327.47</ele>
        <time>2021-04-27T16:20:41Z</time>
      </trkpt>
      <trkpt lat="47.27677" lon="6.05214">
        <ele>327.95</ele>
        <time>2021-04-27T16:20:42Z</time>
      </trkpt>
      <trkpt lat="47.27673" lon="6.05209">
        <ele>327.95</ele>
        <time>2021-04-27T16:20:43Z</time>
      </trkpt>
      <trkpt lat="47.27669" lon="6.05205">
        <ele>328.43</ele>
        <time>2021-04-27T16:20:44Z</time>
      </trkpt>
      <trkpt lat="47.27665" lon="6.05202">
        <ele>328.43</ele>
        <time>2021-04-27T16:20:45Z</time>
      </trkpt>
      <trkpt lat="47.2766" lon="6.05199">
        <ele>328.43</ele>
        <time>2021-04-27T16:20:46Z</time>
      </trkpt>
      <trkpt lat="47.27656" lon="6.05197">
        <ele>328.43</ele>
        <time>2021-04-27T16:20:47Z</time>
      </trkpt>
      <trkpt lat="47.27651" lon="6.05197">
        <ele>328.43</ele>
        <time>2021-04-27T16:20:48Z</time>
      </trkpt>
      <trkpt lat="47.27646" lon="6.05197">
        <ele>328.43</ele>
        <time>2021-04-27T16:20:49Z</time>
      </trkpt>
      <trkpt lat="47.27641" lon="6.052">
        <ele>328.43</ele>
        <time>2021-04-27T16:20:50Z</time>
      </trkpt>
      <trkpt lat="47.27615" lon="6.05215">
        <ele>329.39</ele>
        <time>2021-04-27T16:20:57Z</time>
      </trkpt>
      <trkpt lat="47.27612" lon="6.05214">
        <ele>329.39</ele>
        <time>2021-04-27T16:20:58Z</time>
      </trkpt>
      <trkpt lat="47.27609" lon="6.05211">
        <ele>329.87</ele>
        <time>2021-04-27T16:20:59Z</time>
      </trkpt>
      <trkpt lat="47.27606" lon="6.05208">
        <ele>329.87</ele>
        <time>2021-04-27T16:21:00Z</time>
      </trkpt>
      <trkpt lat="47.27604" lon="6.05204">
        <ele>330.35</ele>
        <time>2021-04-27T16:21:01Z</time>
      </trkpt>
      <trkpt lat="47.27601" lon="6.05199">
        <ele>330.35</ele>
        <time>2021-04-27T16:21:02Z</time>
      </trkpt>
      <trkpt lat="47.27596" lon="6.05184">
        <ele>330.35</ele>
        <time>2021-04-27T16:21:05Z</time>
      </trkpt>
      <trkpt lat="47.27591" lon="6.05176">
        <ele>330.35</ele>
        <time>2021-04-27T16:21:07Z</time>
      </trkpt>
      <trkpt lat="47.27571" lon="6.05145">
        <ele>330.35</ele>
        <time>2021-04-27T16:21:15Z</time>
      </trkpt>
      <trkpt lat="47.27571" lon="6.05139">
        <ele>329.87</ele>
        <time>2021-04-27T16:21:16Z</time>
      </trkpt>
      <trkpt lat="47.2757" lon="6.05133">
        <ele>329.87</ele>
        <time>2021-04-27T16:21:17Z</time>
      </trkpt>
      <trkpt lat="47.2757" lon="6.05127">
        <ele>329.39</ele>
        <time>2021-04-27T16:21:18Z</time>
      </trkpt>
      <trkpt lat="47.27571" lon="6.05121">
        <ele>328.91</ele>
        <time>2021-04-27T16:21:19Z</time>
      </trkpt>
      <trkpt lat="47.27573" lon="6.05115">
        <ele>329.39</ele>
        <time>2021-04-27T16:21:20Z</time>
      </trkpt>
      <trkpt lat="47.27576" lon="6.0511">
        <ele>328.43</ele>
        <time>2021-04-27T16:21:21Z</time>
      </trkpt>
      <trkpt lat="47.27579" lon="6.05104">
        <ele>327.95</ele>
        <time>2021-04-27T16:21:22Z</time>
      </trkpt>
      <trkpt lat="47.27582" lon="6.05097">
        <ele>327.47</ele>
        <time>2021-04-27T16:21:23Z</time>
      </trkpt>
      <trkpt lat="47.27584" lon="6.05088">
        <ele>326.99</ele>
        <time>2021-04-27T16:21:24Z</time>
      </trkpt>
      <trkpt lat="47.27592" lon="6.05055">
        <ele>325.54</ele>
        <time>2021-04-27T16:21:27Z</time>
      </trkpt>
      <trkpt lat="47.27595" lon="6.05046">
        <ele>325.54</ele>
        <time>2021-04-27T16:21:28Z</time>
      </trkpt>
      <trkpt lat="47.27603" lon="6.05024">
        <ele>326.5</ele>
        <time>2021-04-27T16:21:31Z</time>
      </trkpt>
      <trkpt lat="47.27604" lon="6.05017">
        <ele>326.99</ele>
        <time>2021-04-27T16:21:32Z</time>
      </trkpt>
      <trkpt lat="47.27605" lon="6.05011">
        <ele>326.99</ele>
        <time>2021-04-27T16:21:33Z</time>
      </trkpt>
      <trkpt lat="47.27604" lon="6.04985">
        <ele>327.47</ele>
        <time>2021-04-27T16:21:37Z</time>
      </trkpt>
      <trkpt lat="47.27601" lon="6.04965">
        <ele>327.47</ele>
        <time>2021-04-27T16:21:40Z</time>
      </trkpt>
      <trkpt lat="47.27599" lon="6.04958">
        <ele>327.95</ele>
        <time>2021-04-27T16:21:41Z</time>
      </trkpt>
      <trkpt lat="47.27597" lon="6.04951">
        <ele>327.95</ele>
        <time>2021-04-27T16:21:42Z</time>
      </trkpt>
      <trkpt lat="47.27587" lon="6.04922">
        <ele>329.39</ele>
        <time>2021-04-27T16:21:47Z</time>
      </trkpt>
      <trkpt lat="47.27585" lon="6.04915">
        <ele>329.39</ele>
        <time>2021-04-27T16:21:48Z</time>
      </trkpt>
      <trkpt lat="47.27583" lon="6.04908">
        <ele>329.87</ele>
        <time>2021-04-27T16:21:49Z</time>
      </trkpt>
      <trkpt lat="47.27582" lon="6.04902">
        <ele>329.87</ele>
        <time>2021-04-27T16:21:50Z</time>
      </trkpt>
      <trkpt lat="47.27581" lon="6.04896">
        <ele>330.35</ele>
        <time>2021-04-27T16:21:51Z</time>
      </trkpt>
      <trkpt lat="47.27581" lon="6.04889">
        <ele>330.83</ele>
        <time>2021-04-27T16:21:52Z</time>
      </trkpt>
      <trkpt lat="47.2758" lon="6.04884">
        <ele>331.31</ele>
        <time>2021-04-27T16:21:53Z</time>
      </trkpt>
      <trkpt lat="47.27579" lon="6.04878">
        <ele>331.79</ele>
        <time>2021-04-27T16:21:54Z</time>
      </trkpt>
      <trkpt lat="47.27579" lon="6.04873">
        <ele>331.79</ele>
        <time>2021-04-27T16:21:55Z</time>
      </trkpt>
      <trkpt lat="47.27575" lon="6.04841">
        <ele>332.75</ele>
        <time>2021-04-27T16:22:01Z</time>
      </trkpt>
      <trkpt lat="47.27574" lon="6.04827">
        <ele>333.23</ele>
        <time>2021-04-27T16:22:03Z</time>
      </trkpt>
      <trkpt lat="47.27572" lon="6.0482">
        <ele>333.23</ele>
        <time>2021-04-27T16:22:04Z</time>
      </trkpt>
      <trkpt lat="47.27571" lon="6.04813">
        <ele>333.71</ele>
        <time>2021-04-27T16:22:05Z</time>
      </trkpt>
      <trkpt lat="47.27569" lon="6.04808">
        <ele>334.2</ele>
        <time>2021-04-27T16:22:06Z</time>
      </trkpt>
      <trkpt lat="47.27567" lon="6.04802">
        <ele>334.2</ele>
        <time>2021-04-27T16:22:07Z</time>
      </trkpt>
      <trkpt lat="47.27566" lon="6.04795">
        <ele>334.68</ele>
        <time>2021-04-27T16:22:08Z</time>
      </trkpt>
      <trkpt lat="47.27564" lon="6.0479">
        <ele>334.68</ele>
        <time>2021-04-27T16:22:09Z</time>
      </trkpt>
      <trkpt lat="47.27563" lon="6.04784">
        <ele>335.16</ele>
        <time>2021-04-27T16:22:10Z</time>
      </trkpt>
      <trkpt lat="47.27562" lon="6.04778">
        <ele>335.16</ele>
        <time>2021-04-27T16:22:11Z</time>
      </trkpt>
      <trkpt lat="47.27561" lon="6.04773">
        <ele>335.64</ele>
        <time>2021-04-27T16:22:12Z</time>
      </trkpt>
      <trkpt lat="47.27558" lon="6.04764">
        <ele>335.64</ele>
        <time>2021-04-27T16:22:14Z</time>
      </trkpt>
      <trkpt lat="47.27556" lon="6.0476">
        <ele>335.64</ele>
        <time>2021-04-27T16:22:15Z</time>
      </trkpt>
      <trkpt lat="47.27529" lon="6.04735">
        <ele>336.12</ele>
        <time>2021-04-27T16:22:24Z</time>
      </trkpt>
      <trkpt lat="47.27524" lon="6.04736">
        <ele>336.12</ele>
        <time>2021-04-27T16:22:25Z</time>
      </trkpt>
      <trkpt lat="47.27514" lon="6.04738">
        <ele>336.12</ele>
        <time>2021-04-27T16:22:27Z</time>
      </trkpt>
      <trkpt lat="47.27509" lon="6.04738">
        <ele>335.64</ele>
        <time>2021-04-27T16:22:28Z</time>
      </trkpt>
      <trkpt lat="47.27504" lon="6.04738">
        <ele>335.64</ele>
        <time>2021-04-27T16:22:29Z</time>
      </trkpt>
      <trkpt lat="47.27499" lon="6.04736">
        <ele>335.64</ele>
        <time>2021-04-27T16:22:30Z</time>
      </trkpt>
      <trkpt lat="47.27494" lon="6.04734">
        <ele>335.16</ele>
        <time>2021-04-27T16:22:31Z</time>
      </trkpt>
      <trkpt lat="47.27484" lon="6.04727">
        <ele>335.16</ele>
        <time>2021-04-27T16:22:33Z</time>
      </trkpt>
      <trkpt lat="47.2748" lon="6.04723">
        <ele>335.16</ele>
        <time>2021-04-27T16:22:34Z</time>
      </trkpt>
      <trkpt lat="47.27468" lon="6.04711">
        <ele>335.16</ele>
        <time>2021-04-27T16:22:37Z</time>
      </trkpt>
      <trkpt lat="47.27464" lon="6.04709">
        <ele>335.16</ele>
        <time>2021-04-27T16:22:38Z</time>
      </trkpt>
      <trkpt lat="47.2746" lon="6.04705">
        <ele>335.16</ele>
        <time>2021-04-27T16:22:39Z</time>
      </trkpt>
      <trkpt lat="47.27423" lon="6.04668">
        <ele>335.64</ele>
        <time>2021-04-27T16:22:48Z</time>
      </trkpt>
      <trkpt lat="47.27419" lon="6.04664">
        <ele>335.64</ele>
        <time>2021-04-27T16:22:49Z</time>
      </trkpt>
      <trkpt lat="47.2739" lon="6.04635">
        <ele>336.6</ele>
        <time>2021-04-27T16:22:57Z</time>
      </trkpt>
      <trkpt lat="47.27386" lon="6.04631">
        <ele>336.6</ele>
        <time>2021-04-27T16:22:58Z</time>
      </trkpt>
      <trkpt lat="47.27382" lon="6.04628">
        <ele>336.6</ele>
        <time>2021-04-27T16:22:59Z</time>
      </trkpt>
      <trkpt lat="47.27378" lon="6.04624">
        <ele>336.6</ele>
        <time>2021-04-27T16:23:00Z</time>
      </trkpt>
      <trkpt lat="47.27374" lon="6.04621">
        <ele>336.12</ele>
        <time>2021-04-27T16:23:01Z</time>
      </trkpt>
      <trkpt lat="47.2737" lon="6.04617">
        <ele>336.12</ele>
        <time>2021-04-27T16:23:02Z</time>
      </trkpt>
      <trkpt lat="47.27322" lon="6.04574">
        <ele>334.2</ele>
        <time>2021-04-27T16:23:13Z</time>
      </trkpt>
      <trkpt lat="47.27311" lon="6.04569">
        <ele>333.23</ele>
        <time>2021-04-27T16:23:15Z</time>
      </trkpt>
      <trkpt lat="47.27305" lon="6.04566">
        <ele>333.23</ele>
        <time>2021-04-27T16:23:16Z</time>
      </trkpt>
      <trkpt lat="47.273" lon="6.04561">
        <ele>332.27</ele>
        <time>2021-04-27T16:23:17Z</time>
      </trkpt>
      <trkpt lat="47.27294" lon="6.04556">
        <ele>331.79</ele>
        <time>2021-04-27T16:23:18Z</time>
      </trkpt>
      <trkpt lat="47.27289" lon="6.04552">
        <ele>331.79</ele>
        <time>2021-04-27T16:23:19Z</time>
      </trkpt>
      <trkpt lat="47.27283" lon="6.04549">
        <ele>331.31</ele>
        <time>2021-04-27T16:23:20Z</time>
      </trkpt>
      <trkpt lat="47.27271" lon="6.04542">
        <ele>330.35</ele>
        <time>2021-04-27T16:23:22Z</time>
      </trkpt>
      <trkpt lat="47.27266" lon="6.04538">
        <ele>329.39</ele>
        <time>2021-04-27T16:23:23Z</time>
      </trkpt>
      <trkpt lat="47.27255" lon="6.04528">
        <ele>328.43</ele>
        <time>2021-04-27T16:23:25Z</time>
      </trkpt>
      <trkpt lat="47.27242" lon="6.04523">
        <ele>327.95</ele>
        <time>2021-04-27T16:23:27Z</time>
      </trkpt>
      <trkpt lat="47.27235" lon="6.04522">
        <ele>327.95</ele>
        <time>2021-04-27T16:23:28Z</time>
      </trkpt>
      <trkpt lat="47.27228" lon="6.04521">
        <ele>327.95</ele>
        <time>2021-04-27T16:23:29Z</time>
      </trkpt>
      <trkpt lat="47.27222" lon="6.04522">
        <ele>327.95</ele>
        <time>2021-04-27T16:23:30Z</time>
      </trkpt>
      <trkpt lat="47.27216" lon="6.04522">
        <ele>327.95</ele>
        <time>2021-04-27T16:23:31Z</time>
      </trkpt>
      <trkpt lat="47.27178" lon="6.04528">
        <ele>327.95</ele>
        <time>2021-04-27T16:23:38Z</time>
      </trkpt>
      <trkpt lat="47.27173" lon="6.04529">
        <ele>328.43</ele>
        <time>2021-04-27T16:23:39Z</time>
      </trkpt>
      <trkpt lat="47.2717" lon="6.0453">
        <ele>327.95</ele>
        <time>2021-04-27T16:23:40Z</time>
      </trkpt>
      <trkpt lat="47.27168" lon="6.04533">
        <ele>327.95</ele>
        <time>2021-04-27T16:23:41Z</time>
      </trkpt>
      <trkpt lat="47.27167" lon="6.04535">
        <ele>327.95</ele>
        <time>2021-04-27T16:23:42Z</time>
      </trkpt>
      <trkpt lat="47.27165" lon="6.04538">
        <ele>327.47</ele>
        <time>2021-04-27T16:23:43Z</time>
      </trkpt>
      <trkpt lat="47.27152" lon="6.0456">
        <ele>324.1</ele>
        <time>2021-04-27T16:23:47Z</time>
      </trkpt>
      <trkpt lat="47.27129" lon="6.04593">
        <ele>321.7</ele>
        <time>2021-04-27T16:23:51Z</time>
      </trkpt>
      <trkpt lat="47.27122" lon="6.04597">
        <ele>321.7</ele>
        <time>2021-04-27T16:23:52Z</time>
      </trkpt>
      <trkpt lat="47.27089" lon="6.0462">
        <ele>322.66</ele>
        <time>2021-04-27T16:23:58Z</time>
      </trkpt>
      <trkpt lat="47.2707" lon="6.0464">
        <ele>325.06</ele>
        <time>2021-04-27T16:24:06Z</time>
      </trkpt>
      <trkpt lat="47.27041" lon="6.04667">
        <ele>327.95</ele>
        <time>2021-04-27T16:24:17Z</time>
      </trkpt>
      <trkpt lat="47.27013" lon="6.04677">
        <ele>331.31</ele>
        <time>2021-04-27T16:24:27Z</time>
      </trkpt>
      <trkpt lat="47.26972" lon="6.04699">
        <ele>334.2</ele>
        <time>2021-04-27T16:24:40Z</time>
      </trkpt>
      <trkpt lat="47.26951" lon="6.04707">
        <ele>335.16</ele>
        <time>2021-04-27T16:24:47Z</time>
      </trkpt>
      <trkpt lat="47.26913" lon="6.0472">
        <ele>336.12</ele>
        <time>2021-04-27T16:24:58Z</time>
      </trkpt>
      <trkpt lat="47.26902" lon="6.04728">
        <ele>336.12</ele>
        <time>2021-04-27T16:25:01Z</time>
      </trkpt>
      <trkpt lat="47.26897" lon="6.0473">
        <ele>336.12</ele>
        <time>2021-04-27T16:25:02Z</time>
      </trkpt>
      <trkpt lat="47.26889" lon="6.04735">
        <ele>336.6</ele>
        <time>2021-04-27T16:25:04Z</time>
      </trkpt>
      <trkpt lat="47.26885" lon="6.04738">
        <ele>336.12</ele>
        <time>2021-04-27T16:25:05Z</time>
      </trkpt>
      <trkpt lat="47.26873" lon="6.04747">
        <ele>336.6</ele>
        <time>2021-04-27T16:25:08Z</time>
      </trkpt>
      <trkpt lat="47.26869" lon="6.04751">
        <ele>336.6</ele>
        <time>2021-04-27T16:25:09Z</time>
      </trkpt>
      <trkpt lat="47.26865" lon="6.04754">
        <ele>336.6</ele>
        <time>2021-04-27T16:25:10Z</time>
      </trkpt>
      <trkpt lat="47.26813" lon="6.04818">
        <ele>338.52</ele>
        <time>2021-04-27T16:25:26Z</time>
      </trkpt>
      <trkpt lat="47.26809" lon="6.0482">
        <ele>338.52</ele>
        <time>2021-04-27T16:25:27Z</time>
      </trkpt>
      <trkpt lat="47.26806" lon="6.0482">
        <ele>338.52</ele>
        <time>2021-04-27T16:25:28Z</time>
      </trkpt>
      <trkpt lat="47.26802" lon="6.04817">
        <ele>338.52</ele>
        <time>2021-04-27T16:25:29Z</time>
      </trkpt>
      <trkpt lat="47.26799" lon="6.04813">
        <ele>338.52</ele>
        <time>2021-04-27T16:25:30Z</time>
      </trkpt>
      <trkpt lat="47.26797" lon="6.04808">
        <ele>338.52</ele>
        <time>2021-04-27T16:25:31Z</time>
      </trkpt>
      <trkpt lat="47.26768" lon="6.0476">
        <ele>339</ele>
        <time>2021-04-27T16:25:41Z</time>
      </trkpt>
      <trkpt lat="47.26757" lon="6.04747">
        <ele>339.96</ele>
        <time>2021-04-27T16:25:44Z</time>
      </trkpt>
      <trkpt lat="47.26696" lon="6.04695">
        <ele>340.44</ele>
        <time>2021-04-27T16:26:00Z</time>
      </trkpt>
      <trkpt lat="47.26674" lon="6.04681">
        <ele>340.92</ele>
        <time>2021-04-27T16:26:05Z</time>
      </trkpt>
      <trkpt lat="47.26655" lon="6.04677">
        <ele>340.92</ele>
        <time>2021-04-27T16:26:09Z</time>
      </trkpt>
      <trkpt lat="47.2665" lon="6.04677">
        <ele>340.92</ele>
        <time>2021-04-27T16:26:10Z</time>
      </trkpt>
      <trkpt lat="47.26645" lon="6.04678">
        <ele>340.92</ele>
        <time>2021-04-27T16:26:11Z</time>
      </trkpt>
      <trkpt lat="47.26581" lon="6.04672">
        <ele>339.96</ele>
        <time>2021-04-27T16:26:24Z</time>
      </trkpt>
      <trkpt lat="47.26551" lon="6.04661">
        <ele>338.52</ele>
        <time>2021-04-27T16:26:29Z</time>
      </trkpt>
      <trkpt lat="47.26545" lon="6.04657">
        <ele>338.04</ele>
        <time>2021-04-27T16:26:30Z</time>
      </trkpt>
      <trkpt lat="47.26539" lon="6.04651">
        <ele>338.04</ele>
        <time>2021-04-27T16:26:31Z</time>
      </trkpt>
      <trkpt lat="47.26533" lon="6.04646">
        <ele>338.04</ele>
        <time>2021-04-27T16:26:32Z</time>
      </trkpt>
      <trkpt lat="47.26528" lon="6.04639">
        <ele>337.56</ele>
        <time>2021-04-27T16:26:33Z</time>
      </trkpt>
      <trkpt lat="47.26446" lon="6.04575">
        <ele>335.16</ele>
        <time>2021-04-27T16:26:47Z</time>
      </trkpt>
      <trkpt lat="47.26382" lon="6.04539">
        <ele>334.68</ele>
        <time>2021-04-27T16:26:58Z</time>
      </trkpt>
      <trkpt lat="47.26294" lon="6.04472">
        <ele>330.83</ele>
        <time>2021-04-27T16:27:12Z</time>
      </trkpt>
      <trkpt lat="47.26288" lon="6.04465">
        <ele>330.35</ele>
        <time>2021-04-27T16:27:13Z</time>
      </trkpt>
      <trkpt lat="47.2628" lon="6.04459">
        <ele>330.35</ele>
        <time>2021-04-27T16:27:14Z</time>
      </trkpt>
      <trkpt lat="47.26259" lon="6.04439">
        <ele>328.91</ele>
        <time>2021-04-27T16:27:17Z</time>
      </trkpt>
      <trkpt lat="47.26252" lon="6.0443">
        <ele>328.43</ele>
        <time>2021-04-27T16:27:18Z</time>
      </trkpt>
      <trkpt lat="47.26213" lon="6.04374">
        <ele>326.5</ele>
        <time>2021-04-27T16:27:27Z</time>
      </trkpt>
      <trkpt lat="47.26195" lon="6.04347">
        <ele>325.06</ele>
        <time>2021-04-27T16:27:31Z</time>
      </trkpt>
      <trkpt lat="47.2619" lon="6.0434">
        <ele>325.06</ele>
        <time>2021-04-27T16:27:32Z</time>
      </trkpt>
      <trkpt lat="47.26167" lon="6.04307">
        <ele>325.06</ele>
        <time>2021-04-27T16:27:37Z</time>
      </trkpt>
      <trkpt lat="47.26153" lon="6.04287">
        <ele>324.58</ele>
        <time>2021-04-27T16:27:40Z</time>
      </trkpt>
      <trkpt lat="47.26149" lon="6.0428">
        <ele>324.58</ele>
        <time>2021-04-27T16:27:41Z</time>
      </trkpt>
      <trkpt lat="47.26144" lon="6.04275">
        <ele>324.58</ele>
        <time>2021-04-27T16:27:42Z</time>
      </trkpt>
      <trkpt lat="47.26123" lon="6.04261">
        <ele>324.58</ele>
        <time>2021-04-27T16:27:46Z</time>
      </trkpt>
      <trkpt lat="47.2612" lon="6.04256">
        <ele>324.58</ele>
        <time>2021-04-27T16:27:47Z</time>
      </trkpt>
      <trkpt lat="47.26103" lon="6.04238">
        <ele>324.1</ele>
        <time>2021-04-27T16:27:52Z</time>
      </trkpt>
      <trkpt lat="47.26101" lon="6.04238">
        <ele>324.58</ele>
        <time>2021-04-27T16:27:56Z</time>
      </trkpt>
      <trkpt lat="47.26101" lon="6.0424">
        <ele>321.22</ele>
        <time>2021-04-27T16:28:07Z</time>
      </trkpt>
      <trkpt lat="47.26101" lon="6.0424">
        <ele>322.18</ele>
        <time>2021-04-27T16:28:08Z</time>
      </trkpt>
    </trkseg>
  </trk>
</gpx>